     2              OBSERVATION DATA    GPS                 RINEX VERSION / TYPE
teqc 1997Jul24 19970813                                     PGM / RUN BY / DATE
                                                            COMMENT
BIT 2 OF LLI FLAGS DATA COLLECTED UNDER A-S CONDITION       COMMENT
BIT 2 OF LLI FLAGS DATA COLLECTED UNDER A-S CONDITION       COMMENT
Original Marker Name: 55487.PINY                            COMMENT
Campaign Name: TREX12                                       COMMENT
4-Character Station Name: PINY                              COMMENT
6-Character Antenna Code: TI4100                            COMMENT
Vertical Measurement Point: PAE                             COMMENT
Vertical Offset to Rinex Ref. Point: 0.0000                 COMMENT
Radial Measurement Point: RRP                               COMMENT
Radial Offset to Rinex Ref. Point: 0.0000                   COMMENT
Antenna Height from Field Measurement: 1.6930 m             COMMENT
Original XYZ: -2279903.7710 -4592836.3645 3782591.4206      COMMENT
New XYZ position is based on association with SCEC monument COMMENT
E1D0K5S1+0011. Position of that monument is believed to be  COMMENT
valid to within 1 m horizontally; vertical accuracy         COMMENT
should be no worse than 3-times this value.                 COMMENT
                                                            COMMENT
Revised Rinex header created by UCSD GPS archive for        COMMENT
GSAC on 02-Jun-1999 (1999:153) 02:17:44 GMT                 COMMENT
For assistance contact dagnew@ucsd.edu or hjohnson@ucsd.edu COMMENT
                                                            COMMENT
PINYON FLAT NCMN 1981                                       MARKER NAME
5 NATIONAL GEODETIC SURVEY                                  OBSERVER / AGENCY
UT04 TI 4100 1.5                                            REC # / TYPE / VERS
108 TI 4100                                                 ANT # / TYPE
 -2369636.0000 -4761325.0000  3511116.0000                  APPROX POSITION XYZ
        1.6930        0.0000        0.0000                  ANTENNA: DELTA H/E/N
     1     1     0                                          WAVELENGTH FACT L1/2
     4    P1    P2    L1    L2                              # / TYPES OF OBSERV
    30                                                      INTERVAL
  1988     3    22     2    34   29.000000                  TIME OF FIRST OBS
  1988     3    22     8    31   59.000000                  TIME OF LAST OBS
     0                                                      # OF SATELLITES
                                                            END OF HEADER
 88  3 22  2 34 29.0800000  0  1G11
  24778555.241    24778562.392      388436.472 6  -1418716.747 8
 88  3 22  2 34 59.0800000  0  1G11
  24756917.024    24756924.209      274739.412 7  -1507311.726 7
 88  3 22  2 35 29.0800000  0  1G11
  24735287.348    24735300.696      161096.257 6  -1595864.666 7
 88  3 22  2 35 59.0800000  0  2G 8G11
                  21756378.283     -442571.531 9
  24713676.397    24713684.739       47510.721 6  -1684372.764 7
 88  3 22  2 36 29.0800000  0  3G 6G 8G11
  22608641.406    22608649.311     -538561.978 9    890641.715 8
  21740548.565    21740553.505     -525907.785 9    712828.206 8
  24692072.518    24692080.635      -66014.493 7  -1772833.839 7
 88  3 22  2 36 59.0800000  0  3G 6G 8G11
  22596941.225    22596946.102     -600061.742 9    842719.913 9
  21724784.884    21724791.390     -608743.284 9    648281.130 7
  24670482.568    24670491.297     -179477.117 7  -1861246.120 8
 88  3 22  2 37 29.0800000  0  3G 6G 8G11
  22585243.873    22585248.712     -661525.939 9    794825.806 9
  21709117.637    21709123.684     -691073.922 9    584127.444 8
  24648903.602    24648911.616     -292872.741 8  -1949606.238 7
 88  3 22  2 37 59.0800000  0  3G 6G 8G11
  22573553.051    22573559.414     -722954.409 8    746959.518 9
  21693548.222    21693554.005     -772897.375 8    520368.974 8
  24627338.943    24627346.157     -406199.102 9  -2037912.415 8
 88  3 22  2 38 29.0800000  0  3G 6G 8G11
  22561868.737    22561876.497     -784346.822 8    699121.342 9
  21678074.559    21678080.525     -854211.418 8    457007.459 7
  24605786.458    24605795.129     -519454.095 9  -2126162.952 8
 88  3 22  2 38 59.0800000  0  3G 6G 8G11
  22550195.992    22550200.058     -845702.113 8    651312.094 9
  21662698.367    21662703.769     -935012.442 9    394045.685 8
  24584248.826    24584255.920     -632634.687 8  -2214355.512 7
 88  3 22  2 39 29.0800000  0  3G 6G 8G11
  22538527.881    22538533.383     -907018.813 8    603532.895 8
  21647422.643    21647427.278    -1015297.065 8    331486.289 8
  24562726.725    24562733.968     -745737.730 8  -2302487.686 8
 88  3 22  2 39 59.0800000  0  3G 6G 8G11
  22526867.098    22526872.388     -968296.097 9    555784.382 9
  21632242.832    21632247.262    -1095062.478 9    269331.493 8
  24541217.672    24541225.711     -858760.228 8  -2390557.041 8
 88  3 22  2 40 29.0800000  0  3G 6G 8G11
  22515213.313    22515219.575    -1029533.240 8    508067.202 9
  21617162.663    21617167.964    -1174305.773 9    207583.522 7
  24519727.801    24519734.546     -971699.318 7  -2478561.402 8
 88  3 22  2 40 59.0800000  0  3G 6G 8G11
  22503568.635    22503573.284    -1090728.854 8    460382.427 9
  21602183.202    21602188.301    -1253023.487 9    146245.112 8
  24498252.139    24498258.876    -1084551.828 8  -2566498.320 8
 88  3 22  2 41 29.0800000  0  3G 6G 8G11
  22491931.737    22491937.196    -1151882.028 8    412730.669 9
  21587304.483    21587308.752    -1331212.872 9     85318.381 8
  24476793.384    24476800.811    -1197315.329 7  -2654365.879 8
 88  3 22  2 41 59.0800000  0  3G 6G 8G11
  22480302.869    22480307.698    -1212992.114 9    365112.482 9
  21572525.704    21572530.310    -1408871.519 9     24805.225 8
  24455351.967    24455360.456    -1309986.769 6  -2742161.701 8
 88  3 22  2 42 29.0800000  0  3G 6G 8G11
  22468682.431    22468687.223    -1274058.546 8    317528.298 8
  21557850.027    21557853.856    -1485996.501 8    -35292.118 7
  24433928.642    24433937.207    -1422563.883 7  -2829884.034 8
 88  3 22  2 42 59.0800000  0  3G 6G 8G11
  22457070.486    22457075.192    -1335079.269 8    269979.728 9
  21543276.093    21543280.560    -1562584.160 9    -94970.750 8
  24412525.263    24412534.680    -1535042.810 7  -2917529.852 8
 88  3 22  2 43 29.0800000  0  3G 6G 8G11
  22445465.779    22445473.031    -1396055.603 8    222465.784 9
  21528803.453    21528807.932    -1638633.668 9   -154230.048 8
  24391140.728    24391147.782    -1647422.837 7  -3005098.619 7
 88  3 22  2 43 59.0800000  0  3G 6G 8G11
  22433871.985    22433877.451    -1456984.504 9    174988.802 8
  21514434.698    21514439.657    -1714140.384 8   -213066.386 7
  24369774.028    24369782.184    -1759699.242 7  -3092586.625 6
 88  3 22  2 44 29.0800000  0  3G 6G 8G11
  22422287.406    22422293.204    -1517864.465 9    127549.975 9
  21500170.395    21500174.979    -1789101.097 9   -271477.276 8
  24348429.215    24348436.247    -1871868.456 8  -3179991.123 7
 88  3 22  2 44 59.0800000  0  3G 6G 8G11
  22410712.025    22410716.480    -1578694.237 9     80150.214 9
  21486010.082    21486015.649    -1863512.938 9   -329460.445 8
  24327105.400    24327111.685    -1983927.832 8  -3267310.020 7
 88  3 22  2 45 29.0800000  0  3G 6G 8G11
  22399145.402    22399150.807    -1639472.353 8     32790.694 9
  21471954.558    21471960.167    -1937372.238 8   -387013.074 8
  24305804.155    24305809.076    -2095873.922 8  -3354540.662 8
 88  3 22  2 45 59.0800000  0  3G 6G 8G11
  22387589.108    22387594.612    -1700198.413 9    -14528.263 9
  21458004.630    21458011.856    -2010676.747 9   -444133.429 7
  24284521.314    24284528.335    -2207704.295 8  -3441681.110 7
 88  3 22  2 46 29.0800000  0  3G 6G 8G11
  22376043.741    22376048.911    -1760870.736 9    -61805.324 9
  21444162.442    21444167.494    -2083423.270 8   -500818.960 8
  24263264.952    24263273.004    -2319415.468 8  -3528728.704 7
 88  3 22  2 46 59.0800000  0  3G 6G 8G11
  22364507.296    22364514.188    -1821488.588 8   -109039.955 9
  21430426.965    21430429.751    -2155609.287 9   -557067.746 8
  24242030.393    24242037.338    -2431004.993 8  -3615681.499 7
 88  3 22  2 47 29.0800000  0  3G 6G 8G11
  22352985.041    22352988.749    -1882050.294 9   -156230.818 8
  21416797.295    21416801.520    -2227232.069 8   -612877.645 7
  24220818.938    24220825.335    -2542469.558 8  -3702536.896 8
 88  3 22  2 47 59.0800000  0  3G 6G 8G11
  22341471.907    22341475.380    -1942555.334 9   -203377.544 9
  21403274.557    21403279.918    -2298288.979 9   -668246.609 8
  24199633.182    24199638.727    -2653806.945 7  -3789293.216 8
 88  3 22  2 48 29.0800000  0  3G 6G 8G11
  22329966.737    22329971.249    -2003002.231 9   -250478.963 9
  21389862.100    21389866.332    -2368777.063 8   -723172.329 7
  24178471.100    24178477.223    -2765014.128 7  -3875948.088 8
 88  3 22  2 48 59.0800000  0  3G 6G 8G11
  22318475.810    22318481.617    -2063390.027 9   -297534.335 8
  21376555.428    21376562.341    -2438694.301 8   -777653.234 8
  24157332.417    24157340.743    -2876088.229 7  -3962499.214 9
 88  3 22  2 49 29.0800000  0  3G 6G 8G11
  22306996.988    22307002.518    -2123717.606 9   -344542.795 9
  21363359.142    21363365.756    -2508038.278 9   -831687.433 7
  24136221.876    24136229.469    -2987026.177 6  -4048944.271 8
 88  3 22  2 49 59.0800000  0  3G 6G 8G11
  22295528.757    22295533.636    -2183983.198 9   -391502.934 8
  21350275.999    21350280.231    -2576805.375 9   -885272.131 7
  24115138.063    24115142.889    -3097824.810 8  -4135280.753 7
 88  3 22  2 50 29.0800000  0  3G 6G 8G11
  22284070.449    22284077.621    -2244185.542 8   -438413.799 9
  21337299.604    21337303.002    -2644993.171 8   -938405.422 7
  24094081.180    24094087.689    -3208480.790 8  -4221506.157 9
 88  3 22  2 50 59.0800000  0  3G 6G 8G11
  22272627.935    22272633.031    -2304323.926 8   -485274.805 8
  21324433.881    21324438.723    -2712599.382 9   -991085.536 7
  24073049.815    24073058.558    -3318991.780 8  -4307618.500 7
 88  3 22  2 51 29.0800000  0  3G 6G 8G11
  22261195.548    22261200.719    -2364396.902 8   -532084.867 9
  21311680.316    21311683.805    -2779621.177 9  -1043310.261 8
  24052049.751    24052056.143    -3429354.935 8  -4393615.672 7
 88  3 22  2 51 59.0800000  0  3G 6G 8G11
  22249777.569    22249782.484    -2424403.564 9   -578843.283 9
  21299037.031    21299043.554    -2846056.878 8  -1095078.285 7
  24031075.588    24031083.687    -3539567.611 7  -4479495.620 8
 88  3 22  2 52 29.0800000  0  3G 6G 8G11
  22238371.445    22238376.970    -2484342.034 8   -625548.548 9
  21286508.149    21286511.969    -2911902.660 8  -1146386.636 8
  24010132.028    24010139.277    -3649626.266 8  -4565255.500 8
 88  3 22  2 52 59.0800000  0  3G 6G 8G11
  22226978.568    22226984.655    -2544211.490 8   -672199.987 9
  21274088.522    21274095.148    -2977156.726 9  -1197233.928 7
  23989219.906    23989226.395    -3759528.397 8  -4650893.432 8
 88  3 22  2 53 29.0800000  0  3G 6G 8G11
  22215599.524    22215604.354    -2604010.041 8   -718796.180 9
  21261784.788    21261791.283    -3041816.077 8  -1247617.787 7
  23968335.271    23968343.465    -3869270.440 7  -4736406.628 7
 88  3 22  2 53 59.0800000  0  3G 6G 8G11
  22204234.647    22204238.582    -2663735.281 9   -765335.289 9
  21249594.891    21249599.681    -3105877.314 8  -1297535.570 7
  23947484.650    23947489.985    -3978848.439 8  -4821791.992 8
 88  3 22  2 54 29.0800000  0  3G 6G 8G11
  22192883.548    22192887.622    -2723387.583 9   -811817.581 8
  21237518.533    21237523.168    -3169339.421 8  -1346986.505 7
  23926662.112    23926670.134    -4088261.134 7  -4907048.539 9
 88  3 22  2 54 59.0800000  0  3G 6G 8G11
  22181545.011    22181551.448    -2782965.192 9   -858241.646 8
  21225557.172    21225560.684    -3232199.534 8  -1395968.352 7
  23905873.445    23905881.556    -4197505.132 8  -4992173.643 8
 88  3 22  2 55 29.0800000  0  3G 6G 8G11
  22170223.399    22170229.197    -2842466.109 9   -904605.924 9
  21213710.354    21213714.372    -3294454.993 9  -1444479.022 7
  23885118.325    23885126.616    -4306577.134 7  -5077164.742 9
 88  3 22  2 55 59.0800000  0  3G 6G 8G11
  22158915.394    22158920.340    -2901889.734 9   -950909.975 9
  21201977.602    21201983.853    -3356104.021 7  -1492517.190 7
  23864395.908    23864403.339    -4415474.928 8  -5162020.050 8
 88  3 22  2 56 29.0800000  0  3G 6G 8G11
  22147621.766    22147625.524    -2961233.978 8   -997152.214 8
  21190363.611    21190367.246    -3417143.447 8  -1540080.311 8
  23843707.476    23843713.902    -4524194.591 7  -5246736.570 8
 88  3 22  2 56 59.0800000  0  3G 6G 8G11
  22136342.311    22136347.293    -3020496.952 8  -1043331.131 8
  21178864.525    21178868.611    -3477570.477 8  -1587166.266 8
  23823054.307    23823060.590    -4632733.019 7  -5331311.875 9
 88  3 22  2 57 29.0800000  0  3G 6G 8G11
  22125083.042    22125088.415    -3079677.639 8  -1089445.878 8
  21167482.855    21167486.442    -3537383.150 8  -1633773.474 7
  23802433.490    23802441.137    -4741087.662 7  -5415743.964 7
 88  3 22  2 57 59.0800000  0  3G 6G 8G11
  22113837.648    22113841.943    -3138775.019 8  -1135495.715 9
  21156217.206    21156221.733    -3596580.111 9  -1679900.935 8
  23781849.332    23781856.355    -4849255.880 7  -5500030.808 8
 88  3 22  2 58 29.0800000  0  3G 6G 8G11
  22102608.059    22102612.283    -3197788.112 9  -1181479.915 9
  21145071.438    21145074.735    -3655159.377 9  -1725547.060 8
  23761302.530    23761308.339    -4957235.274 7  -5584170.499 8
 88  3 22  2 58 59.0800000  0  3G 6G 8G11
  22091392.531    22091397.756    -3256714.883 9  -1227396.820 9
  21134040.575    21134045.044    -3713117.862 8  -1770709.462 8
  23740790.083    23740797.044    -5065022.162 8  -5668160.209 9
 88  3 22  2 59 29.0800000  0  3G 6G 8G11
  22080195.748    22080199.883    -3315553.908 8  -1273245.332 9
  21123129.665    21123133.223    -3770453.779 8  -1815386.748 7
  23720316.463    23720323.365    -5172613.634 7  -5751997.621 9
 88  3 22  2 59 59.0800000  0  3G 6G 8G11
  22069017.471    22069021.418    -3374304.453 9  -1319024.946 8
  21112339.401    21112343.342    -3827165.568 9  -1859577.693 7
  23699879.743    23699886.987    -5280007.984 8  -5835681.442 7
 88  3 22  3  0 29.0800000  0  3G 6G 8G11
  22057854.985    22057859.643    -3432964.740 9  -1364734.225 9
  21101665.867    21101669.798    -3883250.666 8  -1903280.316 7
  23679482.412    23679489.061    -5387201.604 8  -5919208.849 7
 88  3 22  3  0 59.0800000  0  3G 6G 8G11
  22046706.970    22046713.583    -3491533.094 7  -1410371.838 9
  21091111.958    21091116.836    -3938706.761 8  -1946492.798 7
  23659123.220    23659129.273    -5494191.729 8  -6002577.689 8
 88  3 22  3  1 29.0800000  0  3G 6G 8G11
  22035582.434    22035586.574    -3550008.006 8  -1455936.598 9
  21080680.379    21080683.288    -3993531.655 9  -1989213.448 7
  23638801.359    23638808.927    -5600975.155 7  -6085785.490 8
 88  3 22  3  1 59.0800000  0  3G 6G 8G11
  22024472.455    22024475.319    -3608386.691 8  -1501426.450 8
  21070367.073    21070371.686    -4047722.313 8  -2031439.882 7
  23618521.824    23618527.976    -5707548.172 7  -6168829.290 8
 88  3 22  3  2 29.0800000  0  3G 6G 8G11
  22013381.637    22013386.781    -3666668.531 9  -1546840.857 9
  21060176.531    21060181.012    -4101277.410 8  -2073171.072 8
  23598282.321    23598289.008    -5813908.118 8  -6251707.115 8
 88  3 22  3  2 59.0800000  0  3G 6G 8G11
  22002308.478    22002315.096    -3724852.819 8  -1592179.195 9
  21050106.416    21050111.869    -4154195.878 8  -2114406.192 7
  23578084.647    23578089.328    -5920053.309 7  -6334417.573 7
 88  3 22  3  3 29.0800000  0  3G 6G 8G11
  21991258.028    21991261.049    -3782937.773 9  -1637440.102 9
  21040157.138    21040161.182    -4206475.617 8  -2155143.607 7
  23557926.946    23557933.435    -6025980.461 7  -6416958.154 8
 88  3 22  3  3 59.0800000  0  3G 6G 8G11
  21980222.624    21980226.303    -3840921.303 9  -1682622.030 9
  21030331.056    21030335.723    -4258113.930 8  -2195381.209 7
  23537809.584    23537818.229    -6131686.299 7  -6499326.257 8
 88  3 22  3  4 29.0800000  0  3G 6G 8G11
  21969207.250    21969209.957    -3898802.391 8  -1727724.163 7
  21020626.354    21020631.232    -4309109.342 8  -2235117.867 8
  23517738.485    23517744.664    -6237168.701 7  -6581520.246 8
 88  3 22  3  4 59.0800000  0  3G 6G 8G11
  21958213.653    21958218.177    -3956578.721 8  -1772744.625 9
  21011045.584    21011050.031    -4359459.515 9  -2274351.735 7
  23497707.296    23497716.070    -6342423.790 8  -6663537.127 8
 88  3 22  3  5 29.0800000  0  3G 6G 8G11
  21947240.220    21947243.844    -4014248.983 9  -1817682.417 9
  21001587.585    21001592.154    -4409163.076 7  -2313081.740 7
  23477723.300    23477729.076    -6447449.047 8  -6745374.909 8
 88  3 22  3  5 59.0800000  0  3G 6G 8G11
  21936285.457    21936288.951    -4071811.317 9  -1862536.152 9
  20992251.550    20992258.411    -4458217.957 8  -2351306.287 8
  23457781.924    23457788.369    -6552241.397 8  -6827031.230 9
 88  3 22  3  6 29.0800000  0  3G 6G 8G11
  21925350.222    21925354.880    -4129264.579 8  -1907304.883 8
  20983040.799    20983045.709    -4506622.203 8  -2389023.843 7
  23437884.678    23437891.779    -6656798.208 8  -6908503.982 8
 88  3 22  3  6 59.0800000  0  3G 6G 8G11
  21914441.383    21914445.149    -4186606.709 9  -1951987.022 8
  20973954.246    20973959.144    -4554373.990 9  -2426233.013 7
  23418033.205    23418040.379    -6761116.283 7  -6989790.736 8
 88  3 22  3  7 29.0800000  0  3G 6G 8G11
  21903551.279    21903554.618    -4243836.012 9  -1996581.256 8
  20964991.243    20964994.966    -4601471.682 8  -2462932.446 8
  23398228.458    23398235.095    -6865193.021 7  -7070889.421 8
 88  3 22  3  7 59.0800000  0  3G 6G 8G11
  21892681.337    21892686.594    -4300952.182 9  -2041087.321 9
  20956153.100    20956158.780    -4647915.127 8  -2499122.112 9
  23378470.992    23378476.990    -6969026.764 8  -7151798.741 8
 88  3 22  3  8 29.0800000  0  3G 6G 8G11
  21881832.766    21881837.877    -4357954.343 8  -2085504.508 9
  20947441.286    20947445.147    -4693703.121 9  -2534801.039 7
  23358757.770    23358763.936    -7072615.267 8  -7232516.990 8
 88  3 22  3  8 59.0800000  0  3G 6G 8G11
  21871009.162    21871011.647    -4414840.058 9  -2129831.009 8
  20938853.419    20938858.804    -4738833.329 7  -2569967.373 8
  23339092.370    23339099.220    -7175954.834 8  -7313041.242 8
 88  3 22  3  9 29.0800000  0  3G 6G 8G11
  21860207.250    21860210.232    -4471607.486 9  -2174065.361 9
  20930391.053    20930395.387    -4783304.034 9  -2604619.833 7
  23319475.364    23319482.656    -7279042.636 8  -7393369.336 8
 88  3 22  3  9 59.0800000  0  3G 6G 8G11
  21849425.417    21849431.337    -4528254.074 8  -2218205.510 9
  20922053.557    20922058.537    -4827112.970 9  -2638756.621 8
  23299905.732    23299914.497    -7381875.026 8  -7473498.376 8
 88  3 22  3 10 29.0800000  0  3G 6G 8G11
  21838668.942    21838674.532    -4584778.768 8  -2262250.643 9
  20913843.675    20913848.700    -4870258.559 9  -2672376.541 7
  23280387.496    23280394.034    -7484449.783 8  -7553426.663 7
 88  3 22  3 10 59.0800000  0  3G 6G 8G11
  21827938.689    21827940.018    -4641180.355 9  -2306199.897 9
  20905759.894    20905763.884    -4912740.220 8  -2705479.060 8
  23260918.131    23260924.271    -7586764.649 9  -7633152.474 8
 88  3 22  3 11 29.0800000  0  3G 6G 8G11
  21817227.481    21817231.700    -4697456.926 8  -2350051.760 9
  20897802.443    20897807.063    -4954556.501 8  -2738063.138 8
  23241496.843    23241505.015    -7688816.646 8  -7712673.433 7
 88  3 22  3 11 59.0800000  0  3G 6G 8G11
  21806541.207    21806547.959    -4753606.380 8  -2393804.523 9
  20889973.178    20889977.681    -4995705.364 8  -2770127.137 8
  23222128.249    23222134.963    -7790602.317 8  -7791986.885 7
 88  3 22  3 12 29.0800000  0  3G 6G 8G11
  21795884.160    21795887.782    -4809627.406 9  -2437457.191 9
  20882268.656    20882273.530    -5036185.706 8  -2801670.215 8
  23202811.222    23202817.914    -7892119.505 7  -7871091.103 8
 88  3 22  3 12 59.0800000  0  3G 6G 8G11
  21785248.442    21785252.310    -4865517.777 8  -2481008.099 8
  20874692.947    20874698.284    -5075995.622 8  -2832690.877 8
  23183543.727    23183550.759    -7993364.951 7  -7949983.555 8
 88  3 22  3 13 29.0800000  0  3G 6G 8G11
  21774636.104    21774640.521    -4921276.020 9  -2524456.056 9
  20867246.045    20867249.348    -5115134.079 9  -2863188.330 9
  23164329.967    23164335.688    -8094336.385 8  -8028662.551 8
 88  3 22  3 13 59.0800000  0  3G 6G 8G11
  21764053.080    21764055.923    -4976900.221 8  -2567799.511 9
  20859924.442    20859929.717    -5153599.729 8  -2893161.518 8
  23145168.221    23145174.998    -8195030.699 8  -8107125.574 8
 88  3 22  3 14 29.0800000  0  3G 6G 8G11
  21753493.898    21753497.542    -5032388.521 9  -2611037.128 9
  20852733.180    20852738.423    -5191391.330 9  -2922609.471 8
  23126060.258    23126066.489    -8295445.068 7  -8185370.478 8
 88  3 22  3 14 59.0800000  0  3G 6G 8G11
  21742960.644    21742964.403    -5087739.222 9  -2654167.492 8
  20845671.015    20845674.279    -5228507.856 9  -2951531.380 8
  23107006.546    23107012.227    -8395576.679 8  -8263395.015 8
 88  3 22  3 15 29.0800000  0  3G 6G 8G11
  21732453.385    21732457.402    -5142950.222 9  -2697189.006 9
  20838736.762    20838740.829    -5264947.675 8  -2979926.022 8
  23088005.060    23088011.731    -8495422.603 8  -8341196.942 9
 88  3 22  3 15 59.0800000  0  3G 6G 8G11
  21721974.337    21721977.557    -5198019.745 9  -2740100.293 8
  20831930.157    20831935.649    -5300709.363 8  -3007792.223 7
  23069061.154    23069068.105    -8594980.158 8  -8418774.182 7
 88  3 22  3 16 29.0800000  0  3G 6G 8G11
  21711522.078    21711527.346    -5252946.013 9  -2782899.958 9
  20825255.197    20825260.132    -5335792.033 8  -3035129.321 8
  23050169.852    23050177.006    -8694246.314 8  -8496124.388 7
 88  3 22  3 16 59.0800000  0  3G 6G 8G11
  21701095.499    21701103.097    -5307727.403 8  -2825586.672 9
  20818706.818    20818713.251    -5370194.624 9  -3061936.495 8
  23031335.374    23031344.179    -8793218.666 8  -8573245.600 8
 88  3 22  3 17 29.0800000  0  3G 6G 8G11
  21690701.347    21690704.225    -5362361.820 9  -2868158.898 9
  20812291.307    20812296.741    -5403915.789 8  -3088212.681 8
  23012558.806    23012564.688    -8891894.613 9  -8650135.882 8
 88  3 22  3 17 59.0800000  0  3G 6G 8G11
  21680332.496    21680336.357    -5416847.672 9  -2910615.412 9
  20806004.266    20806008.252    -5436954.812 8  -3113957.314 7
  22993839.334    22993844.027    -8990271.299 7  -8726792.970 8
 88  3 22  3 18 29.0800000  0  3G 6G 8G11
  21669992.428    21669997.766    -5471182.809 8  -2952954.441 9
  20799846.531    20799851.635    -5469310.309 8  -3139169.368 8
  22975176.163    22975180.725    -9088346.002 8  -8803214.742 8
 88  3 22  3 18 59.0800000  0  3G 6G 8G11
  21659682.627    21659686.164    -5525365.233 9  -2995174.449 9
  20793820.491    20793823.700    -5500981.107 9  -3163847.863 7
  22956570.329    22956576.547    -9186115.634 8  -8879398.802 7
 88  3 22  3 19 29.0800000  0  3G 6G 8G11
  21649402.290    21649404.563    -5579393.860 9  -3037274.663 8
  20787923.889    20787928.491    -5531967.363 8  -3187992.982 8
  22938023.850    22938029.934    -9283578.512 8  -8955343.857 8
 88  3 22  3 19 59.0800000  0  3G 6G 8G11
  21639148.380    21639152.291    -5633266.374 8  -3079253.245 8
  20782158.830    20782163.243    -5562267.691 8  -3211603.583 7
  22919536.288    22919543.292    -9380731.511 9  -9031047.429 8
 88  3 22  3 20 29.0800000  0  3G 6G 8G11
  21628928.906    21628932.829    -5686981.245 8  -3121108.921 9
  20776523.071    20776525.594    -5591881.170 8  -3234678.970 8
  22901109.696    22901114.220    -9477572.079 8  -9106507.551 8
 88  3 22  3 20 59.0800000  0  3G 6G 8G11
  21618737.844    21618740.365    -5740535.600 9  -3162839.578 9
  20771017.979    20771023.061    -5620806.105 9  -3257217.850 8
  22882739.952    22882745.807    -9574096.971 7  -9181721.677 7
 88  3 22  3 21 29.0800000  0  3G 6G 8G11
  21608577.378    21608580.281    -5793928.148 9  -3204444.119 8
  20765646.039    20765649.826    -5649042.341 9  -3279220.057 7
  22864432.931    22864439.891    -9670303.937 8  -9256688.068 7
 88  3 22  3 21 59.0800000  0  3G 6G 8G11
  21598447.834    21598450.977    -5847157.392 9  -3245921.424 8
  20760403.312    20760407.719    -5676589.491 9  -3300685.346 7
  22846186.006    22846191.979    -9766190.552 8  -9331404.841 8
 88  3 22  3 22 29.0800000  0  3G 6G 8G11
  21588349.658    21588353.526    -5900221.111 9  -3287269.766 9
  20755292.390    20755295.595    -5703446.389 8  -3321612.766 7
  22828001.411    22828005.789    -9861754.224 8  -9405869.976 7
 88  3 22  3 22 59.0800000  0  3G 6G 8G11
  21578283.766    21578287.377    -5953117.443 9  -3328487.641 9
  20750312.744    20750318.008    -5729612.621 9  -3342002.005 7
  22809876.297    22809883.032    -9956991.899 8  -9480081.074 8
 88  3 22  3 23 29.0800000  0  3G 6G 8G11
  21568249.622    21568253.624    -6005844.192 9  -3369573.383 8
  20745466.579    20745469.573    -5755087.440 9  -3361852.469 7
  22791817.381    22791822.771   -10051901.448 8  -9554036.485 8
 88  3 22  3 23 59.0800000  0  3G 6G 8G11
  21558249.180    21558253.585    -6058399.291 9  -3410525.407 8
  20740749.610    20740753.072    -5779870.115 9  -3381163.620 7
  22773819.402    22773824.043   -10146479.438 8  -9627733.550 8
 88  3 22  3 24 29.0800000  0  3G 6G 8G11
  21548281.144    21548286.427    -6110780.777 9  -3451342.117 8
  20736164.864    20736168.992    -5803959.818 8  -3399934.772 7
  22755885.720    22755890.487   -10240723.567 9  -9701170.489 8
 88  3 22  3 24 59.0800000  0  3G 6G 8G11
  21538345.819    21538349.442    -6162986.841 8  -3492022.102 9
  20731711.908    20731716.562    -5827356.232 8  -3418165.715 7
  22738014.517    22738021.144   -10334631.398 8  -9774345.357 8
 88  3 22  3 25 29.0800000  0  3G 6G 8G11
  21528446.071    21528449.656    -6215015.283 9  -3532563.720 8
  20727392.474    20727396.035    -5850058.699 9  -3435855.921 8
  22720209.035    22720215.307   -10428200.049 8  -9847255.927 8
 88  3 22  3 25 59.0800000  0  3G 6G 8G11
  21518578.898    21518584.023    -6266864.609 9  -3572965.771 9
  20723205.412    20723206.590    -5872066.530 9  -3453004.837 7
  22702469.483    22702474.997   -10521427.472 9  -9919900.610 8
 88  3 22  3 26 29.0800000  0  3G 6G 8G11
  21508746.566    21508750.687    -6318532.579 8  -3613226.497 8
  20719148.753    20719154.215    -5893379.525 9  -3469612.352 7
  22684792.767    22684798.886   -10614311.083 8  -9992277.386 8
 88  3 22  3 26 59.0800000  0  3G 6G 8G11
  21498949.326    21498953.178    -6370017.258 8  -3653344.401 9
  20715225.196    20715229.063    -5913997.170 9  -3485678.005 7
  22667184.011    22667189.839   -10706848.362 8 -10064384.298 8
 88  3 22  3 27 29.0800000  0  3G 6G 8G11
  21489187.333    21489191.621    -6421316.751 9  -3693317.994 8
  20711434.203    20711437.238    -5933919.004 9  -3501201.497 7
  22649642.073    22649646.500   -10799036.633 9 -10136219.245 8
 88  3 22  3 27 59.0800000  0  3G 6G 8G11
  21479462.639    21479466.345    -6472428.770 8  -3733145.507 8
  20707775.898    20707778.997    -5953144.832 9  -3516182.622 7
  22632164.300    22632170.818   -10890872.926 8 -10207779.916 8
 88  3 22  3 28 29.0800000  0  3G 6G 8G11
  21469772.368    21469775.493    -6523351.306 9  -3772825.372 9
  20704250.165    20704252.991    -5971674.086 9  -3530620.985 7
  22614757.124    22614762.433   -10982355.075 9 -10279064.640 8
 88  3 22  3 28 59.0800000  0  3G 6G 8G11
  21460116.294    21460121.744    -6574082.097 8  -3812355.842 8
  20700856.480    20700859.581    -5989506.261 9  -3544516.156 7
  22597414.750    22597420.559   -11073480.381 7 -10350071.306 8
 88  3 22  3 29 29.0800000  0  3G 6G 8G11
  21450500.031    21450504.688    -6624619.420 8  -3851735.533 9
  20697595.812    20697599.462    -6006641.437 8  -3557868.231 8
  22580143.049    22580148.491   -11164246.554 8 -10420798.143 7
 88  3 22  3 29 59.0800000  0  3G 6G 8G11
  21440920.086    21440926.227    -6674961.167 8  -3890962.833 8
  20694467.130    20694472.684    -6023079.580 9  -3570677.147 8
  22562940.343    22562946.115   -11254651.382 8 -10491243.396 8
 88  3 22  3 30 29.0800000  0  3G 6G 8G11
  21431379.141    21431382.981    -6725105.069 8  -3930035.978 8
  20691473.529    20691477.693    -6038819.789 8  -3582942.221 8
  22545806.528    22545812.689   -11344691.833 9 -10561404.738 8
 88  3 22  3 30 59.0800000  0  3G 6G 8G11
  21421875.496    21421877.695    -6775049.011 8  -3968953.297 8
  20688609.846    20688614.370    -6053862.141 9  -3594663.496 7
  22528742.560    22528746.630   -11434365.417 8 -10631280.194 8
 88  3 22  3 31 29.0800000  0  3G 6G 8G11
  21412408.685    21412413.321    -6824791.021 9  -4007713.276 9
  20685880.338    20685883.678    -6068206.512 9  -3605840.909 7
  22511747.112    22511754.232   -11523669.638 9 -10700867.854 8
 88  3 22  3 31 59.0800000  0  3G 6G 8G11
  21402982.356    21402986.074    -6874328.830 9  -4046314.140 9
  20683284.538    20683288.138    -6081852.498 9  -3616474.118 7
  22494825.503    22494831.044   -11612601.866 8 -10770165.646 8
 88  3 22  3 32 29.0800000  0  3G 6G 8G11
  21393595.944    21393598.474    -6923660.430 8  -4084754.321 9
  20680820.005    20680822.860    -6094800.467 9  -3626563.419 7
  22477971.729    22477977.281   -11701160.187 8 -10839172.068 8
 88  3 22  3 32 59.0800000  0  3G 6G 8G11
  21384247.250    21384250.448    -6972783.745 8  -4123032.219 9
  20678487.739    20678494.316    -6107049.939 9  -3636108.430 7
  22461191.001    22461197.224   -11789341.668 8 -10907884.851 8
 88  3 22  3 33 29.0800000  0  3G 6G 8G11
  21374940.263    21374944.396    -7021697.461 9  -4161146.766 9
  20676291.046    20676295.425    -6118601.918 9  -3645109.956 7
  22444482.591    22444487.669   -11877144.996 9 -10976302.968 8
 88  3 22  3 33 59.0800000  0  3G 6G 8G11
  21365673.012    21365674.963    -7070398.255 9  -4199095.399 9
  20674224.068    20674227.949    -6129455.857 8  -3653567.537 8
  22427847.191    22427853.346   -11964566.447 9 -11044423.536 8
 88  3 22  3 34 29.0800000  0  3G 6G 8G11
  21356443.750    21356449.004    -7118884.496 8  -4236876.866 8
  20672292.203    20672296.677    -6139612.058 8  -3661481.433 7
  22411284.634    22411290.455   -12051604.293 8 -11112245.160 7
 88  3 22  3 34 59.0800000  0  3G 6G 8G11
  21347260.752    21347263.619    -7167154.270 8  -4274489.652 8
  20670492.635    20670496.680    -6149070.364 8  -3668851.515 7
  22394795.955    22394801.479   -12138256.355 9 -11179766.216 8
 88  3 22  3 35 29.0800000  0  3G 6G 8G11
  21338114.758    21338119.363    -7215205.522 8  -4311932.173 8
  20668826.383    20668829.396    -6157831.107 9  -3675678.054 7
  22378381.084    22378384.917   -12224520.054 8 -11246984.646 8
 88  3 22  3 35 59.0800000  0  3G 6G 8G11
  21329014.210    21329017.966    -7263036.064 9  -4349202.695 9
  20667289.753    20667297.470    -6165894.530 8  -3681961.210 7
  22362039.047    22362043.881   -12310393.185 8 -11313898.712 8
 88  3 22  3 36 29.0800000  0  3G 6G 8G11
  21319955.348    21319958.237    -7310643.445 9  -4386299.347 9
  20665889.126    20665893.667    -6173260.415 8  -3687700.842 8
  22345773.302    22345777.704   -12395872.962 8 -11380506.312 7
 88  3 22  3 36 59.0800000  0  3G 6G 8G11
  21310937.724    21310941.905    -7358025.974 8  -4423220.760 8
  20664619.502    20664624.260    -6179929.561 8  -3692897.561 8
  22329581.335    22329586.952   -12480958.082 8 -11446806.364 8
 88  3 22  3 37 29.0800000  0  3G 6G 8G11
  21301965.188    21301967.936    -7405181.489 9  -4459965.296 8
  20663484.549    20663487.703    -6185902.205 8  -3697551.526 7
  22313465.879    22313470.420   -12565645.686 9 -11512796.655 7
 88  3 22  3 37 59.0800000  0  3G 6G 8G11
  21293033.221    21293038.792    -7452107.660 9  -4496531.130 8
  20662478.805    20662484.414    -6191178.184 9  -3701662.679 7
  22297425.981    22297431.773   -12649933.480 8 -11578475.414 8
 88  3 22  3 38 29.0800000  0  3G 6G 8G11
  21284148.828    21284153.709    -7498802.579 8  -4532916.759 9
  20661608.875    20661612.152    -6195758.513 9  -3705231.731 7
  22281463.166    22281468.054   -12733819.410 9 -11643841.010 8
 88  3 22  3 38 59.0800000  0  3G 6G 8G11
  21275308.069    21275311.537    -7545263.758 8  -4569120.237 8
  20660868.751    20660871.172    -6199643.080 8  -3708258.648 8
  22265577.951    22265582.130   -12817300.593 9 -11708891.238 7
 88  3 22  3 39 29.0800000  0  3G 6G 8G11
  21266509.505    21266513.495    -7591489.497 8  -4605140.275 9
  20660262.106    20660266.960    -6202832.502 9  -3710743.892 8
  22249768.184    22249773.925   -12900375.379 8 -11773624.809 7
 88  3 22  3 39 59.0800000  0  3G 6G 8G11
  21257759.107    21257762.858    -7637477.033 8  -4640974.697 9
  20659788.385    20659789.635    -6205327.079 8  -3712687.677 7
  22234038.425    22234042.563   -12983041.226 8 -11838039.707 7
 88  3 22  3 40 29.0800000  0  3G 6G 8G11
  21249053.831    21249058.071    -7683224.463 9  -4676622.019 9
  20659444.498    20659448.537    -6207127.511 7  -3714090.619 7
  22218385.810    22218391.585   -13065296.118 9 -11902134.381 7
 88  3 22  3 40 59.0800000  0  3G 6G 8G11
  21240394.258    21240399.002    -7728729.772 9  -4712080.687 9
  20659232.867    20659237.771    -6208234.779 8  -3714953.396 8
  22202811.092    22202817.461   -13147138.187 8 -11965907.382 9
 88  3 22  3 41 29.0800000  0  3G 6G 8G11
  21231783.113    21231784.804    -7773990.782 8  -4747349.000 9
  20659153.633    20659157.881    -6208648.695 8  -3715275.905 8
  22187314.524    22187321.447   -13228565.183 8 -12029356.944 7
 88  3 22  3 41 59.0800000  0  3G 6G 8G11
  21223215.730    21223219.510    -7819005.542 8  -4782425.396 8
  20659207.740    20659213.445    -6208370.664 8  -3715059.235 8
  22171900.401    22171905.865   -13309574.755 8 -12092481.241 8
 88  3 22  3 42 29.0800000  0  3G 6G 8G11
  21214697.096    21214701.291    -7863771.653 9  -4817308.068 8
  20659391.814    20659396.684    -6207401.030 7  -3714303.657 7
  22156564.337    22156569.960   -13390165.030 8 -12155278.811 8
 88  3 22  3 42 59.0800000  0  3G 6G 8G11
  21206226.011    21206230.404    -7908286.157 8  -4851994.672 9
  20659708.224    20659712.149    -6205739.853 8  -3713009.204 8
  22141309.553    22141315.112   -13470333.389 8 -12217747.623 8
 88  3 22  3 43 29.0800000  0  3G 6G 8G11
  21197802.025    21197806.733    -7952547.527 8  -4886484.036 7
  20660154.728    20660159.416    -6203388.215 9  -3711176.734 8
  22126133.912    22126139.921   -13550077.764 8 -12279886.061 9
 88  3 22  3 43 59.0800000  0  3G 6G 8G11
  21189429.462    21189432.543    -7996553.936 8  -4920774.734 9
  20660734.299    20660739.518    -6200347.360 9  -3708807.220 8
  22111040.662    22111046.069   -13629396.457 8 -12341692.767 8
 88  3 22  3 44 29.0800000  0  3G 6G 8G11
  21181103.977    21181108.907    -8040302.684 8  -4954864.626 9
  20661443.410    20661448.998    -6196617.532 8  -3705900.834 7
  22096028.660    22096032.629   -13708286.983 8 -12403165.876 8
 88  3 22  3 44 59.0800000  0  3G 6G 8G11
  21172830.352    21172831.865    -8083791.480 9  -4988751.960 9
  20662285.708    20662289.271    -6192199.519 8  -3702458.203 9
  22081097.887    22081102.812   -13786747.401 8 -12464303.836 9
 88  3 22  3 45 29.0800000  0  3G 6G 8G11
  21164604.282    21164606.772    -8127018.055 9  -5022435.002 9
  20663256.521    20663261.788    -6187094.049 9  -3698479.901 8
  22066249.418    22066255.199   -13864775.378 9 -12525104.818 8
 88  3 22  3 45 59.0800000  0  3G 6G 8G11
  21156426.161    21156431.582    -8169980.420 8  -5055912.158 8
  20664358.086    20664361.910    -6181301.991 9  -3693966.595 8
  22051483.714    22051488.431   -13942369.142 8 -12585567.459 8
 88  3 22  3 46 29.0800000  0  3G 6G 8G11
  21148303.103    21148306.212    -8212676.304 8  -5089181.664 8
  20665592.391    20665595.264    -6174824.483 8  -3688919.158 7
  22036801.694    22036806.381   -14019526.757 8 -12645690.226 8
 88  3 22  3 46 59.0800000  0  3G 6G 8G11
  21140228.611    21140231.757    -8255103.386 9  -5122241.690 9
  20666954.930    20666957.696    -6167662.128 9  -3683338.087 8
  22022202.333    22022207.210   -14096246.025 9 -12705471.442 7
 88  3 22  3 47 29.0800000  0  3G 6G 8G11
  21132207.071    21132210.563    -8297259.291 9  -5155090.438 8
  20668447.681    20668451.501    -6159816.033 9  -3677224.233 7
  22007686.296    22007691.414   -14172524.742 9 -12764909.375 7
 88  3 22  3 47 59.0800000  0  3G 6G 8G11
  21124236.393    21124240.545    -8339141.810 8  -5187726.135 9
  20670069.822    20670073.075    -6151286.883 8  -3670578.125 7
  21993256.556    21993259.272   -14248361.003 9 -12824002.524 8
 88  3 22  3 48 29.0800000  0  3G 6G 8G11
  21116319.888    21116323.052    -8380748.461 8  -5220146.874 8
  20671822.749    20671827.114    -6142075.412 8  -3663400.333 7
  21978908.509    21978913.052   -14323752.777 8 -12882749.337 8
 88  3 22  3 48 59.0800000  0  3G 6G 8G11
  21108455.401    21108460.533    -8422077.361 8  -5252351.210 9
  20673706.500    20673710.730    -6132183.033 9  -3655691.983 7
  21964647.139    21964651.680   -14398698.412 9 -12941148.476 8
 88  3 22  3 49 29.0800000  0  3G 6G 8G11
  21100643.367    21100647.903    -8463126.066 8  -5284337.200 8
  20675716.302    20675720.774    -6121611.061 8  -3647454.060 7
  21950470.841    21950476.199   -14473195.727 8 -12999198.310 8
 88  3 22  3 49 59.0800000  0  3G 6G 8G11
  21092885.350    21092889.339    -8503892.727 9  -5316103.420 9
  20677860.152    20677862.292    -6110360.454 9  -3638687.329 8
  21936379.605    21936384.763   -14547242.885 8 -13056897.355 8
 88  3 22  3 50 29.0800000  0  3G 6G 8G11
  21085183.720    21085186.377    -8544375.094 9  -5347648.097 9
  20680128.928    20680133.114    -6098432.793 8  -3629393.027 7
  21922375.024    21922379.377   -14620838.483 8 -13114244.534 7
 88  3 22  3 50 59.0800000  0  3G 6G 8G11
  21077532.767    21077537.334    -8584570.896 8  -5378969.473 9
  20682527.438    20682530.343    -6085828.899 8  -3619571.812 7
  21908455.991    21908461.734   -14693980.284 8 -13171238.112 7
 88  3 22  3 51 29.0800000  0  3G 6G 8G11
  21069939.196    21069944.581    -8624476.619 9  -5410064.827 9
  20685054.005    20685057.926    -6072549.120 8  -3609223.890 6
  21894622.919    21894629.661   -14766665.396 8 -13227875.824 7
 88  3 22  3 51 59.0800000  0  3G 6G 8G11
  21062401.178    21062405.492    -8664090.996 8  -5440933.163 8
  20687709.429    20687712.255    -6058595.590 8  -3598351.002 9
  21880879.659    21880885.607   -14838892.581 7 -13284156.687 8
 88  3 22  3 52 29.0800000  0  4G 6G 8G11G 9
  21054918.779    21054921.681    -8703411.578 9  -5471572.573 8
  20690492.374    20690495.250    -6043969.504 9  -3586954.055 7
  21867223.418    21867228.940   -14910660.172 8 -13340079.479 8
                  23211337.731   -28000153.789 9
 88  3 22  3 52 59.0800000  0  4G 6G 8G11G 9
  21047494.009    21047497.023    -8742436.367 9  -5501981.474 9
  20693402.905    20693407.238    -6028672.185 9  -3575034.032 7
  21853655.340    21853658.581   -14981966.739 8 -13395642.995 8
  23194391.878    23194397.906   -28089343.324 8  35593836.524 9
 88  3 22  3 53 29.0800000  0  4G 6G 8G11G 9
  21040123.044    21040127.174    -8781163.286 8  -5532158.289 9
  20696441.664    20696445.082    -6012704.862 8  -3562591.951 8
  21840173.621    21840178.182   -15052810.428 9 -13450845.841 9
  23177427.759    23177431.888   -28178490.618 8  35524371.212 8
 88  3 22  3 53 59.0800000  0  4G 6G 8G11G 9
  21032810.312    21032814.103    -8819589.561 8  -5562100.811 9
  20699608.264    20699611.311    -5996068.721 8  -3549628.713 7
  21826779.588    21826786.277   -15123189.054 8 -13505686.295 8
  23160472.959    23160477.327   -28267593.181 9  35454940.685 8
 88  3 22  3 54 29.0800000  0  4G 6G 8G11G 9
  21025557.581    21025559.641    -8857713.218 8  -5591807.559 9
  20702899.440    20702904.209    -5978765.595 8  -3536145.758 8
  21813477.212    21813481.326   -15193101.106 8 -13560163.193 8
  23143525.757    23143531.208   -28356649.588 8  35385546.169 9
 88  3 22  3 54 59.0800000  0  4G 6G 8G11G 9
  21018360.253    21018362.602    -8895532.079 8  -5621276.781 8
  20706318.783    20706322.774    -5960796.705 9  -3522144.010 8
  21800263.144    21800267.228   -15262544.811 8 -13614275.151 8
  23126588.806    23126593.141   -28445658.091 9  35316188.970 9
 88  3 22  3 55 29.0800000  0  4G 6G 8G11G 9
  21011221.817    21011225.544    -8933043.461 9  -5650506.420 9
  20709865.131    20709868.512    -5942162.938 9  -3507624.159 8
  21787135.952    21787142.450   -15331518.297 8 -13668020.688 8
  23109659.568    23109663.583   -28534616.547 8  35246870.784 8
 88  3 22  3 55 59.0800000  0  4G 6G 8G11G 9
  21004141.822    21004145.926    -8970245.863 8  -5679495.282 9
  20713538.234    20713542.744    -5922866.745 9  -3492588.169 7
  21774101.575    21774106.565   -15400020.558 9 -13721399.035 8
  23092742.463    23092744.317   -28623523.617 9  35177592.614 8
 88  3 22  3 56 29.0800000  0  4G 6G 8G11G 9
  20997121.496    20997125.452    -9007136.576 8  -5708241.278 9
  20717335.496    20717338.204    -5902909.004 9  -3477036.654 7
  21761154.217    21761160.711   -15468049.486 8 -13774408.575 8
  23075832.084    23075837.100   -28712376.835 8  35108356.402 8
 88  3 22  3 56 59.0800000  0  4G 6G 8G11G 9
  20990161.832    20990164.543    -9043713.050 9  -5736742.405 8
  20721258.223    20721262.596    -5882291.163 8  -3460970.798 7
  21748299.965    21748306.149   -15535603.379 8 -13827047.944 6
  23058935.194    23058938.536   -28801174.528 7  35039163.497 8
 88  3 22  3 57 29.0800000  0  4G 6G 8G11G 9
  20983261.198    20983265.757    -9079973.263 9  -5764997.112 8
  20725307.151    20725311.305    -5861015.209 8  -3444392.123 7
  21735535.852    21735541.159   -15602680.510 9 -13879315.826 8
  23042048.014    23042052.421   -28889914.633 7  34970015.411 8
 88  3 22  3 57 59.0800000  0  4G 6G 8G11G 9
  20976421.139    20976426.698    -9115914.968 8  -5793003.626 9
  20729479.560    20729485.328    -5839082.775 8  -3427301.899 6
  21722862.120    21722868.298   -15669279.383 8 -13931211.014 6
  23025171.882    23025177.151   -28978595.198 7  34900913.754 8
 88  3 22  3 58 29.0800000  0  4G 6G 8G11G 9
  20969642.694    20969647.189    -9151536.046 9  -5820760.299 8
  20733778.680    20733783.185    -5816495.049 9  -3409701.051 8
  21710280.718    21710286.040   -15735398.396 8 -13982732.308 8
  23008309.400    23008314.913   -29067214.577 8  34831859.758 8
 88  3 22  3 58 59.0800000  0  4G 6G 8G11G 9
  20962926.154    20962930.568    -9186834.140 8  -5848265.286 9
  20738201.815    20738203.711    -5793253.639 8  -3391590.844 7
  21697790.269    21697795.713   -15801035.708 8 -14033878.238 7
  22991458.528    22991461.680   -29155770.451 9  34762855.259 9
 88  3 22  3 59 29.0800000  0  4G 6G 8G11G 9
  20956270.527    20956275.100    -9221806.531 7  -5875516.475 8
  20742748.430    20742752.005    -5769360.292 9  -3372972.631 8
  21685392.128    21685397.184   -15866189.447 9 -14084647.339 7
  22974616.361    22974620.868   -29244260.829 7  34693901.789 7
 88  3 22  3 59 59.0800000  0  4G 6G 8G11G 9
  20949677.715    20949680.442    -9256451.905 8  -5902512.841 8
  20747419.312    20747422.104    -5744817.497 9  -3353848.350 8
  21673084.348    21673089.292   -15930858.937 8 -14135039.124 6
  22957791.074    22957796.501   -29332684.374 8  34625000.337 8
 88  3 22  4  0 29.0800000  0  4G 6G 8G11G 9
  20943147.817    20943152.649    -9290767.356 8  -5929252.167 8
  20752212.420    20752216.547    -5719626.323 8  -3334218.865 8
  21660872.790    21660879.007   -15995042.577 8 -14185052.317 7
  22940979.142    22940982.275   -29421038.409 8  34556153.119 9
 88  3 22  4  0 59.0800000  0  4G 6G 8G11G 9
  20936681.930    20936685.969    -9324750.497 7  -5955732.520 8
  20757129.471    20757132.222    -5693788.341 8  -3314085.362 7
  21648750.652    21648754.872   -16058738.495 7 -14234685.471 7
  22924178.338    22924183.531   -29509321.024 8  34487361.522 9
 88  3 22  4  1 29.0800000  0  4G 6G 8G11G 9
  20930276.673    20930282.482    -9358399.425 9  -5981952.442 8
  20762167.696    20762172.104    -5667305.864 8  -3293449.661 7
  21636723.851    21636729.952   -16121945.275 8 -14283937.489 7
  22907393.050    22907397.628   -29597530.479 8  34418626.967 8
 88  3 22  4  1 59.0800000  0  4G 6G 8G11G 9
  20923941.125    20923942.842    -9391711.374 8  -6007909.802 8
  20767330.077    20767333.798    -5640180.492 9  -3272312.976 8
  21624787.695    21624793.442   -16184661.329 8 -14332807.115 8
  22890620.840    22890626.777   -29685664.353 8  34349951.270 8
 88  3 22  4  2 29.0800000  0  4G 6G 8G11G 9
  20917663.742    20917668.323    -9424684.496 7  -6033603.120 8
  20772614.178    20772618.593    -5612413.950 9  -3250676.711 8
  21612947.212    21612951.834   -16246885.327 9 -14381293.321 7
  22873865.764    22873869.845   -29773720.727 8  34281335.995 9
 88  3 22  4  2 59.0800000  0  4G 6G 8G11G 9
  20911455.585    20911458.995    -9457316.423 8  -6059030.582 8
  20778019.852    20778023.465    -5584008.327 8  -3228542.459 8
  21601200.555    21601205.720   -16308615.804 8 -14429394.979 8
  22857123.341    22857128.997   -29861697.774 8  34212782.496 9
 88  3 22  4  3 29.0800000  0  4G 6G 8G11G 9
  20905312.169    20905314.029    -9489604.821 8  -6084190.384 8
  20783545.473    20783549.975    -5554965.471 9  -3205911.626 8
  21589548.201    21589552.364   -16369851.114 8 -14477110.775 9
  22840399.091    22840401.217   -29949593.035 9  34144292.733 8
 88  3 22  4  3 59.0800000  0  4G 6G 8G11G 9
  20899232.036    20899235.990    -9521547.632 8  -6109080.874 9
  20789194.466    20789195.729    -5525287.294 8  -3182785.768 8
  21577989.993    21577995.196   -16430589.929 8 -14524439.677 8
  22823687.467    22823692.450   -30037404.975 8  34075867.889 8
 88  3 22  4  4 29.0800000  0  4G 6G 8G11G 9
  20893219.979    20893222.917    -9553142.308 8  -6133700.106 8
  20794962.433    20794967.892    -5494975.497 8  -3159166.195 8
  21566527.530    21566532.227   -16490831.070 9 -14571380.819 8
  22806991.806    22806997.877   -30125130.843 8  34007510.139 8
 88  3 22  4  4 59.0800000  0  4G 6G 8G11G 9
  20887274.738    20887278.995    -9584386.546 8  -6158046.241 9
  20800850.585    20800852.095    -5464031.822 8  -3135054.210 7
  21555157.523    21555162.674   -16550572.765 8 -14617932.759 7
  22790316.594    22790321.763   -30212768.661 8  33939221.006 9
 88  3 22  4  5 29.0800000  0  4G 6G 8G11G 9
  20881397.207    20881400.465    -9615278.671 8  -6182118.013 7
  20806857.633    20806861.211    -5432458.415 8  -3110451.548 8
  21543884.048    21543889.610   -16609814.250 8 -14664094.937 7
  22773656.645    22773661.609   -30300316.812 7  33871001.722 8
 88  3 22  4  5 59.0800000  0  4G 6G 8G11G 9
  20875585.383    20875588.059    -9645816.264 9  -6205913.536 8
  20812986.662    20812989.737    -5400257.798 9  -3085360.152 7
  21532706.136    21532711.945   -16668554.608 9 -14709866.623 7
  22757015.727    22757017.481   -30387772.966 8  33802854.113 8
 88  3 22  4  6 29.0800000  0  4G 6G 8G11G 9
  20869841.850    20869845.272    -9675996.929 9  -6229430.931 9
  20819232.283    20819235.624    -5367432.255 8  -3059781.798 8
  21521624.551    21521628.048   -16726792.101 8 -14755246.450 8
  22740390.721    22740394.282   -30475134.844 8  33734779.976 8
 88  3 22  4  6 59.0800000  0  4G 6G 8G11G 9
  20864167.068    20864170.497    -9705818.444 9  -6252668.459 8
  20825598.247    20825600.093    -5333983.725 9  -3033718.001 8
  21510637.631    21510643.642   -16784525.257 9 -14800233.308 8
  22723782.370    22723786.881   -30562400.439 8  33666780.872 8
 88  3 22  4  7 29.0800000  0  4G 6G 8G11G 9
  20858561.361    20858564.954    -9735278.467 8  -6275624.328 8
  20832080.732    20832084.998    -5299913.775 8  -3007169.979 8
  21499748.660    21499752.852   -16841752.875 9 -14844826.232 7
  22707197.854    22707200.734   -30649567.290 9  33598858.709 8
 88  3 22  4  7 59.0800000  0  4G 6G 8G11G 9
  20853023.791    20853027.506    -9764374.632 9  -6298296.663 8
  20838682.288    20838685.719    -5265224.418 8  -2980139.311 8
  21488953.030    21488959.634   -16898473.632 7 -14889024.211 7
  22690627.743    22690632.492   -30736633.298 8  33531015.115 8
 88  3 22  4  8 29.0800000  0  4G 6G 8G11G 9
  20847557.234    20847560.200    -9793105.130 9  -6320684.044 8
  20845401.101    20845404.781    -5229917.876 7  -2952627.702 8
  21478256.631    21478261.971   -16954686.579 8 -14932826.484 9
  22674079.425    22674083.826   -30823596.259 9  33463251.801 8
 88  3 22  4  8 59.0800000  0  4G 6G 8G11G 9
  20842160.749    20842162.504    -9821467.286 9  -6342784.414 8
  20852235.563    20852239.950    -5193996.276 7  -2924636.838 8
  21467656.611    21467660.112   -17010390.163 7 -14976231.853 7
  22657551.755    22657555.488   -30910454.047 8  33395570.433 7
 88  3 22  4  9 29.0800000  0  4G 6G 8G11G 9
  20836831.801    20836836.503    -9849459.296 9  -6364596.368 9
  20859188.348    20859193.825    -5157462.204 9  -2896168.737 8
  21457154.495    21457159.561   -17065583.574 8 -15019239.690 7
  22641044.084    22641047.488   -30997204.655 9  33327972.595 8
 88  3 22  4  9 59.0800000  0  4G 6G 8G11G 9
  20831577.134    20831581.407    -9877078.906 9  -6386118.142 9
  20866256.433    20866261.308    -5120317.761 8  -2867225.009 8
  21446748.557    21446753.360   -17120265.938 8 -15061849.292 8
  22624555.463    22624561.296   -31083845.806 9  33260460.044 8
 88  3 22  4 10 29.0800000  0  4G 6G 8G11G 9
  20826393.448    20826396.469    -9904323.751 8  -6407347.883 8
  20873440.483    20873443.260    -5082565.083 8  -2837807.330 8
  21436441.238    21436445.295   -17174435.967 7 -15104059.677 8
  22608090.410    22608093.295   -31170375.334 9  33193034.491 8
 88  3 22  4 10 59.0800000  0  4G 6G 8G11G 9
  20821279.316    20821283.866    -9931191.540 9  -6428283.798 9
  20880738.794    20880744.346    -5044206.392 7  -2807917.426 9
  21426228.919    21426234.813   -17228092.337 8 -15145869.834 7
  22591644.961    22591650.277   -31256790.365 8  33125698.149 8
 88  3 22  4 11 29.0800000  0  4G 6G 8G11G 9
  20816239.237    20816241.588    -9957680.062 9  -6448924.220 8
  20888152.792    20888157.799    -5005244.098 8  -2777557.214 9
  21416116.826    21416121.666   -17281234.001 8 -15187278.871 8
  22575221.661    22575226.034   -31343089.114 8  33058452.394 8
 88  3 22  4 11 59.0800000  0  4G 6G 8G11G 9
  20811271.412    20811275.111    -9983787.026 8  -6469267.303 9
  20895682.754    20895686.584    -4965680.551 8  -2746728.474 8
  21406101.641    21406106.884   -17333859.636 8 -15228285.852 7
  22558824.677    22558827.967   -31429268.989 8  32991299.309 8
 88  3 22  4 12 29.0800000  0  4G 6G 8G11G 9
  20806375.956    20806379.598   -10009510.683 8  -6489311.706 9
  20903325.319    20903331.162    -4925518.212 9  -2715433.122 9
  21396187.010    21396190.966   -17385968.780 8 -15268890.356 7
  22542447.067    22542451.545   -31515328.192 9  32924240.222 8
 88  3 22  4 12 59.0800000  0  4G 6G 8G11G 9
  20801555.669    20801558.791   -10034848.463 9  -6509055.417 8
  20911079.633    20911086.946    -4884758.685 8  -2683672.447 8
  21386370.005    21386373.973   -17437559.960 8 -15309091.249 7
  22526095.090    22526098.408   -31601264.165 8  32857277.193 8
 88  3 22  4 13 29.0800000  0  4G 6G 8G11G 9
  20796806.806    20796808.129   -10059798.511 8  -6528496.997 8
  20918951.660    20918955.703    -4843404.990 8  -2651448.802 8
  21376650.210    21376654.982   -17488632.567 8 -15348888.065 7
  22509764.100    22509769.846   -31687074.977 8  32790411.651 9
 88  3 22  4 13 59.0800000  0  4G 6G 8G11G 9
  20792133.445    20792137.506   -10084358.585 9  -6547634.721 9
  20926933.264    20926937.511    -4801459.633 9  -2618764.088 8
  21367029.879    21367035.365   -17539185.648 8 -15388280.056 7
  22493459.200    22493464.445   -31772757.952 8  32723645.767 9
 88  3 22  4 14 29.0800000  0  4G 6G 8G11G 9
  20787533.720    20787538.990   -10108526.409 8  -6566466.777 9
  20935027.275    20935031.888    -4758924.641 8  -2585619.936 8
  21357510.702    21357515.139   -17589218.154 8 -15427266.415 8
  22477179.513    22477182.702   -31858310.831 8  32656981.188 8
 88  3 22  4 14 59.0800000  0  4G 6G 8G11G 9
  20783009.623    20783013.815   -10132299.993 8  -6584991.639 8
  20943232.406    20943236.926    -4715802.887 8  -2552018.565 9
  21348088.836    21348092.833   -17638729.354 9 -15465846.539 7
  22460925.377    22460928.948   -31943731.521 9  32590419.668 8
 88  3 22  4 15 29.0800000  0  4G 6G 8G11G 9
  20778561.324    20778564.708   -10155677.040 8  -6603207.533 8
  20951550.972    20951555.097    -4672096.547 9  -2517961.669 8
  21338765.769    21338772.076   -17687718.152 7 -15504019.617 7
  22444694.512    22444699.014   -32029017.385 8  32523963.197 8
 88  3 22  4 15 59.0800000  0  4G 6G 8G11G 9
  20774188.240    20774193.522   -10178655.552 8  -6621112.854 8
  20959977.625    20959982.445    -4627807.780 9  -2483450.940 9
  21329543.736    21329547.259   -17736183.759 8 -15541785.005 7
  22428493.006    22428496.105   -32114166.326 8  32457613.421 8
 88  3 22  4 16 29.0800000  0  4G 6G 8G11G 9
  20769892.015    20769896.159   -10201232.827 9  -6638705.539 8
  20968517.153    20968521.263    -4582938.919 9  -2448488.189 9
  21320420.413    21320425.900   -17784124.803 8 -15579141.623 8
  22412315.963    22412318.619   -32199175.543 8  32391372.496 8
 88  3 22  4 16 59.0800000  0  4G 6G 8G11G 9
  20765672.952    20765677.328   -10223406.762 9  -6655983.910 8
  20977164.031    20977169.516    -4537492.696 9  -2413075.544 8
  21311398.694    21311402.796   -17831540.545 7 -15616088.949 8
  22396165.345    22396167.929   -32284042.195 9  32325242.636 7
 88  3 22  4 17 29.0800000  0  4G 6G 8G11G 9
  20761529.568    20761534.037   -10245175.138 8  -6672946.285 9
  20985922.128    20985926.486    -4491471.351 8  -2377214.743 8
  21302474.414    21302479.644   -17878429.992 8 -15652626.142 8
  22380042.907    22380048.357   -32368764.370 8  32259225.399 9
 88  3 22  4 17 59.0800000  0  4G 6G 8G11G 9
  20757465.247    20757469.580   -10266535.501 8  -6689590.715 8
  20994789.138    20994792.787    -4444877.074 9  -2340907.511 8
  21293652.270    21293657.398   -17924792.132 8 -15688752.477 8
  22363950.021    22363953.941   -32453338.856 9  32193323.261 8
 88  3 22  4 18 29.0800000  0  4G 6G 8G11G 9
  20753477.392    20753483.382   -10287486.004 8  -6705915.775 9
  21003763.465    21003768.694    -4397712.676 9  -2304156.021 8
  21284930.668    21284935.426   -17970626.468 9 -15724467.514 7
  22347884.829    22347887.570   -32537763.823 8  32127537.576 8
 88  3 22  4 18 59.0800000  0  4G 6G 8G11G 9
  20749570.157    20749574.218   -10308025.143 8  -6721920.292 9
  21012847.645    21012850.737    -4349981.353 9  -2266962.771 8
  21276308.668    21276313.086   -18015933.005 9 -15759771.284 7
  22331844.844    22331850.400   -32622037.585 8  32061869.758 8
 88  3 22  4 19 29.0800000  0  4G 6G 8G11G 9
  20745741.418    20745744.981   -10328150.766 8  -6737602.586 8
  21022038.220    21022040.769    -4301685.893 9  -2229329.936 8
  21267788.346    21267793.564   -18060710.687 9 -15794662.970 7
  22315840.847    22315844.185   -32706157.490 8  31996321.805 8
 88  3 22  4 19 59.0800000  0  4G 6G 8G11G 9
  20741988.885    20741993.373   -10347860.519 8  -6752960.837 9
  21031334.187    21031338.312    -4252828.627 8  -2191259.334 8
  21259368.921    21259372.655   -18104958.778 9 -15829141.987 8
  22299862.626    22299866.665   -32790120.806 9  31930895.876 9
 88  3 22  4 20 29.0800000  0  4G 6G 8G11G 9
  20738318.778    20738323.142   -10367152.299 8  -6767993.384 8
  21040738.091    21040743.175    -4203412.153 8  -2152752.982 7
  21251049.561    21251052.608   -18148676.290 9 -15863207.548 8
  22283913.362    22283918.489   -32873924.937 8  31865594.000 8
 88  3 22  4 20 59.0800000  0  4G 6G 8G11G 9
  20734728.868    20734732.369   -10386023.592 8  -6782698.285 8
  21050248.435    21050251.697    -4153438.770 8  -2113812.693 7
  21242830.491    21242835.678   -18191862.185 7 -15896858.883 7
  22267996.513    22268003.338   -32957567.255 8  31800418.206 7
 88  3 22  4 21 29.0800000  0  4G 6G 8G11G 9
  20731216.589    20731220.352   -10404472.345 8  -6797073.929 8
  21059862.666    21059866.314    -4102911.249 8  -2074440.578 7
  21234713.515    21234717.901   -18234516.108 7 -15930095.675 8
  22252112.652    22252115.965   -33041045.243 8  31735370.465 8
 88  3 22  4 21 59.0800000  0  4G 6G 8G11G 9
  20727787.212    20727791.400   -10422496.572 8  -6811118.790 8
  21069582.666    21069586.232    -4051831.985 9  -2034638.544 8
  21226698.442    21226702.440   -18276637.239 7 -15962917.316 8
  22236260.256    22236262.344   -33124356.141 9  31670452.897 8
 88  3 22  4 22 29.0800000  0  4G 6G13G11G 9
  20724438.280    20724443.866   -10440094.159 9  -6824831.192 8
                  24240123.781   -38820355.436 8
  21218783.258    21218790.165   -18318224.992 8 -15995323.346 7
  22220438.208    22220441.097   -33207497.530 8  31605667.434 7
 88  3 22  4 22 59.0800000  0  4G 6G13G11G 9
  20721170.464    20721173.182   -10457264.912 9  -6838211.006 7
  24219046.702    24219053.465   -38931310.177 7  49325188.543 7
  21210970.625    21210976.585   -18359280.678 8 -16027314.758 7
  22204648.342    22204652.740   -33290468.947 8  31541014.447 8
 88  3 22  4 23 29.0800000  0  4G 6G13G11G 9
  20717985.109    20717988.848   -10474005.492 9  -6851255.617 7
  24197974.995    24197979.822   -39042053.153 8  49238895.384 7
  21203259.442    21203264.293   -18399802.637 8 -16058890.296 7
  22188892.834    22188895.602   -33373266.844 9  31476496.629 8
 88  3 22  4 23 59.0800000  0  4G 6G13G11G 9
  20714882.863    20714886.336   -10490313.618 8  -6863963.245 8
  24176941.517    24176948.161   -39152581.504 8  49152769.458 8
  21195651.288    21195654.906   -18439789.725 9 -16090049.057 6
  22173170.114    22173173.605   -33455887.664 9  31412116.766 8
 88  3 22  4 24 29.0800000  0  4G 6G13G11G 9
  20711862.648    20711864.642   -10506187.438 8  -6876332.440 8
  24155949.427    24155955.603   -39262892.806 7  49066812.647 7
  21188143.083    21188147.345   -18479241.955 8 -16120791.029 7
  22157481.255    22157486.614   -33538329.622 8  31347876.357 8
 88  3 22  4 24 59.0800000  0  4G 6G13G11G 9
  20708924.447    20708927.025   -10521625.563 9  -6888362.140 7
  24134998.995    24135005.258   -39372985.638 8  48981026.113 8
  21180738.202    21180741.227   -18518159.698 8 -16151116.527 6
  22141829.759    22141833.347   -33620590.653 9  31283776.906 8
 88  3 22  4 25 29.0800000  0  4G 6G13G11G 9
  20706069.209    20706072.367   -10536625.535 8  -6900050.428 7
  24114092.779    24114097.429   -39482856.517 8  48895412.498 7
  21173434.555    21173437.457   -18556541.521 9 -16181024.425 7
  22126211.031    22126211.772   -33702667.734 8  31219820.732 8
 88  3 22  4 25 59.0800000  0  4G 6G13G11G 9
  20703297.838    20703303.256   -10551185.359 8  -6911395.762 8
  24093227.124    24093232.719   -39592503.237 8  48809973.542 7
  21166233.301    21166237.031   -18594387.487 8 -16210514.765 6
  22110626.465    22110628.885   -33784558.416 8  31156009.823 7
 88  3 22  4 26 29.0800000  0  4G 6G13G11G 9
  20700611.797    20700615.972   -10565302.736 8  -6922396.295 8
  24072405.776    24072411.271   -39701923.421 8  48724711.097 7
  21159131.914    21159136.875   -18631696.312 9 -16239586.560 6
  22095080.406    22095084.700   -33866259.721 9  31092346.534 7
 88  3 22  4 26 59.0800000  0  4G 6G13G11G 9
  20698010.729    20698013.502   -10578975.626 8  -6933050.505 7
  24051626.921    24051633.923   -39811114.565 9  48639627.099 7
  21152135.136    21152140.624   -18668467.845 7 -16268239.682 6
  22079568.134    22079572.896   -33947768.773 8  31028833.004 8
 88  3 22  4 27 29.0800000  0  4G 6G13G11G 9
  20695492.823    20695496.299   -10592202.567 8  -6943357.213 8
  24030892.038    24030896.975   -39920074.360 8  48554723.398 8
  21145241.149    21145244.209   -18704702.081 9 -16296474.136 6
  22064094.178    22064097.086   -34029083.329 8  30965471.029 8
 88  3 22  4 27 59.0800000  0  4G 6G13G11G 9
  20693061.033    20693065.284   -10604981.754 9  -6953315.030 8
  24010203.808    24010206.808   -40028801.312 9  48470001.124 7
  21138445.530    21138452.322   -18740398.979 8 -16324289.894 7
  22048658.546    22048661.846   -34110201.701 9  30902261.937 8
 88  3 22  4 28 29.0800000  0  4G 6G13G11G 9
  20690715.246    20690720.186   -10617310.885 8  -6962922.150 7
  23989557.986    23989560.886   -40137292.812 8  48385462.306 7
  21131755.653    21131760.831   -18775557.642 9 -16351686.234 7
  22033261.963    22033265.188   -34191120.311 9  30839208.491 8
 88  3 22  4 28 59.0800000  0  4G 6G13G11G 9
  20688455.319    20688458.797   -10629188.406 8  -6972177.362 7
  23968956.570    23968962.565   -40245545.914 8  48301109.272 8
  21125168.758    21125173.084   -18810178.315 9 -16378663.365 6
  22017900.355    22017903.086   -34271837.089 8  30776312.351 8
 88  3 22  4 29 29.0800000  0  4G 6G13G11G 9
  20686282.457    20686284.453   -10640611.902 9  -6981078.789 7
  23948403.218    23948408.145   -40353558.397 9  48216943.758 8
  21118683.161    21118687.751   -18844260.151 8 -16405220.621 6
  22002579.094    22002582.027   -34352348.940 9  30713575.864 8
 88  3 22  4 29 59.0800000  0  4G 6G13G11G 9
  20684194.116    20684197.519   -10651579.907 7  -6989625.284 7
  23927894.812    23927900.669   -40461328.275 9  48132967.262 7
  21112300.031    21112304.251   -18877803.378 8 -16431358.179 7
  21987299.795    21987301.222   -34432653.572 9  30651000.811 7
 88  3 22  4 30 29.0800000  0  4G 6G13G11G 9
  20682194.865    20682196.471   -10662090.357 9  -6997815.253 8
  23907433.568    23907440.394   -40568852.708 6  48049182.014 7
  21106019.114    21106023.054   -18910807.675 8 -16457075.811 6
  21972055.297    21972060.325   -34512748.183 9  30588589.444 8
 88  3 22  4 30 59.0800000  0  4G 6G13G11G 9
  20680282.711    20680285.143   -10672141.708 8  -7005647.479 8
  23887019.741    23887025.250   -40676129.699 7  47965589.638 7
  21099842.704    21099846.370   -18943273.020 8 -16482373.470 6
  21956855.383    21956859.394   -34592630.426 9  30526343.622 8
 88  3 22  4 31 29.0800000  0  4G 6G13G11G 9
  20678454.196    20678460.637   -10681731.864 8  -7013120.329 7
  23866653.582    23866657.336   -40783157.029 8  47882191.765 8
  21093766.277    21093771.083   -18975199.126 8 -16507250.957 7
  21941695.248    21941697.951   -34672297.590 9  30464265.315 8
 88  3 22  4 31 59.0800000  0  4G 6G13G11G 9
  20676719.805    20676722.479   -10690858.997 8  -7020232.383 7
  23846334.672    23846340.296   -40889932.588 8  47798990.047 8
  21087793.167    21087799.764   -19006585.907 9 -16531708.164 7
  21926575.719    21926578.990   -34751746.933 9  30402356.732 8
 88  3 22  4 32 29.0800000  0  4G 6G13G11G 9
  20675071.744    20675074.848   -10699520.579 9  -7026981.671 7
  23826064.552    23826069.723   -40996452.916 9  47715987.228 8
  21081922.385    21081927.174   -19037432.457 9 -16555744.423 7
  21911500.809    21911505.223   -34830974.884 9  30340620.735 8
 88  3 22  4 32 59.0800000  0  4G 6G13G11G 9
  20673511.189    20673515.485   -10707716.173 9  -7033367.855 7
  23805841.495    23805847.781   -41102717.471 7  47633183.706 9
  21076157.426    21076159.721   -19067740.166 8 -16579360.802 6
  21896466.967    21896468.913   -34909980.298 9  30279058.096 7
 88  3 22  4 33 29.0800000  0  4G 6G13G11G 9
  20672042.836    20672045.225   -10715443.010 8  -7039388.762 7
  23785670.814    23785675.398   -41208723.248 8  47550581.852 8
  21070491.727    21070495.188   -19097507.918 8 -16602556.439 7
  21881472.430    21881476.387   -34988759.669 9  30217671.567 6
 88  3 22  4 33 59.0800000  0  4G 6G13G11G 9
  20670659.899    20670664.015   -10722699.966 9  -7045043.530 8
  23765548.498    23765552.180   -41314468.204 8  47468183.204 7
  21064929.783    21064933.852   -19126736.360 8 -16625331.845 6
  21866527.265    21866531.047   -35067310.743 9  30156462.984 8
 88  3 22  4 34 29.0800000  0  4G 6G13G11G 9
  20669370.029    20669372.475   -10729484.988 8  -7050330.562 8
  23745474.414    23745480.801   -41419949.804 8  47385989.772 8
  21059469.703    21059474.878   -19155424.988 8 -16647686.604 6
  21851624.307    21851627.209   -35145630.560 9  30095434.572 8
 88  3 22  4 34 59.0800000  0  4G 6G13G11G 9
  20668168.178    20668171.819   -10735796.156 8  -7055248.370 8
  23725452.634    23725457.605   -41525165.742 9  47304003.370 7
  21054113.276    21054117.996   -19183573.851 8 -16669620.738 6
  21836761.401    21836765.209   -35223716.523 8  30034588.394 8
 88  3 22  4 35 29.0800000  0  4G 6G13G11G 9
  20667059.078    20667062.178   -10741632.057 8  -7059795.817 8
  23705481.123    23705487.314   -41630114.180 9  47222225.364 7
  21048858.755    21048864.162   -19211183.118 8 -16691134.452 8
  21821950.338    21821952.606   -35301565.919 9  29973926.550 7
 88  3 22  4 35 59.0800000  0  4G 6G13G11G 9
  20666038.329    20666040.417   -10746990.721 8  -7063971.419 8
  23685563.123    23685568.079   -41734792.318 9  47140657.999 7
  21043707.214    21043713.153   -19238252.824 8 -16712227.699 7
  21807180.938    21807184.747   -35379175.996 9  29913451.147 7
 88  3 22  4 36 29.0800000  0  4G 6G13G11G 9
  20665108.493    20665113.447   -10751869.994 9  -7067773.442 7
  23665694.586    23665701.397   -41839197.931 9  47059302.971 7
  21038659.845    21038664.176   -19264782.574 8 -16732900.220 6
  21792454.569    21792461.560   -35456543.763 8  29853164.627 8
 88  3 22  4 36 59.0800000  0  4G 6G13G11G 9
  20664273.356    20664276.706   -10756268.480 8  -7071200.829 7
  23645878.358    23645883.786   -41943328.878 8  46978162.011 8
  21033712.420    21033719.399   -19290772.797 7 -16753152.313 6
  21777783.815    21777784.176   -35533666.324 9  29793069.174 7
 88  3 22  4 37 29.0800000  0  4G 6G13G11G 9
  20663528.299    20663530.516   -10760184.746 9  -7074252.480 8
  23626115.985    23626121.790   -42047183.212 8  46897236.626 7
  21028869.021    21028876.004   -19316223.481 6 -16772984.001 7
  21763153.697    21763156.930   -35610541.641 8  29733166.285 7
 88  3 22  4 37 59.0800000  0  4G 6G13G11G 9
  20662874.330    20662878.141   -10763616.998 9  -7076926.963 7
  23606406.218    23606410.315   -42150758.432 8  46816528.695 8
  21024130.093    21024136.583   -19341134.713 7 -16792395.331 7
  21748571.699    21748575.525   -35687166.875 8  29673458.385 8
 88  3 22  4 38 29.0800000  0  4G 6G13G11G 9
  20662313.857    20662317.077   -10766563.490 9  -7079222.929 8
  23586751.565    23586755.256   -42254052.312 7  46736039.963 7
  21019493.772    21019497.731   -19365506.750 8 -16811386.506 7
  21734040.923    21734042.443   -35763538.867 9  29613947.765 8
 88  3 22  4 38 59.0800000  0  4G 6G13G11G 9
  20661845.714    20661848.856   -10769023.013 9  -7081139.449 7
  23567147.719    23567154.201   -42357063.742 9  46655771.337 7
  21014957.107    21014961.467   -19389340.278 7 -16829958.059 7
  21719553.832    21719557.382   -35839655.499 9  29554636.050 7
 88  3 22  4 39 29.0800000  0  4G 6G13G11G 9
  20661471.806    20661473.732   -10770993.464 8  -7082674.879 8
  23547599.540    23547605.784   -42459789.509 7  46575725.315 8
  21010524.494    21010528.701   -19412634.879 7 -16848109.679 6
  21705118.286    21705121.568   -35915513.161 8  29495526.267 7
 88  3 22  4 39 59.0800000  0  4G 6G13G11G 9
  20661189.051    20661192.308   -10772473.176 8  -7083827.905 7
  23528106.275    23528112.008   -42562227.360 8  46495903.667 8
  21006194.451    21006199.088   -19435390.733 7 -16865841.502 7
  21690734.157    21690738.627   -35991109.599 9  29436619.944 7
 88  3 22  4 40 29.0800000  0  4G 6G13G11G 9
  20661001.259    20661003.465   -10773460.813 8  -7084597.497 7
  23508667.558    23508674.058   -42664375.122 8  46416308.027 9
  21001964.852    21001971.599   -19457608.347 7 -16883153.904 6
  21676397.648    21676399.649   -36066441.896 9  29377919.475 8
 88  3 22  4 40 59.0800000  0  4G 6G13G11G 9
  20660907.997    20660910.079   -10773954.876 9  -7084982.503 8
  23489284.960    23489291.809   -42766231.193 8  46336939.700 8
  20997840.091    20997846.214   -19479288.225 8 -16900047.294 8
  21662114.773    21662116.818   -36141507.683 9  29319426.655 7
 88  3 22  4 41 29.0800000  0  4G 6G13G11G 9
  20660908.554    20660910.977   -10773953.542 9  -7084981.453 7
  23469957.462    23469965.214   -42867793.098 8  46257800.595 8
  20993816.051    20993823.733   -19500430.165 7 -16916521.538 6
  21647882.016    21647883.527   -36216303.797 9  29261143.960 7
 88  3 22  4 41 59.0800000  0  4G 6G13G11G 9
  20661003.363    20661006.679   -10773455.504 9  -7084593.385 7
  23450688.018    23450696.312   -42969059.344 8  46178891.840 8
  20989896.878    20989903.117   -19521034.712 6 -16932577.000 7
  21633696.169    21633702.795   -36290827.516 8  29203073.578 7
 88  3 22  4 42 29.0800000  0  4G 6G13G11G 9
  20661192.119    20661196.142   -10772458.895 8  -7083816.810 7
  23431475.452    23431479.763   -43070027.000 8  46100215.774 9
  20986078.021    20986082.563   -19541101.899 7 -16948213.752 7
  21619571.833    21619572.498   -36365076.028 9  29145217.592 7
 88  3 22  4 42 59.0800000  0  4G 6G13G11G 9
  20661477.181    20661480.240   -10770962.273 8  -7082650.643 6
  23412318.739    23412324.544   -43170694.314 8  46021773.747 7
  20982359.499    20982366.316   -19560632.169 7 -16963432.128 7
  21605494.184    21605497.866   -36439046.313 9  29087578.386 8
 88  3 22  4 43 29.0800000  0  4G 6G13G11G 9
  20661856.296    20661859.536   -10768964.181 9  -7081093.711 8
  23393220.318    23393225.731   -43271059.252 9  45943567.300 7
  20978747.782    20978751.215   -19579625.903 8 -16978232.410 7
  21591472.832    21591475.378   -36512735.844 9  29030158.057 8
 88  3 22  4 43 59.0800000  0  4G 6G13G11G 9
  20662333.468    20662336.452   -10766462.891 9  -7079144.656 8
  23374177.883    23374185.014   -43371118.937 9  45865598.726 7
  20975233.073    20975241.151   -19598083.516 8 -16992614.963 7
  21577503.892    21577505.387   -36586141.301 9  28972958.958 7
 88  3 22  4 44 29.0800000  0  4G 6G13G11G 9
  20662904.912    20662906.940   -10763457.258 8  -7076802.609 7
  23355196.874    23355202.345   -43470872.198 9  45787868.951 8
  20971823.715    20971830.286   -19616005.472 7 -17006580.113 7
  21563586.030    21563592.639   -36659260.640 8  28915982.853 8
 88  3 22  4 44 59.0800000  0  4G 6G13G11G 9
  20663573.140    20663576.154   -10759946.424 9  -7074066.909 7
  23336273.988    23336279.659   -43570317.474 8  45710379.166 9
  20968516.346    20968520.784   -19633392.998 7 -17020128.807 6
  21549729.942    21549733.609   -36732091.138 9  28859231.874 7
 88  3 22  4 45 29.0800000  0  4G 6G13G11G 9
  20664338.408    20664341.080   -10755928.493 9  -7070936.071 7
  23317407.814    23317414.382   -43669451.882 8  45633131.600 8
  20965308.311    20965313.357   -19650245.863 8 -17033260.899 7
  21535926.226    21535929.421   -36804629.896 9  28802708.153 8
 88  3 22  4 45 59.0800000  0  4G 6G13G11G 9
  20665199.947    20665202.618   -10751401.977 8  -7067408.916 7
  23298602.373    23298608.440   -43768273.648 9  45556127.644 7
  20962203.569    20962207.611   -19666564.841 8 -17045976.982 7
  21522177.913    21522180.817   -36876873.727 9  28746414.316 8
 88  3 22  4 46 29.0800000  0  4G 6G13G11G 9
  20666158.042    20666160.960   -10746365.397 8  -7063484.319 6
  23279857.179    23279863.522   -43866780.529 8  45479369.048 6
  20959197.279    20959205.696   -19682350.196 8 -17058277.236 6
  21508487.890    21508491.876   -36948819.818 8  28690352.419 8
 88  3 22  4 46 59.0800000  0  4G 6G13G11G 9
  20667214.329    20667217.524   -10740816.955 9  -7059160.875 6
  23261173.647    23261177.425   -43964969.926 8  45402857.841 8
  20956295.337    20956300.577   -19697601.823 8 -17070161.611 6
  21494853.596    21494856.520   -37020465.064 8  28634524.986 8
 88  3 22  4 47 29.0800000  0  4G 6G13G11G 9
  20668366.775    20668370.798   -10734755.662 8  -7054437.789 7
  23242548.335    23242555.194   -44062840.705 8  45326594.907 8
  20953493.180    20953499.748   -19712320.943 8 -17081631.050 6
  21481278.582    21481280.943   -37091807.040 9  28578933.850 7
 88  3 22  4 47 59.0800000  0  4G 6G13G11G 9
  20669618.324    20669620.245   -10728181.014 8  -7049314.676 7
  23223985.402    23223990.372   -44160392.016 8  45250580.952 7
  20950796.605    20950800.443   -19726508.733 8 -17092686.456 7
  21467758.978    21467763.977   -37162843.389 9  28523580.839 7
 88  3 22  4 48 29.0800000  0  4G 6G13G11G 9
  20670966.824    20670970.732   -10721090.380 9  -7043789.533 7
  23205484.036    23205487.833   -44257619.372 8  45174819.386 7
  20948198.297    20948201.884   -19740164.693 7 -17103327.449 6
  21454300.739    21454303.667   -37233570.377 8  28468468.933 8
 88  3 22  4 48 59.0800000  0  4G 6G13G11G 9
  20672415.232    20672417.196   -10713483.035 9  -7037861.727 7
  23187044.262    23187048.769   -44354521.959 9  45099310.874 7
  20945699.569    20945703.521   -19753290.045 8 -17113554.978 6
  21440902.674    21440904.521   -37303985.513 9  28413599.992 6
 88  3 22  4 49 29.0800000  0  4G 6G13G11G 9
  20673962.237    20673964.504   -10705358.118 8  -7031530.634 7
  23168666.799    23168671.121   -44451098.552 8  45024056.418 7
  20943303.106    20943306.433   -19765885.831 8 -17123369.871 7
  21427561.278    21427566.619   -37374086.218 8  28358976.075 7
 88  3 22  4 49 59.0800000  0  4G 6G13G11G 9
  20675605.639    20675609.616   -10696713.552 7  -7024794.641 7
  23150351.639    23150355.956   -44547345.688 9  44949058.666 9
  20941006.649    20941010.051   -19777951.871 7 -17132771.977 6
  21414283.125    21414284.637   -37443869.220 9  28304599.737 8
 88  3 22  4 50 29.0800000  0  4G 6G13G11G 9
  20677350.377    20677353.507   -10687548.694 8  -7017653.198 7
  23132097.627    23132103.350   -44643262.507 8  44874318.302 8
  20938812.512    20938815.040   -19789489.190 8 -17141762.078 7
  21401063.897    21401067.976   -37513332.138 9  28250472.744 7
 88  3 22  4 50 59.0800000  0  4G 6G13G11G 9
  20679193.153    20679197.881   -10677862.449 8  -7010105.491 7
  23113908.936    23113914.822   -44738846.892 8  44799836.989 8
  20936715.629    20936718.774   -19800498.809 7 -17150340.981 6
  21387906.624    21387910.689   -37582472.228 9  28196597.404 7
 88  3 22  4 51 29.0800000  0  4G 6G13G11G 9
  20681136.391    20681139.070   -10667653.657 8  -7002150.599 7
  23095784.207    23095789.378   -44834097.077 8  44725616.099 8
  20934720.858    20934725.233   -19810981.548 7 -17158509.345 7
  21374812.639    21374814.739   -37651286.567 9  28142975.835 7
 88  3 22  4 51 59.0800000  0  4G 6G13G11G 9
  20683179.886    20683182.979   -10656920.496 8  -6993787.128 8
  23077721.471    23077726.875   -44929011.196 8  44651657.067 7
  20932827.356    20932830.750   -19820937.667 8 -17166267.361 7
  21361779.124    21361782.112   -37719771.846 8  28089610.672 7
 88  3 22  4 52 29.0800000  0  4G 6G13G11G 9
  20685320.908    20685324.092   -10645661.957 8  -6985014.240 7
  23059725.162    23059730.595   -45023586.915 8  44577961.733 8
  20931032.681    20931036.001   -19830367.775 9 -17173615.481 6
  21348810.794    21348813.390   -37787925.312 9  28036504.101 7
 88  3 22  4 52 59.0800000  0  4G 6G13G11G 9
  20687563.253    20687566.717   -10633877.227 9  -6975831.336 7
  23041792.678    23041797.915   -45117823.161 8  44504530.897 7
  20929336.664    20929340.724   -19839273.056 8 -17180554.643 7
  21335904.194    21335907.991   -37855744.631 9  27983657.883 8
 88  3 22  4 53 29.0800000  0  4G 6G13G11G 9
  20689906.401    20689909.459   -10621565.209 9  -6966237.581 7
  23023925.901    23023930.360   -45211717.777 9  44431366.279 7
  20927741.664    20927746.639   -19847654.372 7 -17187085.534 7
  21323064.760    21323067.362   -37923226.662 9  27931074.489 7
 88  3 22  4 53 59.0800000  0  4G 6G13G11G 9
  20692349.527    20692352.980   -10608724.295 9  -6956231.660 8
  23006121.550    23006127.751   -45305268.147 9  44358469.938 7
  20926247.114    20926252.416   -19855512.356 8 -17193208.627 6
  21310286.696    21310290.203   -37990368.108 9  27878756.479 7
 88  3 22  4 54 29.0800000  0  4G 6G13G11G 9
  20694895.179    20694896.422   -10595353.599 9  -6945812.959 7
  22988387.419    22988391.288   -45398472.750 9  44285843.005 8
  20924851.873    20924855.644   -19862848.181 8 -17198924.839 7
  21297574.304    21297578.190   -38057166.547 7  27826705.802 6
 88  3 22  4 54 59.0800000  0  4G 6G13G11G 9
  20697539.201    20697543.167   -10581452.355 8  -6934980.851 7
  22970715.562    22970722.478   -45491329.812 8  44213486.843 7
  20923554.783    20923557.919   -19869662.326 8 -17204234.561 8
  21284930.842    21284933.140   -38123619.165 9  27774924.505 8
 88  3 22  4 55 29.0800000  0  4G 6G13G11G 9
  20700285.135    20700289.085   -10567019.280 8  -6923734.297 7
  22953113.591    22953118.376   -45583837.673 8  44141402.842 8
  20922357.197    20922359.885   -19875955.876 9 -17209138.609 6
  21272350.128    21272354.674   -38189723.076 8  27723415.003 8
 88  3 22  4 55 59.0800000  0  4G 6G13G11G 9
  20703134.712    20703137.470   -10552053.333 8  -6912072.516 7
  22935577.166    22935581.736   -45675994.703 9  44069592.202 8
  20921258.940    20921260.371   -19881730.134 8 -17213638.032 5
  21259838.923    21259842.033   -38255475.193 8  27672179.611 7
 88  3 22  4 56 29.0800000  0  4G 6G13G11G 9
  20706084.166    20706086.209   -10536553.862 9  -6899995.020 6
  22918106.706    22918111.614   -45767799.638 8  43998055.907 8
  20920258.744    20920260.581   -19886985.566 8 -17217733.162 6
  21247391.816    21247396.046   -38320872.954 8  27621220.319 8
 88  3 22  4 56 59.0800000  0  4G 6G13G11G 9
  20709134.186    20709139.159   -10520520.064 8  -6887501.168 7
  22900704.334    22900707.449   -45859250.355 8  43926795.624 8
  20919355.812    20919359.906   -19891723.553 8 -17221425.061 6
  21235017.495    21235020.459   -38385914.059 9  27570538.975 7
 88  3 22  4 57 29.0800000  0  4G 6G13G11G 9
  20712288.860    20712291.820   -10503950.591 8  -6874589.912 7
  22883368.519    22883372.988   -45950344.648 9  43855813.091 8
  20918552.015    20918557.019   -19895944.740 7 -17224714.315 6
  21222708.104    21222711.137   -38450594.941 8  27520138.296 8
 88  3 22  4 57 59.0800000  0  4G 6G13G11G 9
  20715542.718    20715546.006   -10486844.027 8  -6861260.140 8
  22866102.456    22866108.308   -46041080.596 9  43785109.767 8
  20917849.234    20917850.484   -19899649.505 8 -17227601.133 7
  21210469.223    21210472.699   -38514912.408 9  27470020.785 7
 88  3 22  4 58 29.0800000  0  4G 6G13G11G 9
  20718901.501    20718902.367   -10469199.688 9  -6847511.296 7
  22848904.462    22848909.728   -46131456.602 8  43714686.927 7
  20917241.098    20917244.669   -19902839.341 9 -17230086.710 6
  21198298.887    21198304.930   -38578864.017 9  27420188.377 7
 88  3 22  4 58 59.0800000  0  4G 6G13G11G 9
  20722361.398    20722363.909   -10451016.920 8  -6833342.920 8
  22831774.442    22831780.223   -46221470.995 8  43644545.869 8
  20916731.295    20916736.821   -19905515.468 7 -17232171.975 7
  21186200.586    21186203.525   -38642446.700 9  27370643.445 8
 88  3 22  4 59 29.0800000  0  4G 6G13G11G 9
  20725923.287    20725926.270   -10432294.408 8  -6818753.944 7
  22814714.384    22814719.745   -46311121.449 9  43574688.391 7
  20916320.042    20916325.251   -19907678.348 9 -17233857.340 5
  21174171.972    21174174.944   -38705657.572 8  27321388.192 7
 88  3 22  4 59 59.0800000  0  4G 6G13G11G 9
  20729587.555    20729592.956   -10413031.680 8  -6803744.055 7
  22797724.470    22797728.638   -46400407.378 8  43505114.965 7
  20916004.750    20916010.260   -19909329.811 8 -17235144.188 6
  21162215.218    21162217.175   -38768494.206 9  27272424.631 8
 88  3 22  5  0 29.0800000  0  4G 6G13G11G 9
  20733357.405    20733360.862   -10393228.481 8  -6788313.001 8
  22780803.530    22780809.430   -46489327.181 8  43435826.813 9
  20915788.558    20915792.035   -19910471.500 8 -17236033.801 6
  21150327.904    21150330.803   -38830954.035 8  27223754.629 7
 88  3 22  5  0 59.0800000  0  4G 6G13G11G 9
  20737228.572    20737232.218   -10372883.416 7  -6772459.712 7
  22763953.135    22763958.162   -46577878.984 9  43366825.459 8
  20915668.976    20915672.497   -19911103.701 8 -17236526.423 7
  21138514.841    21138518.906   -38893033.731 9  27175380.836 7
 88  3 22  5  1 29.0800000  0  4G 6G13G11G 9
  20741203.811    20741205.603   -10351995.763 8  -6756183.638 6
  22747170.385    22747177.811   -46666060.945 8  43298112.278 8
  20915646.238    20915648.011   -19911227.666 8 -17236622.992 6
  21126774.170    21126777.641   -38954730.679 9  27127305.310 8
 88  3 22  5  1 59.0800000  0  4G 6G13G11G 9
  20745281.149    20745285.646   -10330564.661 7  -6739484.087 7
  22730461.650    22730467.803   -46753871.580 8  43229688.407 8
  20915717.832    20915722.152   -19910844.526 8 -17236324.446 7
  21115108.005    21115109.650   -39016042.018 8  27079530.251 7
 88  3 22  5  2 29.0800000  0  4G 6G13G11G 9
  20749463.593    20749467.365   -10308589.375 8  -6722360.502 7
  22713822.612    22713828.779   -46841308.844 8  43161555.516 8
  20915887.396    20915890.638   -19909955.108 8 -17235631.387 7
  21103514.502    21103518.013   -39076964.466 8  27032058.219 8
 88  3 22  5  2 59.0800000  0  4G 6G13G11G 9
  20753749.276    20753752.060   -10286069.261 8  -6704812.391 8
  22697256.259    22697261.549   -46928371.628 8  43093714.426 8
  20916153.118    20916156.999   -19908560.965 8 -17234545.031 6
  21091996.661    21091998.764   -39137495.609 9  26984891.113 8
 88  3 22  5  3 29.0800000  0  4G 6G13G11G 9
  20758137.093    20758141.897   -10263003.144 8  -6686838.808 8
  22680760.732    22680765.073   -47015058.038 8  43026166.607 8
  20916513.638    20916518.273   -19906662.940 7 -17233066.044 6
  21080553.610    21080554.673   -39197632.094 8  26938031.504 7
 88  3 22  5  3 59.0800000  0  4G 6G13G11G 9
  20762632.300    20762635.129   -10239390.853 8  -6668439.627 7
  22664336.532    22664340.533   -47101366.609 9  42958913.174 7
  20916970.819    20916974.066   -19904262.640 7 -17231195.668 7
  21069183.709    21069187.925   -39257371.638 9  26891481.224 7
 88  3 22  5  4 29.0800000  0  4G 6G13G11G 9
  20767228.911    20767233.134   -10215231.810 9  -6649614.415 8
  22647984.297    22647989.162   -47187295.928 8  42891955.304 8
  20917522.639    20917527.791   -19901361.214 9 -17228934.799 7
  21057891.792    21057893.729   -39316711.366 8  26845242.510 7
 88  3 22  5  4 59.0800000  0  4G 6G13G11G 9
  20771930.775    20771933.822   -10190525.298 8  -6630362.602 7
  22631705.626    22631710.262   -47272843.970 8  42825294.520 7
  20918169.472    20918173.713   -19897959.794 8 -17226284.325 7
  21046675.126    21046678.491   -39375648.433 8  26799317.505 7
 88  3 22  5  5 29.0800000  0  4G 6G13G11G 9
  20776736.417    20776741.786   -10165270.664 9  -6610683.690 8
  22615499.469    22615502.898   -47358009.505 9  42758931.793 8
  20918913.061    20918915.592   -19894059.880 8 -17223245.417 7
  21035540.446    21035541.264   -39434179.998 9  26753708.507 7
 88  3 22  5  5 59.0800000  0  4G 6G13G11G 9
  20781647.169    20781649.730   -10139467.331 8  -6590577.204 7
  22599364.266    22599370.629   -47442790.852 8  42692868.416 7
  20919748.570    20919753.639   -19889662.703 8 -17219819.042 7
  21024476.435    21024481.729   -39492303.141 8  26708417.752 7
 88  3 22  5  6 29.0800000  0  4G 6G13G11G 9
  20786661.097    20786664.532   -10113114.673 8  -6570042.692 8
  22583305.103    22583308.837   -47527187.158 8  42627105.094 7
  20920679.280    20920683.932   -19884769.561 7 -17216006.192 6
  21013495.530    21013498.719   -39550015.251 9  26663447.294 7
 88  3 22  5  6 59.0800000  0  4G 6G13G11G 9
  20791780.819    20791784.338   -10086212.199 8  -6549079.740 8
  22567317.867    22567323.829   -47611196.442 8  42561643.318 9
  20921703.873    20921709.801   -19879381.744 8 -17211807.888 8
  21002591.749    21002595.412   -39607313.193 9  26618799.561 8
 88  3 22  5  7 29.0800000  0  4G 6G13G11G 9
  20797005.099    20797007.915   -10058759.362 7  -6527687.945 7
  22551404.342    22551410.939   -47694816.854 9  42496484.584 8
  20922823.606    20922827.706   -19873500.807 8 -17207225.320 6
  20991769.030    20991770.164   -39664194.626 8  26574476.347 6
 88  3 22  5  7 59.0800000  0  4G 6G13G11G 9
  20802334.518    20802334.827   -10030755.688 8  -6505866.917 8
  22535567.973    22535573.544   -47778047.474 8  42431629.580 8
  20924036.844    20924039.630   -19867127.960 7 -17202259.468 6
  20981023.916    20981028.688   -39720656.487 9  26530480.095 6
 88  3 22  5  8 29.0800000  0  4G 6G13G11G 9
  20807766.638    20807771.392   -10002200.811 8  -6483616.384 8
  22519804.476    22519808.821   -47860886.683 8  42367079.562 7
  20925341.666    20925349.003   -19860264.552 8 -17196911.325 6
  20970359.684    20970364.027   -39776696.056 9  26486812.917 8
 88  3 22  5  8 59.0800000  0  4G 6G13G11G 9
  20813306.007    20813310.365    -9973094.243 8  -6460935.956 7
  22504115.067    22504120.852   -47943333.180 8  42302835.547 7
  20926741.952    20926745.208   -19852911.950 9 -17191182.008 6
  20959776.140    20959779.557   -39832310.559 8  26443476.927 7
 88  3 22  5  9 29.0800000  0  4G 6G13G11G 9
  20818950.088    20818953.659    -9943435.299 9  -6437825.106 7
  22488500.156    22488506.624   -48025385.232 8  42238898.923 9
  20928234.584    20928237.950   -19845071.627 9 -17185072.660 7
  20949275.126    20949277.707   -39887497.045 9  26400474.500 8
 88  3 22  5  9 59.0800000  0  4G 6G13G11G 9
  20824698.943    20824703.588    -9913223.686 9  -6414283.620 7
  22472963.206    22472967.385   -48107041.185 8  42175270.937 7
  20929819.404    20929822.779   -19836744.668 8 -17178584.118 5
  20938854.781    20938859.802   -39942252.859 9  26357807.624 7
 88  3 22  5 10 29.0800000  0  4G 6G13G11G 9
  20830555.055    20830558.830    -9882458.435 8  -6390310.713 8
  22457499.296    22457504.891   -48188299.770 8  42111952.573 7
  20931495.435    20931499.022   -19827932.270 8 -17171717.312 6
  20928517.772    20928521.498   -39996574.514 9  26315479.067 6
 88  3 22  5 10 59.0800000  0  4G 6G13G11G 9
  20836513.517    20836516.988    -9851140.002 8  -6365906.761 7
  22442111.233    22442117.424   -48269159.762 8  42048944.825 8
  20933264.771    20933268.471   -19818637.015 8 -17164474.236 6
  20918264.841    20918265.440   -40050460.183 9  26273490.247 7
 88  3 22  5 11 29.0800000  0  4G 6G13G11G 9
  20842579.240    20842581.705    -9819267.897 9  -6341071.383 8
  22426800.160    22426806.131   -48349620.235 8  41986248.383 8
  20935125.229    20935127.559   -19808859.833 8 -17156855.637 6
  20908093.524    20908097.354   -40103906.922 7  26231843.443 7
 88  3 22  5 11 59.0800000  0  4G 6G13G11G 9
  20848749.295    20848753.550    -9786841.902 9  -6315804.391 7
  22411567.567    22411573.176   -48429679.793 8  41923864.323 7
  20937076.671    20937081.630   -19798602.259 8 -17148862.726 8
  20898007.622    20898010.812   -40156912.015 9  26190540.778 8
 88  3 22  5 12 29.0800000  0  4G 6G13G11G 9
  20855025.122    20855028.083    -9753861.670 9  -6290105.507 7
  22396407.693    22396412.157   -48509337.245 7  41861793.595 7
  20939120.129    20939123.566   -19787865.867 8 -17140496.691 7
  20888004.721    20888008.489   -40209472.821 9  26149584.299 7
 88  3 22  5 12 59.0800000  0  4G 6G13G11G 9
  20861406.327    20861409.787    -9720326.801 9  -6263974.490 8
  22381328.208    22381331.776   -48588591.372 9  41800037.178 8
  20941254.187    20941256.518   -19776651.854 8 -17131758.488 7
  20878088.246    20878090.913   -40261586.223 8  26108976.462 7
 88  3 22  5 13 29.0800000  0  4G 6G13G11G 9
  20867893.334    20867896.755    -9686237.540 8  -6237411.425 7
  22366321.219    22366326.547   -48667441.201 9  41738595.770 8
  20943478.830    20943481.841   -19764962.279 8 -17122649.708 7
  20868256.801    20868260.421   -40313250.150 9  26068718.866 7
 88  3 22  5 13 59.0800000  0  4G 6G13G11G 9
  20874486.143    20874490.917    -9651593.338 9  -6210415.977 7
  22351394.533    22351399.188   -48745884.854 8  41677470.864 7
  20945792.224    20945797.340   -19752798.655 8 -17113171.568 6
  20858512.684    20858514.180   -40364461.717 8  26028813.742 8
 88  3 22  5 14 29.0800000  0  4G 6G13G11G 9
  20881185.128    20881189.607    -9616394.064 8  -6182987.986 7
  22336545.421    22336549.461   -48823920.785 8  41616663.660 8
  20948197.658    20948201.258   -19740162.395 8 -17103325.109 7
  20848852.553    20848856.407   -40415218.009 8  25989263.404 7
 88  3 22  5 14 59.0800000  0  4G 6G13G11G 9
  20887987.624    20887990.487    -9580639.623 9  -6155127.404 7
  22321772.053    22321779.189   -48901548.318 9  41556174.685 8
  20950691.264    20950695.608   -19727055.199 8 -17093111.701 7
  20839281.601    20839283.562   -40465516.477 8  25950069.801 7
 88  3 22  5 15 29.0800000  0  4G 6G13G11G 9
  20894897.637    20894903.256    -9544329.664 9  -6126833.951 7
  22307078.526    22307083.725   -48978765.503 8  41496005.478 7
  20953274.677    20953279.073   -19713478.406 8 -17082532.372 6
  20829797.691    20829801.986   -40515354.171 9  25911235.261 7
 88  3 22  5 15 59.0800000  0  4G 6G13G11G 9
  20901912.556    20901915.767    -9507464.063 9  -6098107.527 8
  22292463.865    22292467.639   -49055571.677 8  41436156.539 7
  20955946.468    20955952.202   -19699433.888 8 -17071588.580 7
  20820401.045    20820407.286   -40564728.316 8  25872761.900 8
 88  3 22  5 16 29.0800000  0  4G 6G13G11G 9
  20909033.772    20909037.433    -9470043.083 9  -6068948.318 7
  22277925.569    22277930.673   -49131966.002 8  41376628.502 8
  20958709.081    20958712.710   -19684923.229 8 -17060281.578 7
  20811096.354    20811098.348   -40613636.740 8  25834651.451 7
 88  3 22  5 16 59.0800000  0  4G 6G13G11G 9
  20916262.935    20916265.582    -9432066.666 9  -6039356.347 7
  22263467.552    22263471.568   -49207947.448 8  41317422.210 8
  20961558.624    20961564.489   -19669948.543 7 -17048612.970 6
  20801878.216    20801880.704   -40662076.848 8  25796905.898 7
 88  3 22  5 17 29.0800000  0  4G 6G13G11G 9
  20923594.361    20923597.049    -9393534.402 9  -6009331.227 7
  22249087.110    22249091.917   -49283513.932 8  41258539.269 8
  20964497.291    20964500.120   -19654510.608 9 -17036583.400 7
  20792749.040    20792751.964   -40710045.690 7  25759527.609 7
 88  3 22  5 17 59.0800000  0  4G 6G13G11G 9
  20931031.485    20931034.827    -9354446.493 9  -5978873.128 6
  22234785.387    22234790.090   -49358664.812 7  41199980.167 7
  20967522.671    20967528.973   -19638611.361 7 -17024194.393 7
  20783709.666    20783715.726   -40757540.570 8  25722518.608 7
 88  3 22  5 18 29.0800000  0  4G 6G13G11G 9
  20938575.918    20938577.610    -9314802.896 9  -5947982.028 7
  22220565.121    22220569.882   -49433399.149 7  41141745.639 8
  20970634.348    20970639.035   -19622252.437 7 -17011447.140 7
  20774763.981    20774767.151   -40804558.933 8  25685880.933 7
 88  3 22  5 18 59.0800000  0  4G 6G13G11G 9
  20946224.839    20946230.569    -9274603.361 9  -5916657.734 6
  22206425.169    22206428.460   -49507715.190 8  41083837.055 7
  20973833.610    20973839.849   -19605435.583 8 -16998343.100 7
  20765908.514    20765910.018   -40851097.627 8  25649617.024 8
 88  3 22  5 19 29.0800000  0  4G 6G13G11G 9
  20953980.753    20953982.154    -9233848.219 9  -5884900.475 7
  22192359.176    22192364.365   -49581612.027 8  41026255.138 8
  20977121.912    20977125.869   -19588162.856 8 -16984883.821 7
  20757143.857    20757146.781   -40897154.633 8  25613728.450 7
 88  3 22  5 19 59.0800000  0  4G 6G13G11G 9
  20961843.250    20961844.460    -9192537.384 9  -5852710.237 7
  22178378.656    22178383.245   -49655088.942 8  40969000.429 7
  20980494.748    20980498.808   -19570436.102 7 -16971070.752 6
  20748470.533    20748474.478   -40942727.465 8  25578217.152 7
 88  3 22  5 20 29.0800000  0  4G 6G13G11G 9
  20969809.263    20969811.847    -9150670.996 9  -5820087.100 7
  22164477.018    22164480.395   -49728144.539 9  40912073.993 7
  20983954.885    20983958.552   -19552256.371 8 -16956904.727 6
  20739892.070    20739894.827   -40987813.203 9  25543085.415 8
 88  3 22  5 20 59.0800000  0  4G 6G13G11G 9
  20977882.231    20977883.449    -9108249.102 8  -5787031.101 7
  22150655.355    22150659.309   -49800778.110 8  40855476.440 8
  20987498.850    20987505.361   -19533625.791 8 -16942387.389 7
  20731404.585    20731408.851   -41032409.259 8  25508335.248 7
 88  3 22  5 21 29.0800000  0  4G 6G13G11G 9
  20986059.970    20986063.498    -9065271.708 9  -5753542.257 7
  22136914.481    22136917.104   -49872987.646 9  40799209.296 8
  20991131.434    20991133.951   -19514545.931 7 -16927519.956 7
  20723012.744    20723014.591   -41076512.880 9  25473968.799 7
 88  3 22  5 21 59.0800000  0  4G 6G13G11G 9
  20994344.570    20994347.094    -9021739.542 9  -5719621.090 7
  22123253.648    22123258.637   -49944773.709 8  40743272.115 7
  20994845.519    20994850.449   -19495019.034 7 -16912304.206 7
  20714714.408    20714718.293   -41120122.105 8  25439987.563 6
 88  3 22  5 22 29.0800000  0  4G 6G13G11G 9
  21002734.559    21002734.953    -8977652.617 8  -5685267.656 7
  22109673.733    22109679.376   -50016134.924 9  40687665.999 8
  20998646.319    20998651.300   -19475046.508 8 -16896741.194 7
  20706510.768    20706513.109   -41163234.117 8  25406393.789 7
 88  3 22  5 22 59.0800000  0  4G 6G13G11G 9
  21011229.528    21011231.618    -8933011.054 8  -5650482.047 6
  22096175.023    22096180.809   -50087069.886 8  40632392.021 8
  21002531.398    21002537.957   -19454630.262 7 -16880832.413 8
  20698402.138    20698404.176   -41205846.329 7  25373189.498 7
 88  3 22  5 23 29.0800000  0  4G 6G13G11G 9
  21019829.152    21019831.277    -8887815.089 9  -5615264.432 6
  22082759.412    22082762.421   -50157577.815 9  40577450.811 7
  21006500.258    21006505.846   -19433772.131 8 -16864579.334 7
  20690387.396    20690389.790   -41247956.297 9  25340376.527 7
 88  3 22  5 23 59.0800000  0  4G 6G13G11G 9
  21028535.418    21028538.501    -8842064.544 8  -5579614.659 7
  22069422.495    22069427.342   -50227657.533 8  40522843.253 7
  21010555.653    21010558.331   -19412473.432 9 -16847982.927 7
  20682471.098    20682474.109   -41289561.141 8  25307957.141 7
 88  3 22  5 24 29.0800000  0  4G 6G13G11G 9
  21037345.712    21037349.711    -8795760.319 9  -5543533.482 7
  22056168.048    22056172.594   -50297308.658 8  40468569.682 7
  21014689.294    21014695.915   -19390736.784 8 -16831045.270 7
  20674649.535    20674651.808   -41330658.801 8  25275933.001 7
 88  3 22  5 24 59.0800000  0  4G 6G13G11G 9
  21046262.677    21046266.356    -8748903.010 9  -5507021.311 8
  22042994.658    22042999.275   -50366530.336 8  40414630.716 7
  21018908.858    21018915.007   -19368564.249 7 -16813767.966 7
  20666925.227    20666930.099   -41371247.010 8  25244305.822 7
 88  3 22  5 25 29.0800000  0  4G 6G13G11G 9
  21055285.645    21055287.551    -8701492.897 8  -5470078.376 7
  22029903.865    22029910.113   -50435321.871 8  40361026.944 8
  21023213.159    21023216.913   -19345957.501 8 -16796152.326 7
  20659301.449    20659303.422   -41411323.271 8  25213077.571 6
 88  3 22  5 25 59.0800000  0  4G 6G13G11G 9
  21064411.460    21064414.772    -8653530.018 9  -5432704.729 7
  22016895.025    22016901.025   -50503681.874 8  40307759.432 8
  21027596.772    21027601.395   -19322918.323 8 -16778199.716 7
  20651772.113    20651774.856   -41450884.931 8  25182250.302 6
 88  3 22  5 26 29.0800000  0  4G 6G13G11G 9
  21073644.777    21073645.607    -8605014.492 9  -5394900.435 7
  22003969.666    22003975.322   -50571609.047 8  40254829.198 7
  21032063.105    21032067.074   -19299448.083 7 -16759911.208 8
  20644341.006    20644344.698   -41489929.320 9  25151826.078 7
 88  3 22  5 26 59.0800000  0  4G 6G13G11G 9
  21082980.934    21082984.728    -8555946.642 9  -5356665.791 7
  21991125.396    21991130.886   -50639102.890 8  40202236.607 7
  21036609.524    21036615.697   -19275548.572 9 -16741288.223 7
  20637012.023    20637012.770   -41528453.767 8  25121807.058 7
 88  3 22  5 27 29.0800000  0  4G 6G13G11G 9
  21092424.646    21092426.527    -8506327.483 9  -5318001.524 7
  21978365.732    21978368.842   -50706162.870 8  40149982.116 7
  21041238.532    21041244.418   -19251222.393 7 -16722332.743 8
  20629778.739    20629782.638   -41566456.291 8  25092194.701 6
 88  3 22  5 27 59.0800000  0  4G 6G13G11G 9
  21101970.712    21101973.619    -8456157.170 9  -5278907.791 7
  21965687.330    21965692.023   -50772788.437 9  40098066.112 7
  21045950.251    21045953.793   -19226471.251 7 -16703046.132 7
  20622647.100    20622650.305   -41603934.442 8  25062990.936 6
 88  3 22  5 28 29.0800000  0  4G 6G13G11G 9
  21111623.099    21111624.976    -8405436.089 9  -5239384.883 7
  21953090.843    21953095.101   -50838978.138 9  40046489.735 8
  21050739.723    21050744.786   -19201296.741 8 -16683429.624 9
  20615615.905    20615619.707   -41640885.549 7  25034197.865 7
 88  3 22  5 28 59.0800000  0  4G 6G13G11G 9
  21121379.625    21121381.754    -8354164.900 9  -5199433.335 6
  21940579.483    21940583.846   -50904731.158 9  39995253.640 7
  21055610.530    21055614.948   -19175700.830 8 -16663484.755 8
  20608685.428    20608687.390   -41677307.670 8  25005817.024 7
 88  3 22  5 29 29.0800000  0  4G 6G13G11G 9
  21131240.597    21131243.768    -8302343.926 9  -5159053.377 7
  21928151.053    21928155.498   -50970047.263 8  39944357.974 7
  21060561.190    21060566.370   -19149685.445 8 -16643213.007 7
  20601856.199    20601859.016   -41713198.236 9  24977850.327 7
 88  3 22  5 29 59.0800000  0  4G 6G13G11G 9
  21141206.754    21141210.185    -8249973.805 9  -5118245.513 7
  21915804.447    21915807.562   -51034925.519 9  39893803.508 7
  21065590.302    21065596.978   -19123252.846 7 -16622616.176 7
  20595127.564    20595128.730   -41748554.757 7  24950299.797 6
 88  3 22  5 30 29.0800000  0  4G 6G13G11G 9
  21151276.461    21151280.484    -8197055.255 9  -5077010.301 8
  21903542.000    21903546.597   -51099365.413 8  39843590.627 7
  21070699.164    21070706.052   -19096404.963 8 -16601695.735 7
  20588501.319    20588503.704   -41783375.144 8  24923167.013 7
 88  3 22  5 30 59.0800000  0  4G 6G13G11G 9
  21161450.932    21161455.148    -8143589.216 9  -5035348.475 8
  21891361.978    21891366.444   -51163366.124 9  39793719.940 7
  21075888.133    21075892.271   -19069143.934 9 -16580453.371 6
  20581976.890    20581981.064   -41817657.298 8  24896453.655 7
 88  3 22  5 31 29.0800000  0  4G 6G13G11G 9
  21171728.125    21171730.666    -8089576.219 9  -4993260.464 8
  21879267.851    21879271.436   -51226927.699 9  39744191.471 7
  21081153.320    21081158.849   -19041471.987 8 -16558890.805 7
  20575555.863    20575561.148   -41851399.044 8  24870161.376 7
 88  3 22  5 31 59.0800000  0  4G 6G13G11G 9
  21182112.210    21182115.370    -8035016.395 8  -4950746.342 8
  21867255.876    21867258.924   -51290048.379 8  39695006.540 7
  21086496.994    21086501.781   -19013390.451 8 -16537009.083 7
  20569239.415    20569243.313   -41884597.457 7  24844292.505 7
 88  3 22  5 32 29.0800000  0  4G 6G13G11G 9
  21192597.862    21192602.121    -7979910.316 9  -4907806.546 7
  21855328.329    21855333.249   -51352727.698 9  39646165.515 7
  21091917.576    21091923.529   -18984901.328 8 -16514809.785 7
  20563026.561    20563028.169   -41917250.203 8  24818848.797 7
 88  3 22  5 32 59.0800000  0  4G 6G13G11G 9
  21203188.044    21203191.211    -7924259.502 9  -4864442.297 8
  21843485.124    21843488.633   -51414965.805 9  39597668.310 7
  21097417.864    21097421.235   -18956007.264 8 -16492294.913 7
  20556917.553    20556920.203   -41949355.857 8  24793831.405 7
 88  3 22  5 33 29.0800000  0  4G 6G13G11G 9
  21213881.349    21213884.933    -7868064.271 9  -4820653.818 7
  21831723.483    21831730.035   -51476761.998 8  39549515.437 8
  21102991.675    21102996.743   -18926709.955 8 -16469465.833 8
  20550910.287    20550913.100   -41980911.797 8  24769242.362 7
 88  3 22  5 33 59.0800000  0  4G 6G13G11G 9
  21224678.035    21224683.053    -7811325.254 8  -4776441.614 8
  21820050.612    21820054.997   -51538115.113 9  39501707.831 7
  21108643.741    21108648.594   -18897011.049 8 -16446323.827 7
  20545011.528    20545015.678   -42011915.640 8  24745083.525 7
 88  3 22  5 34 29.0800000  0  4G 6G13G11G 9
  21235577.711    21235583.455    -7754043.203 9  -4731806.268 6
  21808458.824    21808462.777   -51599024.866 8  39454245.709 7
  21114370.937    21114375.528   -18866913.123 8 -16422870.876 7
  20539218.124    20539221.486   -42042365.243 7  24721356.567 6
 88  3 22  5 34 59.0800000  0  4G 6G13G11G 9
  21246581.985    21246584.080    -7696218.658 9  -4686748.210 7
  21796953.896    21796958.008   -51659490.081 8  39407129.968 8
  21120173.987    21120177.510   -18836417.634 8 -16399108.160 7
  20533527.583    20533531.061   -42072258.131 8  24698063.397 7
 88  3 22  5 35 29.0800000  0  4G 6G13G11G 9
  21257688.222    21257692.397    -7637852.837 9  -4641268.369 8
  21785531.269    21785536.496   -51719510.821 8  39360360.582 7
  21126052.241    21126057.089   -18805527.120 8 -16375037.633 7
  20527945.695    20527950.913   -42101592.622 8  24675205.350 7
 88  3 22  5 35 59.0800000  0  4G 6G13G11G 9
  21268897.530    21268902.683    -7578946.613 9  -4595367.453 7
  21774195.913    21774197.810   -51779086.784 8  39313937.786 8
  21132006.038    21132009.661   -18774243.726 8 -16350660.949 8
  20522470.876    20522472.610   -42130366.929 8  24652783.829 8
 88  3 22  5 36 29.0800000  0  4G 6G13G11G 9
  21280210.871    21280214.189    -7519500.914 8  -4549046.140 8
  21762941.647    21762946.333   -51838217.710 8  39267861.755 8
  21138032.919    21138038.342   -18742569.288 7 -16325979.553 6
  20517102.571    20517106.523   -42158578.222 8  24630801.017 7
 88  3 22  5 36 59.0800000  0  4G 6G13G11G 9
  21291625.270    21291630.095    -7459516.508 9  -4502305.063 7
  21751774.905    21751780.825   -51896902.877 8  39222133.076 8
  21144134.931    21144138.579   -18710505.944 9 -16300995.127 8
  20511840.557    20511846.042   -42186224.855 7  24609258.179 7
 88  3 22  5 37 29.0800000  0  4G 6G13G11G 9
  21303143.147    21303145.360    -7398994.071 9  -4455144.751 7
  21740691.666    21740696.979   -51955141.398 8  39176752.453 8
  21150310.025    21150313.070   -18678055.725 8 -16275709.237 7
  20506688.917    20506690.962   -42213304.360 7  24588157.249 7
 88  3 22  5 37 59.0800000  0  4G 6G13G11G 9
  21314761.327    21314764.943    -7337934.766 8  -4407566.100 7
  21729695.117    21729700.823   -52012933.180 8  39131719.928 7
  21156558.140    21156561.346   -18645220.452 9 -16250123.289 8
  20501642.634    20501646.370   -42239814.848 7  24567499.739 7
 88  3 22  5 38 29.0800000  0  4G 6G13G11G 9
  21326482.232    21326486.290    -7276339.924 9  -4359570.145 8
  21718783.341    21718787.774   -52070278.132 7  39087035.572 7
  21162879.243    21162883.170   -18612002.580 8 -16224239.229 7
  20496706.593    20496711.605   -42265754.685 7  24547286.880 6
 88  3 22  5 38 59.0800000  0  4G 6G13G11G 9
  21338304.365    21338309.415    -7214210.191 9  -4311157.379 6
  21707954.380    21707961.283   -52127176.117 9  39042699.504 6
  21169271.071    21169275.956   -18578404.577 7 -16198058.963 8
  20491880.173    20491884.253   -42291121.716 7  24527520.352 8
 88  3 22  5 39 29.0800000  0  4G 6G13G11G 9
  21350231.306    21350233.347    -7151546.658 8  -4262328.662 6
  21697213.642    21697218.085   -52183626.334 8  38998712.346 7
  21175738.528    21175742.537   -18544428.252 9 -16171583.903 7
  20487161.190    20487165.841   -42315913.767 7  24508201.884 6
 88  3 22  5 39 59.0800000  0  4G 6G13G11G 9
  21362255.901    21362258.226    -7088350.260 9  -4213084.733 6
  21686555.704    21686560.993   -52239627.995 8  38955074.714 7
  21182274.890    21182278.301   -18510075.717 9 -16144815.687 7
  20482554.312    20482557.868   -42340128.937 8  24489332.926 7
 88  3 22  5 40 29.0800000  0  4G 6G13G11G 9
  21374384.646    21374387.819    -7024621.906 9  -4163426.301 7
  21675986.243    21675990.302   -52295180.689 9  38911786.938 7
  21188882.664    21188887.889   -18475349.067 8 -16117755.962 6
  20478054.289    20478061.059   -42363765.119 7  24470915.108 7
 88  3 22  5 40 59.0800000  0  4G 6G13G11G 9
  21386612.425    21386616.167    -6960363.106 9  -4113354.524 8
  21665499.628    21665503.185   -52350285.003 8  38868848.517 7
  21195562.229    21195566.928   -18440250.323 8 -16090406.285 7
  20473668.380    20473671.989   -42386820.675 8  24452949.752 7
 88  3 22  5 41 29.0800000  0  4G 6G13G11G 9
  21398941.085    21398943.766    -6895574.729 9  -4062870.080 7
  21655097.948    21655100.913   -52404940.510 8  38826259.833 7
  21202311.824    21202315.234   -18404781.869 8 -16062768.524 7
  20469392.597    20469396.325   -42409293.572 7  24435438.407 7
 88  3 22  5 41 59.0800000  0  4G 6G13G11G 9
  21411369.063    21411373.536    -6830258.082 9  -4011974.030 7
  21644783.250    21644787.305   -52459146.803 8  38784021.193 7
  21209130.692    21209135.053   -18368946.137 8 -16034844.569 7
  20465227.896    20465230.267   -42431182.073 9  24418382.435 7
 88  3 22  5 42 29.0800000  0  4G 6G13G11G 9
  21423899.643    21423903.046    -6764414.059 9  -3960667.005 8
  21634552.571    21634558.929   -52512903.304 8  38742133.021 7
  21216019.034    21216024.952   -18332744.723 8 -16006635.679 7
  20461174.962    20461176.987   -42452483.961 8  24401783.557 7
 88  3 22  5 42 59.0800000  0  4G 6G13G11G 9
  21436529.541    21436532.886    -6698043.580 9  -3908949.766 7
  21624411.028    21624412.427   -52566209.560 9  38700595.717 7
  21222977.746    21222981.171   -18296179.574 9 -15978143.351 6
  20457231.744    20457235.917   -42473197.427 7  24385643.198 7
 88  3 22  5 43 29.0800000  0  4G 6G13G11G 9
  21449258.715    21449262.434    -6631148.153 9  -3856823.485 8
  21614350.548    21614355.030   -52619065.922 9  38659408.944 8
  21230003.860    21230009.515   -18259253.178 8 -15949369.533 7
  20453403.242    20453406.391   -42493320.691 8  24369962.732 8
 88  3 22  5 43 59.0800000  0  4G 6G13G11G 9
  21462087.998    21462090.056    -6563729.279 9  -3804289.328 7
  21604379.924    21604382.945   -52671472.195 8  38618572.905 7
  21237099.920    21237104.270   -18221968.206 8 -15920316.292 7
  20449685.833    20449690.288   -42512852.204 6  24354743.369 7
 88  3 22  5 44 29.0800000  0  4G 6G13G11G 9
  21475017.904    21475020.737    -6495788.014 9  -3751348.087 8
  21594492.048    21594495.792   -52723428.200 9  38578087.722 7
  21244262.068    21244265.855   -18184326.450 9 -15890985.064 8
  20446082.122    20446086.111   -42531790.274 8  24339986.441 7
 88  3 22  5 44 59.0800000  0  4G 6G13G11G 9
  21488043.961    21488048.626    -6427325.614 9  -3698000.794 7
  21584690.359    21584695.524   -52774933.805 8  38537953.507 6
  21251492.506    21251497.692   -18146330.058 8 -15861377.469 7
  20442591.449    20442595.372   -42550132.945 8  24325693.434 7
 88  3 22  5 45 29.0800000  0  4G 6G13G11G 9
  21501171.793    21501175.623    -6358343.091 8  -3644248.208 7
  21574975.371    21574981.370   -52825988.234 9  38498170.850 7
  21258791.036    21258795.357   -18107980.866 9 -15831494.981 7
  20439214.381    20439218.936   -42567878.435 7  24311865.786 7
 88  3 22  5 45 59.0800000  0  4G 6G13G11G 9
  21514397.896    21514401.555    -6288841.759 9  -3590091.344 7
  21565346.324    21565349.639   -52876591.577 8  38458739.679 7
  21266155.253    21266157.769   -18069280.882 8 -15801339.140 8
  20435952.388    20435956.457   -42585024.660 8  24298505.091 7
 88  3 22  5 46 29.0800000  0  4G 6G13G11G 9
  21527722.048    21527725.771    -6218823.468 9  -3535531.659 6
  21555801.875    21555806.759   -52926744.092 9  38419659.796 7
  21273585.685    21273588.939   -18030232.948 9 -15770912.179 8
  20432804.059    20432806.877   -42601570.585 8  24285612.151 6
 88  3 22  5 46 59.0800000  0  4G 6G13G11G 9
  21541144.089    21541148.535    -6148288.695 9  -3480569.525 8
  21546343.968    21546347.843   -52976445.627 8  38380931.352 6
  21281081.289    21281086.446   -17990838.869 9 -15740215.501 8
  20429770.108    20429773.926   -42617513.900 7  24273188.779 7
 88  3 22  5 47 29.0800000  0  4G 6G13G11G 9
  21554663.758    21554667.690    -6077239.574 8  -3425206.588 7
  21536972.983    21536977.767   -53025696.062 8  38342554.398 7
  21288643.995    21288647.584   -17951100.932 9 -15709250.862 7
  20426852.386    20426854.982   -42632853.294 7  24261236.020 7
 88  3 22  5 47 59.0800000  0  4G 6G13G11G 9
  21568282.695    21568286.153    -6005676.911 9  -3369443.495 7
  21527684.660    21527690.888   -53074495.414 8  38304528.953 7
  21296270.915    21296275.408   -17911021.764 8 -15678020.326 7
  20424047.157    20424050.620   -42647587.206 7  24249755.026 7
 88  3 22  5 48 29.0800000  0  4G 6G13G11G 9
  21581997.244    21582002.742    -5933602.231 9  -3313281.432 8
  21518484.469    21518491.066   -53122842.735 8  38266855.725 7
  21303962.535    21303966.708   -17870602.716 9 -15646524.980 7
  20421359.657    20421361.378   -42661713.388 7  24238747.618 6
 88  3 22  5 48 59.0800000  0  4G 6G13G11G 9
  21595810.280    21595814.784    -5861016.678 9  -3256721.296 7
  21509370.929    21509375.023   -53170738.894 8  38229534.081 8
  21311718.561    21311722.410   -17829846.294 8 -15614766.698 7
  20418785.362    20418790.039   -42675230.812 7  24228214.557 7
 88  3 22  5 49 29.0800000  0  4G 6G13G11G 9
  21609719.663    21609724.264    -5787922.756 9  -3199765.008 7
  21500342.415    21500347.074   -53218184.049 9  38192563.842 7
  21319537.974    21319541.599   -17788755.437 9 -15582747.860 8
  20416329.885    20416334.159   -42688138.378 8  24218156.711 6
 88  3 22  5 49 59.0800000  0  4G 6G13G11G 9
  21623726.273    21623729.540    -5714321.336 9  -3142413.253 7
  21491400.927    21491405.882   -53265178.282 8  38155944.977 7
  21327419.611    21327424.877   -17747331.994 9 -15550469.838 7
  20413990.765    20413993.862   -42700434.205 7  24208575.528 7
 88  3 22  5 50 29.0800000  0  4G 6G13G11G 9
  21637826.697    21637831.473    -5640213.984 9  -3084667.288 7
  21482542.806    21482548.095   -53311721.186 8  38119677.802 7
  21335365.326    21335369.810   -17705577.892 8 -15517934.191 8
  20411768.769    20411771.107   -42712116.911 8  24199472.123 7
 88  3 22  5 50 59.0800000  0  4G 6G13G11G 9
  21652027.248    21652029.256    -5565602.325 9  -3026528.350 7
  21473772.291    21473776.849   -53357813.382 9  38083761.834 8
  21343373.586    21343378.385   -17663495.331 8 -15485142.568 8
  20409660.526    20409665.164   -42723184.789 8  24190847.796 7
 88  3 22  5 51 29.0800000  0  4G 6G13G11G 9
  21666320.303    21666323.690    -5490487.560 9  -2967997.390 7
  21465086.984    21465092.092   -53403454.218 8  38048197.557 7
  21351443.455    21351447.814   -17621086.915 8 -15452097.036 7
  20407670.799    20407676.404   -42733636.604 7  24182703.538 6
 88  3 22  5 51 59.0800000  0  4G 6G13G11G 9
  21680709.787    21680712.327    -5414871.927 9  -2909076.138 7
  21456488.434    21456492.286   -53448644.719 8  38012984.207 8
  21359574.508    21359579.384   -17578355.044 8 -15418799.484 6
  20405800.467    20405803.449   -42743471.145 8  24175040.249 7
 88  3 22  5 52 29.0800000  0  4G 6G13G11G 9
  21695193.526    21695196.699    -5338756.246 9  -2849765.251 6
  21447972.573    21447977.080   -53493384.503 9  37978122.065 7
  21367767.719    21367771.626   -17535301.369 8 -15385251.168 7
  20404048.798    20404050.420   -42752686.598 7  24167859.365 6
 88  3 22  5 52 59.0800000  0  4G 6G13G11G 9
  21709772.838    21709775.025    -5262142.436 8  -2790066.182 8
  21439546.319    21439552.222   -53537673.509 8  37943611.164 7
  21376022.131    21376026.324   -17491928.199 8 -15351453.891 7
  20402412.297    20402415.174   -42761281.466 8  24161162.059 6
 88  3 22  5 53 29.0800000  0  4G 6G13G11G 9
  21724444.708    21724449.617    -5185032.028 9  -2729980.185 7
  21431203.615    21431208.064   -53581511.999 8  37909451.324 8
  21384334.845    21384338.814   -17448237.809 7 -15317409.416 7
  20400894.846    20400898.150   -42769254.787 8  24154949.073 7
 88  3 22  5 53 59.0800000  0  4G 6G13G11G 9
  21739213.643    21739217.684    -5107425.963 8  -2669507.934 7
  21422946.015    21422953.844   -53624899.301 8  37875643.050 7
  21392709.972    21392713.973   -17404231.644 9 -15283118.891 7
  20399495.163    20399498.870   -42776604.352 8  24149222.126 6
 88  3 22  5 54 29.0800000  0  4G 6G13G11G 9
  21754074.995    21754079.325    -5029326.394 9  -2608651.164 7
  21414777.959    21414781.334   -53667835.995 9  37842185.901 8
  21401143.384    21401149.425   -17359912.603 8 -15248584.584 8
  20398216.282    20398220.495   -42783329.329 8  24143981.893 6
 88  3 22  5 54 59.0800000  0  4G 6G13G11G 9
  21769031.279    21769036.347    -4950735.497 9  -2547411.527 7
  21406692.707    21406695.959   -53710323.021 8  37809079.151 8
  21409635.632    21409641.032   -17315283.450 9 -15213808.622 7
  20397055.890    20397060.445   -42789428.904 7  24139228.976 6
 88  3 22  5 55 29.0800000  0  4G 6G13G11G 9
  21784080.549    21784084.191    -4871654.557 9  -2485790.023 7
  21398693.929    21398695.277   -53752360.234 9  37776322.885 7
  21418186.408    21418191.359   -17270345.864 8 -15178792.330 8
  20396014.116    20396016.452   -42794901.558 8  24134964.553 7
 88  3 22  5 55 59.0800000  0  4G 6G13G11G 9
  21799220.447    21799225.721    -4792085.531 9  -2423788.229 7
  21390777.805    21390781.902   -53793948.206 8  37743916.686 7
  21426795.430    21426800.913   -17225102.135 8 -15143537.475 7
  20395090.452    20395096.973   -42799746.227 7  24131189.484 6
 88  3 22  5 56 29.0800000  0  4G 6G13G11G 9
  21814454.858    21814458.944    -4712029.913 8  -2361407.247 8
  21382950.480    21382955.324   -53835086.469 7  37711860.924 8
  21435465.330    21435469.130   -17179554.486 8 -15108045.798 8
  20394291.057    20394292.692   -42803961.380 7  24127904.938 6
 88  3 22  5 56 59.0800000  0  4G 6G13G11G 9
  21829780.938    21829785.294    -4631489.428 9  -2298648.463 8
  21375208.109    21375211.962   -53875775.328 9  37680155.322 7
  21444188.002    21444193.914   -17133705.272 8 -15072319.139 7
  20393609.109    20393610.602   -42807545.929 7  24125111.788 7
 88  3 22  5 57 29.0800000  0  4G 6G13G11G 9
  21845200.025    21845203.629    -4550466.014 9  -2235513.350 7
  21367550.246    21367554.330   -53916015.640 9  37648799.259 7
  21452970.864    21452975.013   -17087556.846 9 -15036359.313 7
  20393045.602    20393048.066   -42810499.021 7  24122810.657 7
 88  3 22  5 57 59.0800000  0  4G 6G13G11G 9
  21860709.347    21860715.251    -4468961.605 9  -2172003.447 7
  21359978.106    21359981.041   -53955807.810 9  37617792.384 7
  21461808.421    21461814.019   -17041111.513 8 -15000168.170 8
  20392604.430    20392608.334   -42812819.497 8  24121002.498 7
 88  3 22  5 58 29.0800000  0  4G 6G13G11G 9
  21876311.334    21876314.934    -4386977.751 9  -2108119.961 8
  21352491.643    21352495.352   -53995151.748 9  37587134.796 7
  21470703.410    21470707.491   -16994371.030 9 -14963746.997 8
  20392284.045    20392287.874   -42814506.145 7  24119688.204 6
 88  3 22  5 58 59.0800000  0  4G 6G13G11G 9
  21892002.258    21892006.803    -4304516.255 9  -2043864.263 7
  21345089.101    21345091.007   -54034047.835 8  37556826.156 7
  21479653.756    21479658.933   -16947337.789 9 -14927097.720 7
  20392085.243    20392087.763   -42815557.714 8  24118868.804 6
 88  3 22  5 59 29.0800000  0  4G 6G13G11G 9
  21907784.538    21907789.699    -4221578.777 9  -1979237.694 7
  21337772.739    21337777.279   -54072496.273 9  37526866.352 7
  21488659.174    21488663.604   -16900014.359 9 -14890222.328 7
  20392006.152    20392006.776   -42815973.215 8  24118545.045 6
 88  3 22  5 59 59.0800000  0  4G 6G13G11G 9
  21923659.159    21923661.925    -4138167.361 9  -1914241.799 7
  21330541.224    21330546.552   -54110497.434 9  37497255.073 7
  21497719.114    21497723.630   -16852402.444 9 -14853122.141 8
  20392047.596    20392049.694   -42815751.719 7  24118717.622 6
 88  3 22  6  0 29.0800000  0  4G 6G13G11G 9
  21939619.620    21939625.513    -4054283.915 8  -1848878.120 7
  21323394.876    21323398.805   -54148051.724 9  37467992.019 7
  21506835.369    21506837.212   -16804504.378 9 -14815798.944 8
  20392211.093    20392213.910   -42814892.149 8  24119387.413 6
 88  3 22  6  0 59.0800000  0  4G 6G13G11G 9
  21955672.976    21955675.532    -3969930.311 9  -1783148.056 6
  21316333.277    21316337.609   -54185159.652 9  37439076.765 7
  21516001.775    21516007.876   -16756322.448 8 -14778254.613 8
  20392495.526    20392497.326   -42813393.886 8  24120554.892 7
 88  3 22  6  1 29.0800000  0  4G 6G13G11G 9
  21971814.339    21971816.623    -3885108.812 9  -1717053.398 7
  21309356.133    21309361.954   -54221822.018 8  37410508.708 7
  21525225.643    21525229.612   -16707859.121 9 -14740490.961 7
  20392901.471    20392906.160   -42811255.857 8  24122220.887 6
 88  3 22  6  1 59.0800000  0  4G 6G13G11G 9
  21988042.799    21988047.574    -3799820.767 9  -1650595.217 7
  21302464.057    21302470.155   -54258038.625 9  37382287.994 7
  21534500.166    21534506.021   -16659116.412 9 -14702509.631 8
  20393431.174    20393433.763   -42808476.978 8  24124386.235 7
 88  3 22  6  2 29.0800000  0  4G 6G13G11G 9
  22004361.776    22004366.525    -3714068.039 9  -1583774.946 7
  21295657.562    21295662.302   -54293809.590 8  37354414.521 6
  21543831.024    21543833.520   -16610096.212 9 -14664312.071 7
  20394081.564    20394084.421   -42805056.183 7  24127051.779 7
 88  3 22  6  2 59.0800000  0  4G 6G13G11G 9
  22020768.165    22020770.810    -3627853.257 8  -1516594.599 8
  21288935.794    21288939.560   -54329136.287 9  37326887.248 8
  21553208.634    21553214.443   -16560801.255 9 -14625900.410 8
  20394854.766    20394859.746   -42800993.105 7  24130217.796 7
 88  3 22  6  3 29.0800000  0  4G 6G13G11G 9
  22037260.504    22037266.138    -3541178.316 9  -1449055.711 8
  21282297.198    21282301.519   -54364018.738 8  37299706.115 6
  21562642.787    21562646.576   -16511233.916 8 -14587276.519 8
  20395750.960    20395753.133   -42796287.129 7  24133884.787 6
 88  3 22  6  3 59.0800000  0  4G 6G13G11G 9
  22053840.611    22053846.917    -3454045.090 8  -1381159.716 7
  21275743.125    21275748.838   -54398457.951 8  37272870.380 7
  21572126.302    21572131.093   -16461396.134 9 -14548441.885 8
  20396768.546    20396772.538   -42790937.233 7  24138053.521 6
 88  3 22  6  4 29.0800000  0  4G 6G13G11G 9
  22070511.034    22070512.632    -3366455.691 8  -1312908.269 7
  21269274.593    21269279.566   -54432454.745 9  37246379.391 6
  21581659.255    21581664.259   -16411290.256 9 -14509398.332 7
  20397907.678    20397911.803   -42784942.780 7  24142724.536 7
 88  3 22  6  4 59.0800000  0  4G 6G13G11G 9
  22087264.542    22087269.071    -3278411.944 8  -1244302.781 7
  21262887.747    21262895.221   -54466008.792 8  37220233.367 6
  21591247.404    21591251.665   -16360918.480 8 -14470147.601 8
  20399172.489    20399176.389   -42778302.756 8  24147898.593 7
 88  3 22  6  5 29.0800000  0  4G 6G13G11G 9
  22104104.732    22104106.761    -3189916.127 9  -1175345.034 8
  21256587.734    21256592.638   -54499120.896 9  37194431.769 7
  21600880.921    21600884.207   -16310283.187 9 -14430691.537 7
  20400558.818    20400562.013   -42771016.631 7  24153576.062 6
 88  3 22  6  5 59.0800000  0  4G 6G13G11G 9
  22121029.449    22121034.479    -3100970.453 9  -1106036.734 8
  21250371.909    21250374.134   -54531792.097 8  37168973.719 8
  21610566.836    21610570.626   -16259386.293 9 -14391031.609 8
  20402068.929    20402071.708   -42763083.980 8  24159757.361 6
 88  3 22  6  6 29.0800000  0  4G 6G13G11G 9
  22138041.691    22138046.028    -3011576.628 9  -1036379.240 7
  21244235.913    21244243.224   -54564022.366 8  37143859.225 7
  21620301.492    21620305.501   -16208230.049 8 -14351169.607 8
  20403702.981    20403702.710   -42754503.742 7  24166443.254 6
 88  3 22  6  6 59.0800000  0  4G 6G13G11G 9
  22155137.790    22155140.987    -2921736.958 9   -966374.322 8
  21238188.216    21238192.512   -54595812.653 8  37119087.597 6
  21630084.624    21630088.472   -16156816.917 9 -14311107.439 8
  20405457.452    20405459.908   -42745275.520 7  24173634.055 6
 88  3 22  6  7 29.0800000  0  4G 6G13G11G 9
  22172318.221    22172322.841    -2831453.593 9   -896023.679 7
  21232223.729    21232228.252   -54627163.403 8  37094658.446 7
  21639917.174    21639920.090   -16105148.993 9 -14270846.700 8
  20407338.538    20407340.775   -42735398.926 7  24181330.122 7
 88  3 22  6  7 59.0800000  0  4G 6G13G11G 9
  22189581.409    22189586.111    -2740728.393 8   -825328.732 7
  21226340.733    21226343.460   -54658075.133 8  37070571.414 8
  21649796.827    21649801.320   -16053228.265 8 -14230388.999 7
  20409340.636    20409343.562   -42724872.916 7  24189532.197 6
 88  3 22  6  8 29.0800000  0  4G 6G13G11G 9
  22206930.581    22206934.127    -2649563.802 9   -754291.415 8
  21220540.353    21220544.593   -54688548.914 9  37046825.615 7
  21659725.944    21659729.604   -16001057.113 9 -14189736.147 8
  20411467.198    20411469.699   -42713697.391 7  24198240.396 5
 88  3 22  6  8 59.0800000  0  4G 6G13G11G 9
  22224361.127    22224366.622    -2557961.891 8   -682913.357 8
  21214824.878    21214829.871   -54718584.962 1  37023420.900 3
  21669699.280    21669704.666   -15948637.994 9 -14148890.080 8
  20413716.429    20413718.540   -42701871.597 8  24207455.295 6
 88  3 22  6  9 29.0800000  0  4G 6G13G11G 9
  22241874.893    22241879.905    -2465925.001 9   -611196.323 7
  21209192.574    21209196.206   -54748184.600 1  37000356.272 1
  21679721.197    21679724.718   -15895973.251 8 -14107852.624 7
  20416092.378    20416092.075   -42689395.427 8  24217176.980 6
 88  3 22  6  9 59.0800000  0  4G 6G13G11G 9
  22259470.728    22259475.257    -2373455.107 8   -539141.865 7
  21203642.845    21203647.905   -54777347.876 8  36977631.671 8
  21689790.593    21689795.155   -15843064.495 8 -14066625.019 7
  20418589.354    20418593.564   -42676268.163 7  24227405.994 6
 88  3 22  6 10 29.0800000  0  4G 6G13G11G 9
  22277151.793    22277155.072    -2280553.877 8   -466751.321 7
  21198176.805    21198181.887   -54806075.060 8  36955246.857 7
  21699905.271    21699908.051   -15789913.347 9 -14025208.551 7
  20421212.484    20421213.301   -42662488.709 7  24238143.252 6
 88  3 22  6 10 59.0800000  0  4G 6G13G11G 9
  22294911.304    22294914.554    -2187224.104 9   -394026.849 8
  21192792.056    21192796.716   -54834367.787 8  36933200.607 7
  21710066.041    21710067.256   -15736522.788 9 -13983605.480 7
  20423957.965    20423959.789   -42648057.392 7  24249388.400 7
 88  3 22  6 11 29.0800000  0  4G 6G13G11G 9
  22312751.494    22312754.112    -2093468.367 8   -320970.457 7
  21187490.939    21187497.206   -54862226.824 8  36911492.283 7
  21720268.968    21720275.346   -15682895.195 8 -13941817.739 8
  20426828.096    20426830.978   -42632974.131 7  24261141.615 7
 88  3 22  6 11 59.0800000  0  4G 6G13G11G 9
  22330673.229    22330678.726    -1999288.582 9   -247583.634 7
  21182272.777    21182277.467   -54889652.309 8  36890121.784 7
  21730520.245    21730524.296   -15629032.060 9 -13899846.508 7
  20429823.074    20429825.122   -42617238.147 7  24273403.409 5
 88  3 22  6 12 29.0800000  0  4G 6G13G11G 9
  22348675.694    22348679.775    -1904687.176 9   -173868.275 7
  21177136.487    21177140.553   -54916645.598 9  36869088.077 8
  21740814.110    21740816.755   -15574936.310 9 -13857693.953 8
  20432939.873    20432944.893   -42600849.528 8  24286173.747 6
 88  3 22  6 12 59.0800000  0  4G 6G13G11G 9
  22366756.309    22366761.224    -1809666.492 9    -99826.230 8
  21172080.279    21172084.942   -54943207.598 9  36848390.416 8
  21751151.817    21751155.926   -15520609.942 9 -13815361.711 8
  20436183.367    20436188.003   -42583808.164 8  24299452.710 5
 88  3 22  6 13 29.0800000  0  4G 6G13G11G 9
  22384918.487    22384922.333    -1714228.719 9    -25459.129 7
  21167109.059    21167112.200   -54969338.380 9  36828028.776 7
  21761532.449    21761536.456   -15466055.115 9 -13772851.465 8
  20439551.106    20439555.242   -42566113.549 8  24313240.708 6
 88  3 22  6 13 59.0800000  0  4G 6G13G11G 9
  22403158.720    22403165.293    -1618376.225 9     49231.100 8
  21162218.616    21162222.858   -54995039.145 8  36808002.224 7
  21771958.042    21771961.377   -15411273.835 9 -13730164.744 8
  20443042.920    20443046.188   -42547765.557 7  24327537.834 5
 88  3 22  6 14 29.0800000  0  4G 6G13G11G 9
  22421477.398    22421481.418    -1522111.466 9    124242.576 8
  21157407.802    21157414.628   -55020311.097 8  36788309.804 8
  21782424.988    21782429.253   -15356268.515 9 -13687303.456 8
  20446658.484    20446662.054   -42528764.091 8  24342344.177 7
 88  3 22  6 14 59.0800000  0  4G 6G13G11G 9
  22439874.392    22439877.789    -1425436.562 8    199573.647 7
  21152682.551    21152685.504   -55045154.494 9  36768951.338 7
  21792933.945    21792937.708   -15301041.131 9 -13644269.143 8
  20450398.402    20450403.085   -42509108.857 7  24357659.952 6
 88  3 22  6 15 29.0800000  0  4G 6G13G11G 9
  22458348.295    22458351.780    -1328353.678 9    275222.639 8
  21148036.119    21148039.185   -55069570.341 9  36749926.015 7
  21803483.856    21803488.651   -15245593.720 9 -13601063.365 8
  20454264.234    20454267.199   -42488799.539 7  24373485.361 6
 88  3 22  6 15 59.0800000  0  4G 6G13G11G 9
  22476898.932    22476903.975    -1230865.209 9    351187.675 9
  21143471.274    21143474.030   -55093559.149 8  36731233.450 8
  21814077.895    21814082.676   -15189927.819 9 -13557687.340 8
  20458252.584    20458255.418   -42467835.927 7  24389820.664 5
 88  3 22  6 16 29.0800000  0  4G 6G13G11G 9
  22495527.680    22495531.464    -1132973.982 8    427466.534 8
  21138985.593    21138990.359   -55117122.639 9  36712872.301 8
  21824713.233    21824716.224   -15134046.866 8 -13514143.731 8
  20462366.416    20462368.527   -42446218.624 7  24406665.292 6
 88  3 22  6 16 59.0800000  0  4G 6G13G11G 9
  22514231.727    22514236.920    -1034682.469 9    504057.302 9
  21134583.737    21134587.372   -55140261.877 8  36694841.735 7
  21835384.974    21835391.498   -15077952.511 9 -13470433.894 8
  20466604.560    20466605.875   -42423947.614 7  24424019.327 6
 88  3 22  6 17 29.0800000  0  4G 6G13G11G 9
  22533012.604    22533016.377     -935993.066 9    580958.124 8
  21130261.581    21130265.594   -55162977.370 8  36677141.379 8
  21846101.555    21846105.131   -15021646.934 8 -13426559.420 8
  20470966.071    20470969.223   -42401022.842 7  24441882.777 6
 88  3 22  6 17 59.0800000  0  4G 6G13G11G 9
  22551867.921    22551871.250     -836908.060 9    658167.198 7
  21126019.137    21126024.014   -55185270.092 9  36659770.433 7
  21856855.344    21856858.921   -14965132.538 8 -13382522.214 8
  20475455.333    20475456.643   -42377444.295 8  24460255.650 7
 88  3 22  6 18 29.0800000  0  4G 6G13G11G 9
  22570797.767    22570801.605     -737429.833 9    735682.679 8
  21121856.541    21121859.693   -55207140.910 8  36642728.260 7
  21867647.824    21867653.663   -14908411.032 8 -13338323.645 9
  20480064.105    20480067.390   -42353212.020 8  24479137.954 7
 88  3 22  6 18 59.0800000  0  4G 6G13G11G 9
  22589802.572    22589806.606     -637560.854 9    813502.624 8
  21117775.219    21117777.339   -55228590.864 8  36626014.010 8
  21878481.512    21878486.021   -14851484.809 8 -13293965.582 8
  20484801.875    20484804.953   -42328326.058 7  24498529.606 6
 88  3 22  6 19 29.0800000  0  4G 6G13G11G 9
  22608880.930    22608883.020     -537303.560 9    891625.174 8
  21113773.025    21113777.098   -55249621.073 9  36609626.846 8
  21889352.065    21889355.988   -14794355.576 8 -13249449.306 7
  20489660.783    20489662.518   -42302786.688 7  24518430.400 6
 88  3 22  6 19 59.0800000  0  4G 6G13G11G 9
  22628032.036    22628036.801     -436660.432 9    970048.374 8
  21109850.834    21109856.015   -55270232.654 8  36593565.887 7
  21900261.995    21900266.473   -14737025.667 8 -13204776.638 8
  20494644.818    20494647.804   -42276593.844 9  24538840.385 7
 88  3 22  6 20 29.0800000  0  4G 6G13G11G 9
  22647255.254    22647261.032     -335634.085 8   1048770.172 8
  21106007.821    21106012.001   -55290426.045 9  36577830.794 8
  21911209.155    21911215.454   -14679497.526 9 -13159949.528 9
  20499753.251    20499755.855   -42249747.975 8  24559759.243 7
 88  3 22  6 20 59.0800000  0  4G 6G13G11G 9
  22666553.850    22666557.696     -234226.847 9   1127788.761 7
  21102244.343    21102248.371   -55310202.449 8  36562420.611 7
  21922195.125    21922197.228   -14621772.835 8 -13114969.261 8
  20504985.565    20504990.378   -42222249.288 8  24581186.783 7
 88  3 22  6 21 29.0800000  0  4G 6G13G11G 9
  22685921.918    22685926.845     -132441.122 9   1207102.300 8
  21098559.647    21098564.707   -55329563.188 8  36547334.338 7
  21933217.467    21933218.957   -14563853.515 9 -13069837.312 7
  20510343.085    20510346.067   -42194097.535 8  24603123.184 7
 88  3 22  6 21 59.0800000  0  4G 6G13G11G 9
  22705363.490    22705368.445      -30279.831 9   1286708.497 7
  21094955.565    21094959.170   -55348509.018 8  36532571.363 7
  21944274.180    21944277.142   -14505742.046 9 -13024555.673 8
  20515825.377    20515827.292   -42165293.751 8  24625567.696 6
 88  3 22  6 22 29.0800000  0  4G 6G13G11G 9
  22724875.412    22724879.947       72254.561 9   1366605.401 8
  21091428.407    21091430.839   -55367041.341 9  36518130.600 8
  21955368.385    21955371.503   -14447440.461 8 -12979125.866 8
  20521429.939    20521432.363   -42135837.990 7  24648520.214 7
 88  3 22  6 22 59.0800000  0  4G 6G13G11G 9
  22744456.832    22744461.479      175159.423 8   1446791.010 7
  21087980.608    21087984.701   -55385160.944 8  36504011.446 7
  21966500.049    21966502.343   -14388950.755 8 -12933549.465 8
  20527161.147    20527163.020   -42105730.754 7  24671980.379 7
 88  3 22  6 23 29.0800000  0  4G 6G13G11G 9
  22764109.113    22764113.347      278432.372 9   1527263.430 7
  21084610.157    21084615.088   -55402868.520 9  36490213.343 7
  21977665.169    21977668.075   -14330274.917 9 -12887828.006 8
  20533012.115    20533016.976   -42074972.231 7  24695948.053 6
 88  3 22  6 23 59.0800000  0  4G 6G13G11G 9
  22783830.840    22783836.193      382070.734 9   1608020.571 7
  21081319.267    21081323.916   -55420165.671 8  36476735.052 7
  21988864.943    21988871.215   -14271415.153 9 -12841963.295 8
  20538989.231    20538993.249   -42043562.916 8  24720422.825 6
 88  3 22  6 24 29.0800000  0  4G 6G13G11G 9
  22803621.268    22803626.705      486071.879 8   1689060.395 7
  21078105.043    21078109.417   -55437053.781 9  36463575.507 7
  22000102.728    22000101.169   -14212373.619 9 -12795956.875 7
  20545090.642    20545091.494   -42011503.410 7  24745404.250 6
 88  3 22  6 24 59.0800000  0  4G 6G13G11G 9
  22823480.943    22823486.376      590433.160 8   1770380.849 8
  21074969.386    21074974.271   -55453533.968 7  36450733.806 7
  22011371.103    22011372.791   -14153152.492 9 -12749810.483 7
  20551313.217    20551317.990   -41978794.002 8  24770892.090 7
 88  3 22  6 25 29.0800000  0  4G 6G13G11G 9
  22843408.186    22843413.366      695152.297 8   1851980.162 8
  21071909.673    21071916.408   -55469607.160 8  36438209.260 8
  22022671.215    22022678.083   -14093753.643 9 -12703525.726 8
  20557662.312    20557665.602   -41945435.260 8  24796885.892 6
 88  3 22  6 25 59.0800000  0  4G 6G13G11G 9
  22863403.689    22863407.451      800226.276 8   1933855.968 7
  21068929.628    21068933.247   -55485274.410 8  36426001.010 7
  22034010.878    22034012.508   -14034179.614 9 -12657104.410 8
  20564133.481    20564137.202   -41911427.571 8  24823385.388 6
 88  3 22  6 26 29.0800000  0  4G 6G13G11G 9
  22883466.547    22883470.108      905653.329 8   2016006.890 7
  21066025.086    21066030.202   -55500536.279 8  36414108.657 8
  22045379.589    22045381.508   -13974431.012 8 -12610547.016 8
  20570727.848    20570731.966   -41876770.777 8  24850390.650 7
 88  3 22  6 26 59.0800000  0  4G 6G13G11G 9
  22903594.762    22903598.779     1011430.380 8   2098430.533 8
  21063198.063    21063201.869   -55515394.402 8  36402530.916 7
  22056782.128    22056787.165   -13914510.323 9 -12563855.598 9
  20577447.943    20577450.933   -41841466.344 7  24877900.593 7
 88  3 22  6 27 29.0800000  0  4G 6G13G11G 9
  22923789.426    22923793.310     1117554.508 8   2181124.643 7
  21060446.434    21060450.729   -55529850.176 8  36391266.691 7
  22068217.233    22068221.497   -13854420.086 9 -12517032.045 8
  20584287.440    20584291.899   -41805514.990 7  24905914.626 6
 88  3 22  6 27 59.0800000  0  4G 6G13G11G 9
  22944049.077    22944054.012     1224023.056 8   2264087.110 8
  21057772.435    21057776.934   -55543904.709 8  36380315.133 8
  22079683.046    22079687.066   -13794162.245 9 -12470077.884 7
  20591253.527    20591258.296   -41768917.003 8  24934432.512 7
 88  3 22  6 28 29.0800000  0  4G 6G13G11G 9
  22964374.727    22964378.967     1330833.412 9   2347315.956 8
  21055172.032    21055178.149   -55557559.228 9  36369675.244 7
  22091181.054    22091184.618   -13733738.569 8 -12422994.501 8
  20598339.625    20598342.603   -41731673.288 7  24963453.582 7
 88  3 22  6 28 59.0800000  0  4G 6G13G11G 9
  22984764.853    22984768.716     1437982.887 8   2430809.042 7
  21052648.986    21052655.039   -55570815.437 8  36359345.730 7
  22102713.263    22102716.024   -13673151.333 9 -12375783.655 8
  20605550.543    20605554.178   -41693784.672 7  24992977.166 5
 88  3 22  6 29 29.0800000  0  4G 6G13G11G 9
  23005219.570    23005223.687     1545468.851 9   2514564.323 8
  21050204.160    21050207.576   -55583673.594 8  36349326.406 8
  22114269.965    22114277.251   -13612402.396 8 -12328446.859 9
  20612881.794    20612886.106   -41655251.716 8  25023002.814 7
 88  3 22  6 29 59.0800000  0  4G 6G13G11G 9
  23025735.661    23025740.331     1653288.655 8   2598579.736 8
  21047832.208    21047836.565   -55596135.762 8  36339615.648 8
  22125860.442    22125866.051   -13551493.929 9 -12280985.759 8
  20620337.589    20620341.500   -41616075.009 8  25053530.104 7
 88  3 22  6 30 29.0800000  0  4G 6G13G11G 9
  23046317.107    23046321.458     1761439.413 8   2682853.016 8
  21045536.928    21045541.463   -55608202.789 9  36330212.776 7
  22137481.768    22137486.562   -13490427.811 9 -12233401.751 8
  20627914.280    20627918.537   -41576255.716 8  25084558.117 7
 88  3 22  6 30 59.0800000  0  4G 6G13G11G 9
  23066959.251    23066963.889     1869918.490 8   2767382.141 8
  21043315.419    21043318.332   -55619876.071 7  36321116.730 7
  22149131.884    22149137.307   -13429206.011 8 -12185696.483 8
  20635614.452    20635617.512   -41535794.379 8  25116086.417 7
 88  3 22  6 31 29.0800000  0  4G 6G13G11G 9
  23087665.246    23087668.768     1978723.073 8   2852164.915 7
  21041168.319    21041172.870   -55631156.952 7  36312326.440 7
  22160812.277    22160816.998   -13367830.614 9 -12137871.499 9
  20643436.667    20643439.650   -41494692.104 8  25148114.144 6
 88  3 22  6 31 59.0800000  0  4G 6G13G11G 9
  23108431.283    23108435.985     2087850.754 8   2937199.427 8
  21039096.285    21039100.351   -55642046.818 8  36303840.848 7
  22172520.203    22172524.322   -13306303.315 9 -12089928.157 8
  20651379.794    20651383.330   -41452949.621 8  25180640.749 6
 88  3 22  6 32 29.0800000  0  4G 6G13G11G 9
  23129257.531    23129263.525     2197298.647 8   3022483.473 8
  21037098.715    21037101.105   -55652546.361 8  36295659.384 7
  22184254.857    22184260.677   -13244625.968 8 -12041867.912 8
  20659443.657    20659447.697   -41410567.914 8  25213665.423 6
 88  3 22  6 32 59.0800000  0  4G 6G13G11G 9
  23150144.993    23150149.852     2307063.655 8   3108014.608 8
  21035173.995    21035178.948   -55662657.350 7  36287780.713 8
  22196022.821    22196026.428   -13182800.728 9 -11993692.420 8
  20667630.794    20667634.303   -41367547.938 8  25247187.475 7
 88  3 22  6 33 29.0800000  0  4G 6G13G11G 9
  23171093.594    23171098.280     2417143.163 8   3193790.829 8
  21033323.486    21033328.469   -55672381.041 8  36280203.819 7
  22207813.652    22207818.690   -13120829.692 8 -11945403.279 8
  20675939.190    20675942.824   -41323890.854 8  25281205.966 7
 88  3 22  6 33 59.0800000  0  4G 6G13G11G 9
  23192099.503    23192104.463     2527534.454 9   3279809.974 7
  21031545.844    21031551.817   -55681718.955 8  36272927.525 7
  22219633.045    22219637.955   -13058714.805 8 -11897002.074 7
  20684367.965    20684372.866   -41279597.492 9  25315720.269 6
 88  3 22  6 34 29.0800000  0  4G 6G13G11G 9
  23213165.353    23213169.588     2638234.626 9   3366069.825 9
  21029842.612    21029848.982   -55690672.744 8  36265950.580 7
  22231481.717    22231486.911   -12996457.756 9 -11848490.092 8
  20692917.689    20692920.821   -41234668.963 8  25350729.502 6
 88  3 22  6 34 59.0800000  0  4G 6G13G11G 9
  23234289.422    23234294.299     2749241.298 8   3452568.507 8
  21028210.531    21028216.157   -55699243.001 8  36259272.451 7
  22243356.287    22243361.453   -12934060.236 8 -11799868.671 8
  20701586.629    20701590.055   -41189106.168 8  25386232.955 7
 88  3 22  6 35 29.0800000  0  4G 6G13G11G 9
  23255470.334    23255476.393     2860551.256 8   3539303.511 8
  21026652.726    21026658.743   -55707431.343 9  36252891.929 8
  22255256.269    22255259.932   -12871524.797 8 -11751139.771 7
  20710376.999    20710380.067   -41142910.280 9  25422229.732 6
 88  3 22  6 35 59.0800000  0  4G 6G13G11G 9
  23276710.699    23276715.537     2972161.722 9   3626272.674 8
  21025167.182    21025171.803   -55715239.659 7  36246807.543 8
  22267183.210    22267185.530   -12808853.185 9 -11702304.698 7
  20719289.083    20719292.370   -41096082.672 7  25458718.772 6
 88  3 22  6 36 29.0800000  0  4G 6G13G11G 9
  23298005.998    23298009.408     3084070.221 9   3713474.098 8
  21023753.555    21023759.588   -55722668.650 8  36241018.713 7
  22279133.960    22279137.111   -12746046.735 8 -11653364.632 8
  20728321.238    20728324.899   -41048624.119 7  25495699.444 6
 88  3 22  6 36 59.0800000  0  4G 6G13G11G 9
  23319356.859    23319362.220     3196273.812 9   3800905.454 7
  21022413.310    21022417.478   -55729719.567 8  36235524.492 7
  22291110.754    22291115.178   -12683107.539 9 -11604321.125 7
  20737471.664    20737473.018   -41000535.953 8  25533170.750 6
 88  3 22  6 37 29.0800000  0  4G 6G13G11G 9
  23340765.134    23340767.277     3308769.876 8   3888564.700 7
  21021143.267    21021146.100   -55736393.797 8  36230323.810 7
  22303111.703    22303116.182   -12620037.415 8 -11555175.555 7
  20746741.451    20746744.534   -40951819.045 8  25571131.955 7
 88  3 22  6 37 59.0800000  0  4G 6G13G11G 9
  23362226.274    23362228.975     3421555.728 9   3976449.747 7
  21019944.674    21019947.781   -55742692.913 8  36225415.426 8
  22315136.775    22315142.829   -12556838.042 7 -11505929.299 7
  20756132.021    20756135.324   -40902474.700 8  25609582.096 6
 88  3 22  6 38 29.0800000  0  4G 6G13G11G 9
  23383744.195    23383746.859     3534627.714 8   4064557.759 7
  21018814.620    21018819.956   -55748618.950 8  36220797.747 8
  22327189.895    22327193.270   -12493512.078 9 -11456584.405 8
  20765640.193    20765644.295   -40852504.637 9  25648519.781 5
 88  3 22  6 38 59.0800000  0  4G 6G13G11G 9
  23405316.258    23405319.349     3647983.394 9   4152886.843 8
  21017758.325    21017763.512   -55754172.397 8  36216470.388 8
  22339264.680    22339267.383   -12430061.026 8 -11407141.998 9
  20775268.845    20775272.045   -40801910.071 8  25687944.119 6
 88  3 22  6 39 29.0800000  0  4G 6G13G11G 9
  23426938.946    23426943.213     3761619.870 8   4241434.725 7
  21016774.319    21016778.432   -55759355.859 7  36212431.327 8
  22351357.981    22351366.022   -12366486.325 7 -11357603.307 8
  20785015.671    20785017.960   -40750692.362 8  25727854.003 5
 88  3 22  6 39 59.0800000  0  4G 6G13G11G 9
  23448615.865    23448620.980     3875534.353 8   4330199.229 7
  21015856.213    21015860.250   -55764169.921 9  36208680.115 7
  22363482.352    22363485.708   -12302790.166 8 -11307969.963 7
  20794879.323    20794881.775   -40698852.597 8  25768248.615 6
 88  3 22  6 40 29.0800000  0  4G 6G13G11G 9
  23470345.057    23470349.896     3989724.121 8   4419178.224 7
  21015010.540    21015013.145   -55768615.805 9  36205215.805 7
  22375625.959    22375631.040   -12238974.304 8 -11258243.299 7
  20804861.532    20804865.293   -40646392.229 8  25809126.804 6
 88  3 22  6 40 59.0800000  0  4G 6G13G11G 9
  23492127.952    23492131.453     4104186.252 8   4508369.493 7
  21014234.182    21014238.115   -55772695.374 8  36202036.928 8
  22387792.352    22387795.709   -12175040.655 8 -11208424.873 8
  20814963.839    20814966.347   -40593312.527 8  25850487.593 6
 88  3 22  6 41 29.0800000  0  4G 6G13G11G 9
  23513958.771    23513964.357     4218917.757 9   4597770.640 7
  21013526.451    21013532.548   -55776410.619 8  36199141.938 8
  22399979.957    22399985.517   -12110990.675 7 -11158515.802 8
  20825181.528    20825183.737   -40539615.214 8  25892329.633 7
 88  3 22  6 41 59.0800000  0  4G 6G13G11G 9
  23535843.666    23535846.887     4333915.775 8   4687379.469 6
  21012890.036    21012892.312   -55779762.537 9  36196530.075 7
  22412189.192    22412196.117   -12046826.253 8 -11108517.593 9
  20835517.644    20835521.582   -40485301.651 8  25934651.870 7
 88  3 22  6 42 29.0800000  0  4G 6G13G11G 9
  23557777.683    23557781.037     4449177.399 9   4777193.720 7
  21012321.048    21012325.956   -55782752.180 7  36194200.487 7
  22424421.954    22424426.247   -11982549.233 9 -11058431.613 8
  20845969.204    20845971.416   -40430373.101 8  25977453.317 6
 88  3 22  6 42 59.0800000  0  4G 6G13G11G 9
  23579760.154    23579764.416     4564700.026 8   4867211.335 8
  21011819.165    21011823.788   -55785381.229 8  36192151.876 7
  22436674.092    22436679.059   -11918161.291 9 -11008259.177 7
  20856539.575    20856543.388   -40374831.236 8  26020732.688 7
 88  3 22  6 43 29.0800000  0  4G 6G13G11G 9
  23601793.195    23601797.445     4680480.821 9   4957430.116 8
  21011387.458    21011391.982   -55787650.928 8  36190383.289 7
  22448946.907    22448951.179   -11853663.921 8 -10958001.508 8
  20867224.969    20867228.387   -40318677.108 7  26064489.123 8
 88  3 22  6 43 59.0800000  0  4G 6G13G11G 9
  23623874.480    23623878.473     4796516.509 8   5047847.510 9
  21011024.006    21011029.546   -55789563.618 8  36188892.895 7
  22461241.931    22461246.227   -11789059.589 9 -10907660.486 8
  20878027.579    20878030.110   -40261912.945 7  26108720.921 7
 88  3 22  6 44 29.0800000  0  4G 6G13G11G 9
  23646002.295    23646006.368     4912803.954 7   5138461.090 8
  21010726.462    21010731.557   -55791120.490 8  36187679.762 7
  22473555.671    22473560.754   -11724350.122 8 -10857237.532 8
  20888943.543    20888949.006   -40204540.470 8  26153426.738 7
 88  3 22  6 44 59.0800000  0  4G 6G13G11G 9
  23668176.793    23668182.397     5029340.268 8   5229268.551 8
  21010498.201    21010504.200   -55792323.364 8  36186742.461 8
  22485888.472    22485894.660   -11659537.227 8 -10806733.992 9
  20899977.037    20899981.486   -40146561.311 8  26198605.276 7
 88  3 22  6 45 29.0800000  0  4G 6G13G11G 9
  23690399.655    23690407.107     5146122.725 8   5320267.854 8
  21010338.229    21010341.677   -55793173.090 9  36186080.363 7
  22498241.839    22498246.519   -11594622.188 8 -10756150.843 7
  20911125.881    20911129.148   -40087976.868 8  26244255.471 8
 88  3 22  6 45 59.0800000  0  4G 6G13G11G 9
  23712670.794    23712675.583     5263148.648 7   5411456.850 8
  21010242.013    21010247.567   -55793671.699 8  36185691.835 7
  22510613.317    22510617.676   -11529606.506 8 -10705489.292 8
  20922389.545    20922392.155   -40028788.526 9  26290376.243 8
 88  3 22  6 46 29.0800000  0  4G 6G13G11G 9
  23734984.457    23734991.037     5380414.920 8   5502833.134 8
  21010213.623    21010219.178   -55793820.634 8  36185575.786 7
  22523005.729    22523009.817   -11464492.273 9 -10654750.903 8
  20933766.214    20933771.505   -39968998.174 8  26336966.113 8
 88  3 22  6 46 59.0800000  0  4G 6G13G11G 9
  23757344.974    23757351.835     5497918.551 8   5594394.385 9
  21010252.920    21010257.598   -55793621.075 9  36185731.287 8
  22535413.001    22535419.978   -11399281.057 8 -10603937.003 9
  20945258.715    20945262.890   -39908607.531 7  26384023.737 8
 88  3 22  6 47 29.0800000  0  4G 6G13G11G 9
  23779749.071    23779754.993     5615656.776 8   5686138.427 8
  21010357.749    21010359.167   -55793075.068 8  36186156.763 7
  22547841.752    22547846.782   -11333974.561 9 -10553048.866 8
  20956865.911    20956869.708   -39847618.410 8  26431547.715 8
 88  3 22  6 47 59.0800000  0  4G 6G13G11G 9
  23802199.595    23802203.752     5733626.349 8   5778062.749 8
  21010526.112    21010529.719   -55792183.991 9  36186851.104 7
  22560287.736    22560290.206   -11268574.834 9 -10502087.991 8
  20968584.593    20968587.740   -39786032.696 8  26479536.556 7
 88  3 22  6 48 29.0800000  0  4G 6G13G11G 9
  23824692.170    23824695.525     5851824.953 8   5870165.537 9
  21010759.897    21010764.404   -55790948.937 9  36187813.488 7
  22572749.883    22572754.185   -11203082.940 9 -10451055.319 8
  20980417.266    20980420.080   -39723851.573 8  26527989.348 7
 88  3 22  6 48 59.0800000  0  4G 6G13G11G 9
  23847228.341    23847231.820     5970249.420 9   5962444.317 8
  21011060.878    21011064.454   -55789371.804 9  36189042.425 7
  22585229.453    22585235.235   -11137500.445 8 -10399952.119 9
  20992360.612    20992365.326   -39661077.307 8  26576904.365 7
 88  3 22  6 49 29.0800000  0  4G 6G13G11G 9
  23869805.619    23869809.374     6088896.413 9   6054896.500 8
  21011425.190    21011430.428   -55787454.481 8  36190536.454 7
  22597726.222    22597730.851   -11071829.471 8 -10348779.980 9
  21004420.525    21004424.783   -39597711.995 8  26626279.896 7
 88  3 22  6 49 59.0800000  0  4G 6G13G11G 9
  23892424.151    23892429.721     6207763.120 9   6147519.909 9
  21011856.013    21011859.061   -55785198.276 9  36192294.545 7
  22610240.406    22610243.147   -11006071.741 9 -10297540.168 7
  21016590.916    21016593.270   -39533757.324 9  26676114.700 7
 88  3 22  6 50 29.0800000  0  4G 6G13G11G 9
  23915085.109    23915090.487     6326846.426 9   6240312.052 8
  21012347.706    21012353.573   -55782605.151 7  36194315.167 7
  22622768.768    22622773.017   -10940228.885 9 -10246234.024 7
  21028872.349    21028877.427   -39469215.272 9  26726407.186 8
 88  3 22  6 50 59.0800000  0  4G 6G13G11G 9
  23937786.257    23937791.139     6446143.649 8   6333270.918 9
  21012905.652    21012911.404   -55779675.951 8  36196597.675 8
  22635313.386    22635318.181   -10874302.326 8 -10194862.696 8
  21041265.365    21041267.559   -39404087.580 9  26777156.023 8
 88  3 22  6 51 29.0800000  0  4G 6G13G11G 9
  23960528.036    23960533.841     6565651.862 7   6426394.179 8
  21013527.271    21013531.063   -55776412.621 8  36199140.526 8
  22647875.951    22647879.627   -10808293.781 9 -10143427.495 9
  21053771.140    21053772.913   -39338376.313 8  26828359.599 7
 88  3 22  6 51 59.0800000  0  4G 6G13G11G 9
  23983309.084    23983314.317     6685367.886 8   6519679.335 8
  21014212.139    21014215.644   -55772816.943 7  36201942.372 8
  22660451.317    22660456.049   -10742205.044 8 -10091929.780 9
  21066385.202    21066388.715   -39272083.369 8  26880016.415 7
 88  3 22  6 52 29.0800000  0  4G 6G13G11G 9
  24006129.797    24006134.690     6805288.857 7   6613124.203 9
  21014958.852    21014961.010   -55768890.361 9  36205002.048 7
  22673042.063    22673047.366   -10676037.352 8 -10040370.559 9
  21079110.789    21079113.552   -39205210.782 8  26932124.915 7
 88  3 22  6 52 59.0800000  0  4G 6G13G11G 9
  24028987.090    24028993.195     6925412.007 7   6706726.633 9
  21015767.978    21015772.271   -55764634.754 8  36208318.124 7
  22685650.279    22685652.518   -10609792.088 8  -9988750.859 8
  21091946.566    21091950.183   -39137760.285 8  26984683.724 7
 88  3 22  6 53 29.0800000  0  4G 6G13G11G 9
  24051881.818    24051891.551     7045733.878 6   6800483.893 9
  21016640.669    21016644.490   -55760051.615 8  36211889.405 7
  22698268.197    22698272.898   -10543471.195 8  -9937072.256 8
  21104890.499    21104894.191   -39069734.436 8  27037690.853 7
 88  3 22  6 53 59.0800000  0  4G 6G13G11G 9
  24074818.436    24074824.154     7166251.945 6   6894394.003 8
  21017574.317    21017578.610   -55755142.483 8  36215714.718 8
  22710904.823    22710909.023   -10477076.026 9  -9885335.776 9
  21117945.267    21117948.454   -39001134.945 8  27091144.987 8
 88  3 22  6 54 29.0800000  0  4G 6G13G11G 9
  24097790.041    24097795.346     7286963.114 7   6988454.659 8
  21018570.495    21018574.817   -55749908.860 8  36219792.866 8
  22723553.248    22723558.005   -10410608.304 8  -9833542.752 9
  21131108.041    21131112.017   -38931963.812 8  27145044.549 8
 88  3 22  6 54 59.0800000  0  4G 6G13G11G 9
  24120797.628    24120801.558     7407864.221 8   7082663.318 8
  21019629.833    21019631.666   -55744352.904 9  36224122.182 7
  22736213.248    22736219.387   -10344069.609 8  -9781694.436 8
  21144378.303    21144381.686   -38862223.475 8  27199387.658 7
 88  3 22  6 55 29.0800000  0  4G 6G13G11G 9
  24143837.721    24143844.469     7528952.324 8   7177017.663 9
  21020746.579    21020750.060   -55738476.063 9  36228701.548 7
  22748888.945    22748893.763   -10277461.581 7  -9729792.085 9
  21157757.185    21157761.411   -38791915.877 9  27254172.787 8
 88  3 22  6 55 59.0800000  0  4G 6G13G11G 9
  24166915.186    24166921.237     7650224.412 7   7271515.360 8
  21021924.944    21021928.738   -55732280.382 9  36233529.366 7
  22761577.886    22761582.954   -10210785.646 9  -9677836.828 8
  21171244.765    21171248.981   -38721043.392 8  27309398.065 7
 88  3 22  6 56 29.0800000  0  4G 6G13G11G 9
  24190028.226    24190033.827     7771677.354 9   7366154.006 9
  21023165.265    21023170.231   -55725766.876 8  36238604.824 8
  22774278.381    22774282.519   -10144043.406 9  -9625829.876 9
  21184838.433    21184840.723   -38649608.209 8  27365061.833 8
 88  3 22  6 56 59.0800000  0  4G 6G13G11G 9
  24213172.863    24213178.595     7893308.710 7   7460931.659 9
  21024465.427    21024470.451   -55718936.589 8  36243927.131 7
  22786989.676    22786995.494   -10077235.802 8  -9573772.016 9
  21198538.655    21198542.391   -38577611.984 8  27421162.773 7
 88  3 22  6 57 29.0800000  0  4G 6G13G11G 9
  24236352.471    24236357.184     8015115.200 8   7555845.814 7
  21025824.173    21025828.551   -55711791.636 8  36249494.640 7
  22799716.758    22799721.773   -10010364.789 9  -9521664.777 9
  21212345.349    21212349.839   -38505057.305 9  27477698.865 7
 88  3 22  6 57 59.0800000  0  4G 6G13G11G 9
  24259565.137    24259569.233     8137093.720 8   7650893.994 8
  21027243.330    21027247.709   -55704333.733 8  36255305.992 8
  22812453.770    22812458.421    -9943431.674 9  -9469509.108 9
  21226258.272    21226260.104   -38431946.552 7  27534668.280 7
 88  3 22  6 58 29.0800000  0  4G 6G13G11G 9
  24282807.530    24282812.965     8259241.379 8   7746073.946 8
  21028722.100    21028725.793   -55696564.913 8  36261359.625 8
  22825201.286    22825205.465    -9876438.176 8  -9417306.358 8
  21240276.236    21240280.810   -38358281.856 8  27592069.327 7
 88  3 22  6 58 59.0800000  0  4G 6G13G11G 9
  24306082.494    24306090.027     8381555.058 7   7841383.272 8
  21030258.566    21030264.318   -55688486.949 9  36267654.145 8
  22837960.907    22837966.317    -9809385.582 8  -9365057.614 9
  21254399.466    21254403.079   -38284065.488 9  27649900.246 7
 88  3 22  6 59 29.0800000  0  4G 6G13G11G 9
  24329391.191    24329396.569     8504032.366 6   7936820.123 8
  21031854.328    21031857.503   -55680100.277 8  36274189.221 8
  22850731.962    22850736.621    -9742274.933 7  -9312763.618 8
  21268627.893    21268630.513   -38209299.254 8  27708159.628 8
 88  3 22  6 59 59.0800000  0  4G 6G13G11G 9
  24352727.828    24352732.559     8626669.937 8   8032381.818 8
  21033507.955    21033512.847   -55671407.185 8  36280963.072 9
  22863514.948    22863517.725    -9675107.988 9  -9260425.768 8
  21282957.967    21282962.461   -38133985.823 8  27766845.406 8
 88  3 22  7  0 29.0800000  0  4G 6G13G11G 9
  24376095.332    24376100.771     8749464.551 7   8128065.889 8
  21035222.944    21035225.100   -55662409.848 9  36287973.986 7
  22876305.271    22876309.858    -9607886.362 9  -9208045.281 9
  21297393.776    21297396.590   -38058127.990 8  27825955.386 8
 88  3 22  7  0 59.0800000  0  4G 6G13G11G 9
  24399489.589    24399497.357     8872413.458 8   8223870.206 9
  21036990.786    21036994.751   -55653109.606 8  36295220.931 7
  22889106.998    22889112.263    -9540611.170 9  -9155623.067 8
  21311932.401    21311935.837   -37981727.575 8  27885488.141 8
 88  3 22  7  1 29.0800000  0  4G 6G13G11G 9
  24422916.063    24422922.379     8995513.355 8   8319792.167 8
  21038818.300    21038822.236   -55643507.960 8  36302702.739 8
  22901919.755    22901923.657    -9473284.178 9  -9103160.473 8
  21326573.671    21326577.416   -37904787.252 9  27945441.627 8
 88  3 22  7  1 59.0800000  0  4G 6G13G11G 9
  24446369.250    24446374.010     9118761.216 8   8415829.448 9
  21040701.735    21040706.140   -55633606.895 7  36310417.868 8
  22914741.579    22914745.902    -9405906.501 8  -9050658.407 9
  21341317.477    21341320.897   -37827309.383 8  28005813.963 9
 88  3 22  7  2 29.0800000  0  3G13G11G 9
  21042643.592    21042646.696   -55623408.138 7  36318364.942 7
  22927572.123    22927577.333    -9338479.643 9  -8998118.039 9
  21356161.540    21356166.345   -37749296.418 7  28066603.278 7
 88  3 22  7  2 59.0800000  0  3G13G11G 9
  21044639.263    21044643.649   -55612913.417 8  36326542.655 7
  22940411.984    22940416.250    -9271004.956 9  -8945540.368 8
  21371109.644    21371112.456   -37670750.727 8  28127807.684 7
 88  3 22  7  3 29.0800000  0  4G 3G13G11G 9
                  23397641.434   -96634814.134 9
  21046692.754    21046696.864   -55602124.035 8  36334949.969 8
  22953260.347    22953265.080    -9203483.866 9  -8892926.527 8
  21386156.736    21386160.783   -37591674.728 8  28189425.338 7
 88  3 22  7  3 59.0800000  0  4G 3G13G11G 9
  23385859.961    23385865.607   -96696847.859 8 122703837.216 8
  21048801.780    21048806.125   -55591041.755 8  36343585.506 8
  22966117.339    22966123.094    -9135917.744 8  -8840277.590 7
  21401303.589    21401309.383   -37512071.232 8  28251454.011 8
 88  3 22  7  4 29.0800000  0  4G 3G13G11G 9
  23374100.924    23374105.749   -96758645.858 8 122655682.968 8
  21050966.362    21050969.919   -55579668.683 8  36352447.661 8
  22978984.312    22978989.231    -9068308.105 9  -8787594.790 9
  21416551.550    21416555.954   -37431942.715 8  28313891.797 7
 88  3 22  7  4 59.0800000  0  4G 3G13G11G 9
  23362385.564    23362389.483   -96820207.673 7 122607712.736 8
  21053185.699    21053189.856   -55568005.438 8  36361535.891 9
  22991857.149    22991862.983    -9000655.712 8  -8734878.646 9
  21431899.964    21431903.811   -37351290.935 8  28376737.326 7
 88  3 22  7  5 29.0800000  0  4G 3G13G11G 9
  23350716.236    23350719.763   -96881534.003 7 122559926.027 7
  21055460.278    21055464.383   -55556054.660 8  36370848.195 8
  23004737.674    23004744.081    -8932962.452 9  -8682130.674 9
  21447345.367    21447349.811   -37270119.039 8  28439988.122 7
 88  3 22  7  5 59.0800000  0  4G 3G13G11G 9
  23339090.558    23339095.594   -96942625.400 7 122512322.356 7
  21057787.805    21057792.804   -55543817.755 8  36380383.443 8
  23017629.385    23017633.143    -8865229.244 8  -8629351.540 8
  21462892.734    21462896.008   -37188429.595 8  28503642.227 7
 88  3 22  7  6 29.0800000  0  4G 3G13G11G 9
  23327510.010    23327513.669   -97003482.534 8 122464901.212 7
  21060170.978    21060174.963   -55531296.588 8  36390140.206 8
  23030524.233    23030530.077    -8797457.497 8  -8576542.424 8
  21478534.657    21478537.101   -37106225.231 8  28567697.566 7
 88  3 22  7  6 59.0800000  0  4G 3G13G11G 9
  23315973.546    23315978.485   -97064105.206 8 122417662.809 9
  21062607.103    21062613.054   -55518493.141 8  36400116.929 8
  23043428.651    23043433.647    -8729648.643 8  -8523704.382 9
  21494275.227    21494279.261   -37023508.591 8  28632152.059 7
 88  3 22  7  7 29.0800000  0  4G 3G13G11G 9
  23304482.259    23304487.321   -97124493.444 7 122370607.059 9
  21065095.429    21065102.076   -55505408.825 8  36410312.509 7
  23056339.483    23056344.402    -8661803.771 8  -8470838.230 9
  21510113.302    21510117.132   -36940282.034 8  28697003.918 7
 88  3 22  7  7 59.0800000  0  4G 3G13G11G 9
  23293036.531    23293038.862   -97184647.325 7 122323733.918 8
  21067639.200    21067645.492   -55492044.907 8  36420725.953 8
  23069255.992    23069261.541    -8593924.039 9  -8417944.937 9
  21526048.304    21526049.563   -36856548.007 9  28762251.180 8
 88  3 22  7  8 29.0800000  0  4G 3G13G11G 9
  23281633.173    23281636.218   -97244567.397 8 122277042.970 8
  21070236.286    21070240.976   -55478402.987 9  36431356.017 8
  23082179.513    23082184.794    -8526011.026 8  -8365025.718 9
  21542077.147    21542079.807   -36772309.750 8  28827891.360 7
 88  3 22  7  8 59.0800000  0  4G 3G13G11G 9
  23270274.874    23270277.677   -97304253.996 7 122230533.954 7
  21072884.408    21072888.615   -55464484.978 8  36442201.244 8
  23095108.631    23095113.748    -8458066.103 8  -8312081.660 9
  21558202.951    21558205.239   -36687569.445 9  28893922.756 8
 88  3 22  7  9 29.0800000  0  4G 3G13G11G 9
  23258960.350    23258966.862   -97363707.073 8 122184206.914 8
  21075585.211    21075589.346   -55450292.979 9  36453259.952 9
  23108044.025    23108048.816    -8390090.044 8  -8259113.333 8
  21574423.884    21574426.970   -36602329.931 9  28960343.144 7
 88  3 22  7  9 59.0800000  0  4G 3G13G11G 9
  23247692.671    23247696.253   -97422927.412 7 122138061.236 8
  21078337.339    21078342.280   -55435828.710 8  36464530.813 8
  23120986.326    23120991.079    -8322084.188 8  -8206121.772 8
  21590738.365    21590741.540   -36516594.043 9  29027150.316 8
 88  3 22  7 10 29.0800000  0  4G 3G13G11G 9
  23236467.317    23236471.420   -97481914.286 8 122092097.433 8
  21081141.969    21081146.263   -55421093.005 8  36476013.173 8
  23133931.902    23133936.520    -8254049.496 8  -8153107.721 9
  21607147.718    21607150.277   -36430363.671 9  29094342.800 7
 88  3 22  7 10 59.0800000  0  4G 3G13G11G 9
  23225286.238    23225290.111   -97540668.647 7 122046314.832 8
  21083996.828    21084000.747   -55406087.930 9  36487705.438 9
  23146884.575    23146888.823    -8185987.448 8  -8100072.354 8
  21623649.023    21623653.085   -36343642.484 8  29161917.721 7
 88  3 22  7 11 29.0800000  0  4G 3G13G11G 9
  23214150.381    23214154.552   -97599191.375 9 122000712.714 7
  21086903.823    21086908.441   -55390815.458 8  36499606.077 8
  23159841.325    23159844.872    -8117899.244 8  -8047016.629 9
  21640244.312    21640247.800   -36256433.053 9  29229873.105 7
 88  3 22  7 11 59.0800000  0  4G 3G13G11G 9
  23203057.861    23203062.828   -97657482.682 7 121955290.958 8
  21089859.786    21089863.885   -55375277.071 8  36511713.899 8
  23172801.479    23172807.348    -8049785.968 8  -7993941.388 9
  21656932.180    21656937.084   -36168738.079 8  29298206.840 8
 88  3 22  7 12 29.0800000  0  4G 3G13G11G 9
  23192009.110    23192012.955   -97715542.813 9 121910049.308 8
  21092867.779    21092872.204   -55359474.672 9  36524027.471 8
  23185768.532    23185774.396    -7981649.352 9  -7940847.945 8
  21673712.140    21673716.632   -36080560.332 7  29366916.754 8
 88  3 22  7 12 59.0800000  0  4G 3G13G11G 9
  23181003.880    23181008.533   -97773371.952 8 121864987.666 8
  21095925.001    21095928.561   -55343409.678 8  36536545.638 7
  23198738.957    23198742.272    -7913490.142 8  -7887736.869 8
  21690583.309    21690585.609   -35991902.764 8  29436000.561 7
 88  3 22  7 13 29.0800000  0  4G 3G13G11G 9
  23170045.037    23170047.609   -97830970.093 9 121820106.024 8
  21099032.356    21099035.321   -55327083.480 8  36549267.355 7
  23211713.738    23211717.692    -7845309.373 8  -7834608.982 8
  21707544.852    21707549.745   -35902767.567 8  29505456.526 7
 88  3 22  7 13 59.0800000  0  4G 3G13G11G 9
  23159127.590    23159130.642   -97888337.988 8 121775403.785 7
  21102188.188    21102192.988   -55310498.403 8  36562190.803 7
  23224690.500    23224696.450    -7777108.303 7  -7781465.301 8
  21724597.777    21724601.639   -35813158.222 8  29575281.980 7
 88  3 22  7 14 29.0800000  0  4G 3G13G11G 9
  23148254.129    23148258.354   -97945475.971 8 121730880.690 8
  21105393.428    21105395.997   -55293656.344 8  36575314.493 8
  23237673.005    23237678.265    -7708887.752 8  -7728306.450 8
  21741739.075    21741741.275   -35723077.471 9  29645474.745 8
 88  3 22  7 14 59.0800000  0  4G 3G13G11G 9
  23137424.871    23137429.209   -98002384.700 7 121686536.221 7
  21108646.896    21108649.997   -55276558.645 8  36588637.371 7
  23250659.222    23250663.641    -7640649.150 8  -7675133.554 9
  21758970.521    21758973.464   -35632528.310 9  29716032.546 7
 88  3 22  7 15 29.0800000  0  4G 3G13G11G 9
  23126639.194    23126642.711   -98059064.650 8 121642370.069 8
  21111948.497    21111952.649   -55259207.136 9  36602158.033 7
  23263648.021    23263651.810    -7572393.565 8  -7621947.388 9
  21776290.513    21776292.642   -35541513.012 8  29786953.540 8
 88  3 22  7 15 59.0800000  0  4G 3G13G11G 9
  23115896.841    23115900.694   -98115515.206 9 121598382.644 8
  21115297.541    21115301.130   -55241602.675 8  36615875.793 8
  23276638.586    23276643.711    -7504121.739 7  -7568748.575 7
  21793697.245    21793701.106   -35450034.847 9  29858235.208 8
 88  3 22  7 16 29.0800000  0  4G 3G13G11G 9
  23105198.308    23105202.273   -98171737.306 8 121554573.234 8
  21118696.016    21118699.431   -55223747.551 8  36629788.873 7
  23289633.008    23289638.154    -7435834.995 7  -7515538.145 7
  21811192.694    21811196.871   -35358096.829 8  29929875.199 8
 88  3 22  7 16 59.0800000  0  4G 3G13G11G 9
  23094542.812    23094547.294   -98227731.641 8 121510941.295 8
  21122140.397    21122144.761   -55205643.500 8  36643895.930 8
  23302628.716    23302634.728    -7367534.619 7  -7462317.103 8
  21828775.085    21828778.548   -35265701.786 9  30001871.345 8
 88  3 22  7 17 29.0800000  0  4G 3G13G11G 9
  23083929.160    23083935.059   -98283498.437 8 121467486.668 9
  21125632.513    21125637.444   -55187291.975 8  36658195.825 8
  23315631.077    23315634.522    -7299221.528 8  -7409086.172 9
  21846443.795    21846447.537   -35172852.424 9  30074221.487 8
 88  3 22  7 17 59.0800000  0  4G 3G13G11G 9
  23073362.253    23073365.785   -98339037.981 8 121424209.101 8
  21129171.993    21129174.881   -55168694.873 8  36672687.078 7
  23328632.480    23328637.157    -7230896.980 8  -7355846.274 9
  21864198.610    21864202.786   -35079552.184 9  30146922.945 7
 88  3 22  7 18 29.0800000  0  4G 3G13G11G 9
  23062835.714    23062840.812   -98394350.474 8 121381108.498 7
  21132756.739    21132761.361   -55149853.466 9  36687368.706 7
  23341635.581    23341640.335    -7162561.604 8  -7302597.939 9
  21882038.712    21882041.185   -34985803.585 8  30219973.787 8
 88  3 22  7 18 59.0800000  0  4G 3G13G11G 9
  23052354.050    23052358.311   -98449436.815 9 121338184.090 8
  21136389.359    21136393.226   -55130770.209 9  36702238.767 8
  23354642.086    23354647.561    -7094216.901 8  -7249342.323 9
  21899962.665    21899966.182   -34891609.829 8  30293371.513 7
 88  3 22  7 19 29.0800000  0  4G 3G13G11G 9
  23041914.218    23041919.461   -98504297.405 7 121295435.604 9
  21140066.395    21140070.375   -55111446.424 9  36717296.269 8
  23367648.316    23367653.378    -7025863.612 9  -7196080.041 8
  21917971.728    21917975.075   -34796973.699 7  30367113.917 7
 88  3 22  7 19 59.0800000  0  4G 3G13G11G 9
  23031516.913    23031521.271   -98558932.422 8 121252862.891 8
  21143789.042    21143792.707   -55091883.438 8  36732540.168 9
  23380657.793    23380662.066    -6957502.696 7  -7142811.868 8
  21936062.268    21936065.788   -34701898.393 9  30441198.559 7
 88  3 22  7 20 29.0800000  0  4G 3G13G11G 9
  23021163.535    23021167.150   -98613342.268 8 121210465.629 7
  21147556.027    21147561.473   -55072083.127 8  36747968.982 7
  23393668.475    23393671.540    -6889135.247 9  -7089538.527 8
  21954238.236    21954243.126   -34606386.735 8  30515623.224 9
 88  3 22  7 20 59.0800000  0  4G 3G13G11G 9
  23010852.797    23010856.963   -98667527.627 7 121168243.306 8
  21151370.285    21151373.440   -55052046.887 8  36763581.641 8
  23406678.859    23406683.139    -6820762.238 9  -7036260.853 8
  21972496.165    21972498.953   -34510441.603 8  30590385.644 8
 88  3 22  7 21 29.0800000  0  4G 3G13G11G 9
  23000583.761    23000587.152   -98721488.051 8 121126196.230 8
  21155226.182    21155231.255   -55031775.741 9  36779377.348 8
  23419690.630    23419695.253    -6752383.836 9  -6982978.980 9
  21990835.886    21990840.062   -34414065.473 8  30665483.895 8
 88  3 22  7 21 59.0800000  0  4G 3G13G11G 9
  22990357.325    22990362.230   -98775224.781 7 121084323.495 9
  21159128.445    21159133.130   -55011272.546 9  36795353.850 7
  23432702.922    23432707.489    -6684001.921 9  -6929694.376 8
  22009257.971    22009261.273   -34317262.297 8  30740914.937 9
 88  3 22  7 22 29.0800000  0  4G 3G13G11G 9
  22980173.744    22980178.796   -98828738.753 8 121042624.319 9
  21163073.197    21163077.012   -54990538.451 8  36811510.307 8
  23445716.574    23445721.362    -6615617.446 8  -6876407.776 9
  22027759.785    22027763.891   -34220035.017 9  30816676.421 7
 88  3 22  7 22 59.0800000  0  4G 3G13G11G 9
  22970033.276    22970038.182   -98882030.250 8 121001098.506 8
  21167062.138    21167067.524   -54969575.456 9  36827845.120 8
  23458729.359    23458734.248    -6547231.104 8  -6823119.766 8
  22046341.990    22046344.378   -34122386.732 9  30892765.991 8
 88  3 22  7 23 29.0800000  0  4G 3G13G11G 9
  22959935.430    22959939.217   -98935099.646 7 120959745.730 8
  21171093.836    21171098.296   -54948385.088 9  36844357.092 7
  23471741.976    23471748.050    -6478844.072 8  -6769831.185 9
  22065001.980    22065006.084   -34024320.555 9  30969181.160 8
 88  3 22  7 23 59.0800000  0  4G 3G13G11G 9
  22949876.644    22949883.187   -98987947.208 8 120918565.825 8
  21175171.517    21175174.807   -54926969.316 9  36861044.701 8
  23484756.600    23484759.586    -6410457.162 9  -6716542.707 9
  22083742.930    22083747.607   -33925839.273 8  31045919.817 7
 88  3 22  7 24 29.0800000  0  4G 3G13G11G 9
  22939863.095    22939868.288   -99040573.618 8 120877558.272 8
  21179288.468    21179293.012   -54905329.100 9  36877907.207 8
  23497768.469    23497774.755    -6342071.289 8  -6663255.029 7
  22102560.005    22102566.557   -33826946.414 8  31122979.173 9
 88  3 22  7 24 59.0800000  0  4G 3G13G11G 9
  22929891.627    22929894.341   -99092979.731 8 120836722.367 8
  21183448.955    21183452.475   -54883466.989 8  36894942.627 8
  23510783.540    23510788.459    -6273687.436 8  -6609968.905 7
  22121458.041    22121461.288   -33727644.902 8  31200356.967 8
 88  3 22  7 25 29.0800000  0  4G 3G13G11G 9
  22919960.634    22919965.216   -99145165.637 7 120796058.032 8
  21187652.665    21187653.107   -54861384.155 9  36912150.044 7
  23523795.597    23523800.028    -6205305.995 8  -6556684.678 9
  22140432.031    22140434.461   -33627937.867 9  31278050.754 7
 88  3 22  7 25 59.0800000  0  4G 3G13G11G 9
  22910071.990    22910074.406   -99197131.702 8 120755565.015 8
  21191895.842    21191897.865   -54839082.016 9  36929528.342 8
  23536806.128    23536813.021    -6136928.210 7  -6503403.324 9
  22159481.631    22159486.695   -33527828.499 9  31356058.044 8
 88  3 22  7 26 29.0800000  0  4G 3G13G11G 9
  22900225.621    22900228.779   -99248878.768 8 120715242.617 9
  21196181.731    21196184.116   -54816562.239 9  36947076.218 8
  23549817.505    23549824.156    -6068555.240 7  -6450125.737 9
  22178607.556    22178611.288   -33427319.689 8  31434376.591 7
 88  3 22  7 26 59.0800000  0  4G 3G13G11G 9
  22890418.874    22890423.876   -99300407.134 8 120675090.686 8
  21200507.391    21200511.649   -54793826.257 9  36964792.564 9
  23562828.826    23562832.757    -6000187.267 7  -6396852.016 8
  22197809.721    22197813.797   -33326414.427 9  31513004.047 7
 88  3 22  7 27 29.0800000  0  4G 3G13G11G 9
  22880655.920    22880658.718   -99351717.583 8 120635108.546 8
  21204874.514    21204877.806   -54770875.997 8  36982675.882 7
  23575836.569    23575841.594    -5931825.730 9  -6343583.283 8
  22217085.806    22217089.152   -33225116.159 9  31591937.755 8
 88  3 22  7 27 59.0800000  0  4G 3G13G11G 9
  22870932.238    22870935.755   -99402810.016 9 120595296.245 8
  21209282.550    21209285.909   -54747713.130 8  37000724.872 8
  23588845.556    23588848.929    -5863471.111 9  -6290319.952 8
  22236435.642    22236441.350   -33123428.073 8  31671175.197 8
 88  3 22  7 28 29.0800000  0  4G 3G13G11G 9
  22861250.406    22861255.264   -99453685.608 8 120555652.932 9
  21213729.675    21213735.188   -54724339.241 8  37018938.278 9
  23601851.251    23601855.841    -5795124.435 9  -6237062.830 8
  22255859.484    22255864.921   -33021353.389 8  31750713.896 8
 88  3 22  7 28 59.0800000  0  4G 3G13G11G 9
  22851610.124    22851615.986   -99504344.800 8 120516178.243 8
  21218218.614    21218221.481   -54700755.813 9  37037314.964 8
  23614854.952    23614861.225    -5726786.522 9  -6183812.489 9
  22275358.106    22275362.140   -32918895.197 8  31830551.444 8
 88  3 22  7 29 29.0800000  0  4G 3G13G11G 9
  22842012.016    22842015.235   -99554788.103 8 120476871.820 8
  21222745.031    21222748.383   -54676964.169 9  37055853.920 8
  23627855.570    23627860.987    -5658457.809 8  -6130569.357 8
  22294926.928    22294931.476   -32816056.426 8  31910685.541 8
 88  3 22  7 29 59.0800000  0  4G 3G13G11G 9
  22832452.742    22832457.598   -99605015.933 8 120437733.252 7
  21227312.646    21227317.260   -54652965.709 9  37074554.014 8
  23640858.818    23640862.514    -5590138.932 8  -6077333.924 9
  22314568.816    22314573.720   -32712840.198 8  31991113.737 9
 88  3 22  7 30 29.0800000  0  4G 3G13G11G 9
  22822936.393    22822941.155   -99655029.161 8 120398761.893 8
  21231916.642    21231920.195   -54628762.621 9  37093413.570 8
  23653856.495    23653862.249    -5521831.171 9  -6024107.109 9
  22334280.701    22334284.933   -32609250.365 8  32071833.078 8
 88  3 22  7 30 59.0800000  0  4G 3G13G11G 9
  22813460.389    22813463.618   -99704828.237 8 120359957.438 8
  21236561.656    21236565.434   -54604356.082 9  37112431.668 7
  23666853.119    23666858.108    -5453535.264 8  -5970889.531 9
  22354063.789    22354068.954   -32505289.662 8  32152841.417 8
 88  3 22  7 31 29.0800000  0  4G 3G13G11G 9
  22804024.792    22804028.813   -99754413.343 8 120321319.728 8
  21241245.414    21241247.657   -54579748.044 8  37131606.763 7
  23679847.783    23679852.265    -5385251.835 9  -5917681.672 9
  22373917.891    22373921.746   -32400961.409 8  32234136.134 9
 88  3 22  7 31 59.0800000  0  4G 3G13G11G 9
  22794629.993    22794632.991   -99803785.418 9 120282847.987 7
  21245965.928    21245968.774   -54554939.883 9  37150937.801 7
  23692838.913    23692843.235    -5316981.743 8  -5864484.206 9
  22393839.031    22393844.950   -32296269.059 8  32315714.571 8
 88  3 22  7 32 29.0800000  0  3G 3G13G 9
  22785273.421    22785278.236   -99852944.882 6 120244541.910 4
  21250724.226    21250727.667   -54529933.292 8  37170423.451 8
  22413829.990    22413835.290   -32191215.256 7  32397574.646 8
 88  3 22  7 32 59.0800000  0  4G 3G13G12G 9
  22775959.027    22775964.135   -99901892.789 8 120206400.709 7
  21255519.831    21255523.973   -54504730.314 8  37190062.124 7
  21015264.861    21015270.650  -107094064.470 8 136098584.838 8
  22433890.352    22433892.960   -32085803.889 7  32479713.369 8
 88  3 22  7 33 29.0800000  0  4G 3G13G12G 9
  22766686.196    22766689.848   -99950629.216 8 120168424.286 9
  21260352.275    21260357.177   -54479331.659 9  37209853.277 8
  21018233.241    21018238.393  -107078461.893 8 136110743.156 8
  22454016.773    22454020.083   -31980038.042 8  32562128.301 8
 88  3 22  7 33 59.0800000  0  4G 3G13G12G 9
  22757450.684    22757455.147   -99999154.934 8 120130612.044 8
  21265223.440    21265226.280   -54453739.506 9  37229795.219 8
  21021325.151    21021329.386  -107062213.643 9 136123404.112 8
  22474209.844    22474214.773   -31873920.871 8  32644816.995 8
 88  3 22  7 34 29.0800000  0  4G 3G13G12G 9
  22748257.525    22748260.018  -100047470.766 7 120092963.373 8
  21270131.263    21270134.060   -54427954.705 9  37249887.287 8
  21024539.263    21024544.385  -107045320.191 8 136136567.849 8
  22494469.402    22494473.787   -31767455.590 8  32727776.917 7
 88  3 22  7 34 59.0800000  0  4G 3G13G12G 9
  22739103.680    22739107.122  -100095576.989 7 120055478.021 7
  21275073.287    21275078.118   -54401979.522 8  37270127.686 8
  21027877.204    21027882.404  -107027780.948 8 136150234.773 8
  22514795.945    22514797.653   -31660645.572 9  32811005.488 7
 88  3 22  7 35 29.0800000  0  4G 3G13G12G 9
  22729987.366    22729992.596  -100143473.782 7 120018155.849 8
  21280051.369    21280056.714   -54375814.428 8  37290516.060 8
  21031338.264    21031343.078  -107009597.209 8 136164403.902 7
  22535185.661    22535188.401   -31553493.931 8  32894500.275 7
 88  3 22  7 35 59.0800000  0  4G 3G13G12G 9
  22720913.380    22720917.472  -100191162.295 7 119980995.992 8
  21285067.143    21285070.426   -54349461.808 8  37311050.575 8
  21034920.851    21034925.173  -106990768.637 9 136179075.515 7
  22555639.056    22555644.619   -31446003.957 8  32978258.674 8
 88  3 22  7 36 29.0800000  0  4G 3G13G12G 9
  22711878.975    22711882.565  -100238643.068 7 119943998.002 8
  21290116.257    21290121.401   -54322922.577 8  37331730.489 8
  21038626.110    21038631.593  -106971296.223 8 136194248.819 8
  22576157.203    22576161.581   -31338179.028 9  33062278.091 8
 88  3 22  7 36 59.0800000  0  4G 3G13G12G 9
  22702881.332    22702887.521  -100285917.187 8 119907161.044 9
  21295202.774    21295205.557   -54296199.377 8  37352553.765 8
  21042454.415    21042459.877  -106951180.645 8 136209923.273 8
  22596738.500    22596744.276   -31230022.773 8  33146555.658 8
 88  3 22  7 37 29.0800000  0  4G 3G13G12G 9
  22693925.889    22693930.499  -100332984.619 8 119870485.138 8
  21300321.574    21300326.404   -54269293.130 8  37373519.667 7
  21046404.120    21046409.743  -106930422.090 8 136226098.754 8
  22617382.544    22617387.984   -31121538.164 8  33231089.105 7
 88  3 22  7 37 59.0800000  0  4G 3G13G12G 9
  22685007.650    22685012.229  -100379845.768 7 119833969.980 9
  21305478.178    21305479.600   -54242205.010 8  37394627.291 7
  21050477.863    21050481.332  -106909020.832 9 136242775.051 8
  22638089.061    22638093.994   -31012728.287 8  33315876.012 8
 88  3 22  7 38 29.0800000  0  4G 3G13G12G 9
  22676130.994    22676134.342  -100426501.749 8 119797614.684 8
  21310664.487    21310669.017   -54214936.498 9  37415875.473 7
  21054672.553    21054675.400  -106886977.992 8 136259951.270 7
  22658856.293    22658860.121   -30903596.727 7  33400913.580 9
 88  3 22  7 38 59.0800000  0  4G 3G13G12G 9
  22667289.964    22667294.854  -100472953.422 8 119761418.576 8
  21315888.516    21315893.559   -54187489.237 8  37437262.959 8
  21058988.200    21058992.894  -106864294.305 9 136277626.883 8
  22679684.491    22679689.091   -30794146.795 8  33486199.217 8
 88  3 22  7 39 29.0800000  0  4G 3G13G12G 9
  22658487.732    22658492.992  -100519201.145 8 119725381.405 8
  21321144.081    21321150.660   -54159864.857 8  37458788.459 8
  21063426.792    21063430.877  -106840970.227 9 136295801.454 8
  22700572.211    22700575.201   -30684381.829 8  33571730.344 8
 88  3 22  7 39 59.0800000  0  4G 3G13G12G 9
  22649729.239    22649731.051  -100565245.946 8 119689502.363 8
  21326437.197    21326439.007   -54132064.681 9  37480450.948 8
  21067987.064    21067991.341  -106817006.754 8 136314474.287 7
  22721519.256    22721523.135   -30574305.327 8  33657504.217 8
 88  3 22  7 40 29.0800000  0  4G 3G13G12G 9
  22641003.758    22641009.949  -100611087.534 8 119653781.654 8
  21331759.073    21331763.958   -54104089.727 8  37502249.605 9
  21072669.567    21072674.318  -106792403.562 8 136333645.591 8
  22742524.387    22742528.918   -30463919.903 7  33743518.833 8
 88  3 22  7 40 59.0800000  0  4G 3G13G12G 9
  22632320.950    22632323.574  -100656727.196 7 119618218.336 8
  21337116.348    21337119.417   -54075942.173 9  37524182.759 8
  21077471.899    21077476.942  -106767161.805 8 136353314.498 7
  22763587.814    22763591.648   -30353229.412 8  33829771.141 7
 88  3 22  7 41 29.0800000  0  4G 3G13G12G 9
  22623673.956    22623677.068  -100702165.115 8 119582812.169 8
  21342503.789    21342508.659   -54047623.153 9  37546249.549 7
  21082396.730    21082402.155  -106741282.556 9 136373480.109 8
  22784709.756    22784714.456   -30242237.074 8  33916258.653 8
 88  3 22  7 41 59.0800000  0  4G 3G13G12G 9
  22615063.825    22615067.185  -100747402.348 8 119547562.387 8
  21347925.426    21347930.586   -54019134.408 8  37568448.554 8
  21087442.269    21087446.713  -106714766.797 8 136394141.753 7
  22805886.366    22805891.600   -30130946.417 8  34002978.630 8
 88  3 22  7 42 29.0800000  0  4G 3G13G12G 9
  22606494.653    22606498.064  -100792439.861 7 119512468.230 8
  21353378.803    21353383.664   -53990477.252 8  37590778.796 8
  21092608.583    21092613.762  -106687615.151 7 136415298.871 7
  22827120.715    22827125.632   -30019360.820 8  34089928.432 9
 88  3 22  7 42 59.0800000  0  4G 3G13G12G 9
  22597961.641    22597966.087  -100837277.436 8 119477529.866 8
  21358863.030    21358867.271   -53961652.392 7  37613239.753 8
  21097897.382    21097901.425  -106659827.879 8 136436951.276 8
  22848410.594    22848413.584   -29907482.964 9  34177105.969 7
 88  3 22  7 43 29.0800000  0  4G 3G13G12G 9
  22589467.303    22589471.096  -100881915.904 7 119442746.666 9
  21364381.315    21364384.854   -53932661.363 9  37635830.166 7
  21103304.950    21103310.032  -106631406.006 8 136459098.172 8
  22869755.918    22869758.426   -29795316.429 8  34264508.453 8
 88  3 22  7 43 59.0800000  0  4G 3G13G12G 9
  22581011.190    22581015.480  -100926356.802 7 119408117.401 7
  21369929.332    21369932.204   -53903507.113 8  37658547.761 8
  21108834.110    21108838.332  -106602351.336 9 136481738.170 8
  22891155.420    22891157.422   -29682865.158 8  34352132.811 8
 88  3 22  7 44 29.0800000  0  4G 3G13G12G 9
  22572591.751    22572595.744  -100970600.745 8 119373641.614 8
  21375507.455    21375512.044   -53874190.526 9  37681391.858 7
  21114484.033    21114487.408  -106572664.591 9 136504870.690 8
  22912605.471    22912610.546   -29570132.689 8  34439976.266 7
 88  3 22  7 44 59.0800000  0  4G 3G13G12G 9
  22564209.231    22564214.393  -101014648.020 7 119339319.080 9
  21381117.345    21381120.715   -53844712.633 8  37704361.656 8
  21120253.715    21120256.676  -106542346.569 8 136528495.105 8
  22934110.810    22934115.961   -29457122.126 9  34528036.426 8
 88  3 22  7 45 29.0800000  0  4G 3G13G12G 9
  22555865.325    22555868.550  -101058499.288 8 119305149.278 8
  21386756.886    21386761.230   -53815074.578 9  37727456.236 8
  21126142.378    21126145.756  -106511398.581 8 136552610.419 7
  22955668.846    22955674.023   -29343836.693 9  34616310.791 9
 88  3 22  7 45 59.0800000  0  4G 3G13G12G 9
  22547558.158    22547561.558  -101102154.903 8 119271131.911 9
  21392427.704    21392431.318   -53785277.965 8  37750674.397 8
  21132152.313    21132155.982  -106479821.307 8 136577216.076 7
  22977278.093    22977280.467   -29230279.587 7  34704796.834 8
 88  3 22  7 46 29.0800000  0  4G 3G13G12G 9
  22539286.959    22539291.690  -101145616.170 8 119237266.036 9
  21398127.513    21398131.529   -53755324.778 8  37774014.531 8
  21138278.693    21138286.213  -106447615.536 8 136602311.463 7
  22998938.514    22998941.836   -29116454.147 7  34793491.963 8
 88  3 22  7 46 59.0800000  0  4G 3G13G12G 9
  22531053.707    22531058.223  -101188883.205 8 119203551.478 9
  21403857.487    21403862.347   -53725215.683 8  37797476.155 8
  21144528.400    21144532.058  -106414782.322 8 136627895.780 7
  23020648.338    23020653.278   -29002364.090 7  34882393.285 9
 88  3 22  7 47 29.0800000  0  4G 3G13G12G 9
  22522856.299    22522859.810  -101231956.901 8 119169987.571 9
  21409617.196    21409618.850   -53694952.138 7  37821058.136 9
  21150894.291    21150900.207  -106381323.216 9 136653967.783 7
  23042410.338    23042414.437   -28888012.501 8  34971498.378 9
 88  3 22  7 47 59.0800000  0  4G 3G13G12G 9
  22514696.774    22514701.198  -101274837.932 8 119136573.790 8
  21415404.606    21415407.919   -53664535.588 9  37844759.369 7
  21157380.243    21157384.010  -106347239.190 8 136680526.766 8
  23064219.283    23064223.589   -28773402.964 8  35060804.492 8
 88  3 22  7 48 29.0800000  0  4G 3G13G12G 9
  22506573.772    22506578.548  -101317527.044 9 119103309.558 8
  21421220.119    21421224.162   -53633967.298 8  37868578.798 8
  21163984.330    21163990.419  -106312531.716 8 136707571.539 8
  23086076.905    23086079.704   -28658538.926 8  35150308.929 7
 88  3 22  7 48 59.0800000  0  4G 3G13G12G 9
  22498486.300    22498490.640  -101360025.119 8 119070194.200 8
  21427066.971    21427070.112   -53603248.595 8  37892515.460 8
  21170707.891    21170714.122  -106277201.422 8 136735101.621 8
  23107982.969    23107986.659   -28543423.562 9  35240009.223 7
 88  3 22  7 49 29.0800000  0  4G 3G13G12G 9
  22490435.614    22490440.780  -101402332.575 8 119037227.347 9
  21432940.838    21432943.634   -53572380.572 8  37916568.484 8
  21177549.898    21177552.028  -106241249.738 8 136763115.914 8
  23129935.502    23129940.571   -28428060.044 8  35329902.825 7
 88  3 22  7 49 59.0800000  0  4G 3G13G12G 9
  22482419.535    22482424.744  -101444450.396 7 119004408.282 8
  21438841.691    21438846.964   -53541365.202 9  37940736.298 9
  21184508.300    21184513.889  -106204678.789 8 136791612.744 7
  23151935.995    23151939.085   -28312452.145 9  35419986.880 8
 88  3 22  7 50 29.0800000  0  4G 3G13G12G 9
  22474441.544    22474445.478  -101486379.136 8 118971736.571 8
  21444772.909    21444775.463   -53510203.531 9  37965018.114 8
  21191585.951    21191591.689  -106167488.980 8 136820591.785 7
  23173981.350    23173984.615   -28196603.292 8  35510258.711 7
 88  3 22  7 50 59.0800000  0  4G 3G13G12G 9
  22466499.897    22466503.269  -101528119.854 8 118939211.341 8
  21450729.969    21450734.539   -53478897.267 8  37989412.616 8
  21198780.179    21198785.181  -106129681.979 9 136850051.783 8
  23196071.782    23196074.602   -28080516.969 8  35600715.598 8
 88  3 22  7 51 29.0800000  0  4G 3G13G12G 9
  22458592.178    22458595.052  -101569672.544 7 118906832.631 9
  21456715.733    21456719.390   -53447447.354 8  38013919.049 8
  21206090.969    21206097.115  -106091258.808 8 136879991.899 8
  23218205.364    23218209.843   -27964196.309 8  35691355.045 8
 88  3 22  7 51 59.0800000  0  4G 3G13G12G 9
  22450719.973    22450724.648  -101611038.429 7 118874599.498 9
  21462726.426    21462729.765   -53415855.229 7  38038536.272 8
  21213520.525    21213525.045  -106052221.555 9 136910410.527 8
  23240384.619    23240388.823   -27847644.973 9  35782174.242 8
 88  3 22  7 52 29.0800000  0  4G 3G13G12G 9
  22442883.700    22442887.187  -101652218.030 7 118842511.508 8
  21468764.530    21468769.863   -53384121.674 9  38063263.703 8
  21221065.439    21221069.147  -106012570.999 8 136941307.056 8
  23262607.170    23262611.196   -27730866.064 8  35873170.795 7
 88  3 22  7 52 59.0800000  0  4G 3G13G12G 9
  22435082.859    22435087.114  -101693211.765 8 118810568.357 7
  21474832.088    21474835.330   -53352248.365 9  38088100.054 8
  21228727.886    21228732.351  -105972309.042 9 136972679.984 8
  23284872.394    23284877.173   -27613862.965 8  35964342.042 8
 88  3 22  7 53 29.0800000  0  4G 3G13G12G 9
  22427315.232    22427320.906  -101734020.623 7 118778769.266 8
  21480921.250    21480925.793   -53320236.859 9  38113044.097 8
  21236504.547    21236510.416  -105931436.533 9 137004528.693 8
  23307179.600    23307183.396   -27496639.146 8  36055685.250 9
 88  3 22  7 53 59.0800000  0  4G 3G13G12G 9
  22419586.208    22419591.036  -101774645.576 8 118747113.478 9
  21487039.317    21487044.218   -53288088.040 9  38138095.109 8
  21244398.508    21244402.550  -105889955.513 8 137036851.545 8
  23329527.924    23329531.669   -27379198.216 7  36147197.635 8
 88  3 22  7 54 29.0800000  0  4G 3G13G12G 9
  22411890.307    22411893.389  -101815086.907 8 118715600.771 8
  21493184.429    21493187.211   -53255803.267 8  38163252.089 8
  21252408.153    21252413.058  -105847867.216 9 137069647.610 8
  23351916.425    23351920.890   -27261543.046 7  36238876.974 8
 88  3 22  7 54 59.0800000  0  4G 3G13G12G 9
  22404230.367    22404233.073  -101855345.124 8 118684230.745 9
  21499352.980    21499356.721   -53223384.037 8  38188513.853 8
  21260532.851    21260537.370  -105805172.968 8 137102915.849 8
  23374345.531    23374350.351   -27143677.400 8  36330720.319 7
 88  3 22  7 55 29.0800000  0  4G 3G13G12G 9
  22396600.856    22396608.279  -101895421.469 7 118653002.429 8
  21505545.940    21505552.187   -53190831.065 8  38213879.759 8
  21268771.490    21268777.270  -105761874.771 8 137136654.697 9
  23396815.162    23396818.647   -27025604.605 6  36422725.072 8
 88  3 22  7 55 59.0800000  0  4G 3G13G12G 9
  22389010.652    22389017.217  -101935317.057 8 118621914.956 8
  21511767.550    21511769.947   -53158146.055 8  38239348.609 8
  21277125.663    21277129.768  -105717974.573 8 137170862.626 9
  23419321.673    23419326.475   -26907328.298 8  36514888.416 9
 88  3 22  7 56 29.0800000  0  4G 3G13G12G 9
  22381452.406    22381457.229  -101975032.235 8 118590968.109 7
  21518010.879    21518014.878   -53125330.176 8  38264919.431 8
  21285594.674    21285600.562  -105673473.473 8 137205538.786 8
  23441867.330    23441871.495   -26788851.548 8  36607207.936 9
 88  3 22  7 56 59.0800000  0  4G 3G13G12G 9
  22373930.767    22373935.412  -102014567.140 8 118560161.692 8
  21524280.853    21524285.609   -53092384.008 7  38290591.749 8
  21294175.876    21294181.644  -105628372.651 8 137240682.277 8
  23464450.530    23464454.376   -26670177.756 7  36699681.014 8
 88  3 22  7 57 29.0800000  0  4G 3G13G12G 9
  22366440.315    22366444.872  -102053922.700 7 118529495.049 8
  21530574.808    21530578.979   -53059309.031 9  38316364.441 8
  21302873.914    21302877.386  -105582674.147 9 137276291.497 8
  23487069.677    23487074.048   -26551310.107 7  36792305.140 8
 88  3 22  7 57 59.0800000  0  4G 3G13G12G 9
  22358986.542    22358990.577  -102093099.707 8 118498967.508 9
  21536892.032    21536896.272   -53026106.408 8  38342236.605 8
  21311682.856    21311686.997  -105536379.841 8 137312364.967 8
  23509725.455    23509729.915   -26432252.275 8  36885077.451 8
 88  3 22  7 58 29.0800000  0  4G 3G13G12G 9
  22351564.991    22351568.032  -102132098.497 8 118468578.852 8
  21543234.295    21543239.553   -52992777.870 9  38368206.892 8
  21320606.092    21320609.668  -105489491.405 8 137348901.389 8
  23532417.455    23532421.986   -26313007.590 7  36977995.384 8
 88  3 22  7 58 59.0800000  0  4G 3G13G12G 9
  22344179.053    22344181.895  -102170920.501 8 118438327.970 8
  21549600.368    21549605.629   -52959324.579 7  38394274.406 9
  21329640.379    21329644.944  -105442010.768 8 137385899.284 8
  23555143.391    23555146.729   -26193579.650 8  37071056.097 7
 88  3 22  7 59 29.0800000  0  4G 3G13G12G 9
  22336824.458    22336827.450  -102209566.090 8 118408214.511 8
  21555988.193    21555995.411   -52925747.201 8  38420438.575 8
  21338788.449    21338793.042  -105393939.871 8 137423357.098 7
  23577903.436    23577907.981   -26073971.748 8  37164257.045 8
 88  3 22  7 59 59.0800000  0  4G 3G13G12G 9
  22329503.790    22329506.243  -102248035.926 7 118378238.044 9
  21562404.893    21562408.577   -52892047.025 8  38446698.433 8
  21348047.398    21348052.543  -105345280.254 8 137461273.684 7
  23600697.059    23600703.687   -25954186.913 8  37257595.862 9
 88  3 22  8  0 29.0800000  0  4G 3G13G12G 9
  22322216.324    22322219.399  -102286331.050 8 118348397.698 8
  21568840.825    21568844.926   -52858225.509 9  38473052.867 8
  21357418.548    21357423.855  -105296034.141 8 137499647.249 8
  23623524.332    23623529.918   -25834229.037 7  37351069.524 8
 88  3 22  8  0 59.0800000  0  4G 3G13G12G 9
  22314961.920    22314965.715  -102324452.144 8 118318692.964 8
  21575297.933    21575303.780   -52824283.480 8  38499501.191 8
  21366902.238    21366905.307  -105246202.903 7 137538476.779 8
  23646384.842    23646387.825   -25714101.485 7  37444675.399 7
 88  3 22  8  1 29.0800000  0  4G 3G13G12G 9
  22307740.990    22307744.597  -102362399.423 8 118289123.648 8
  21581780.913    21581785.602   -52790222.533 8  38526042.149 8
  21376495.514    21376499.199  -105195788.349 8 137577760.823 7
  23669275.893    23669280.144   -25593807.287 9  37538411.103 8
 88  3 22  8  1 59.0800000  0  4G 3G13G12G 9
  22300552.580    22300556.757  -102400174.391 8 118259688.625 8
  21588283.268    21588288.426   -52756043.197 8  38552675.397 8
  21386198.258    21386203.774  -105144793.089 8 137617497.380 7
  23692198.912    23692202.170   -25473350.264 8  37632273.707 8
 88  3 22  8  2 29.0800000  0  4G 3G13G12G 9
  22293397.783    22293401.618  -102437776.983 7 118230387.902 9
  21594810.923    21594814.019   -52721746.529 9  38579400.085 7
  21396013.966    21396018.199  -105093217.968 7 137657685.772 7
  23715150.415    23715156.101   -25352733.304 8  37726260.923 8
 88  3 22  8  2 59.0800000  0  4G 3G13G12G 9
  22286273.414    22286278.783  -102475208.703 8 118201220.353 9
  21601360.068    21601361.176   -52687334.702 8  38606214.486 8
  21405938.021    21405941.839  -105041065.592 9 137698323.962 7
  23738134.052    23738136.846   -25231960.195 8  37820369.837 9
 88  3 22  8  3 29.0800000  0  4G 3G13G12G 9
  22279184.134    22279186.401  -102512470.036 8 118172185.560 9
  21607929.646    21607933.874   -52652808.219 9  38633118.255 8
  21415970.573    21415976.280  -104988338.127 9 137739410.280 8
  23761145.952    23761149.719   -25111034.371 8  37914597.780 8
 88  3 22  8  3 59.0800000  0  4G 3G13G12G 9
  22272124.122    22272128.954  -102549561.231 8 118143283.343 8
  21614521.292    21614525.048   -52618167.754 8  38660110.813 8
  21426113.253    21426119.503  -104935037.068 9 137780943.563 8
  23784184.483    23784188.827   -24989958.673 8  38008942.431 8
 88  3 22  8  4 29.0800000  0  4G 3G13G12G 9
  22265099.701    22265101.131  -102586483.229 8 118114512.981 9
  21621133.941    21621139.572   -52583414.103 8  38687191.567 7
  21436365.422    21436369.506  -104881165.173 8 137822921.652 8
  23807251.922    23807257.409   -24868736.898 8  38103400.925 8
 88  3 22  8  4 59.0800000  0  4G 3G13G12G 9
  22258104.643    22258109.642  -102623236.342 7 118085874.196 8
  21627767.510    21627774.286   -52548548.797 8  38714359.313 8
  21446725.292    21446730.071  -104826723.705 9 137865343.564 8
  23830347.678    23830352.550   -24747371.650 8  38197971.220 9
 88  3 22  8  5 29.0800000  0  4G 3G13G12G 9
  22251142.935    22251147.172  -102659821.621 7 118057366.193 8
  21634424.948    21634428.848   -52513572.898 8  38741613.254 8
  21457193.584    21457198.892  -104771714.798 9 137908207.642 8
  23853469.234    23853473.769   -24625866.829 8  38292650.287 8
 88  3 22  8  5 59.0800000  0  4G 3G13G12G 9
  22244212.843    22244217.252  -102696240.230 7 118028988.064 9
  21641102.476    21641104.875   -52478487.747 9  38768952.355 7
  21467768.951    21467773.509  -104716141.215 9 137951511.698 8
  23876615.179    23876621.370   -24504226.002 7  38387435.315 8
 88  3 22  8  6 29.0800000  0  4G 3G13G12G 9
  22237314.449    22237317.690  -102732492.258 7 118000739.751 8
  21647799.123    21647801.992   -52443293.884 9  38796376.128 8
  21478451.688    21478455.838  -104660004.955 9 137995254.231 8
  23899788.818    23899794.906   -24382452.429 8  38482323.757 8
 88  3 22  8  6 59.0800000  0  4G 3G13G12G 9
  22230447.336    22230452.036  -102768578.710 8 117972620.456 8
  21654517.145    21654518.982   -52407992.715 9  38823883.562 7
  21489241.293    21489244.826  -104603308.441 9 138039433.318 8
  23922986.621    23922991.423   -24260549.669 8  38577312.901 8
 88  3 22  8  7 29.0800000  0  4G 3G13G12G 9
  22223611.642    22223616.409  -102804500.632 9 117944629.348 9
  21661254.745    21661256.640   -52372585.492 8  38851473.614 7
  21500137.299    21500140.040  -104546053.175 8 138084047.808 8
  23946206.283    23946214.131   -24138520.932 8  38672400.192 9
 88  3 22  8  7 59.0800000  0  4G 3G13G12G 9
  22216807.757    22216810.716  -102840258.169 8 117916766.363 8
  21668010.542    21668014.785   -52337072.721 9  38879145.884 8
  21511138.517    21511140.891  -104488241.343 9 138129095.975 8
  23969454.664    23969457.520   -24016369.190 8  38767583.359 8
 88  3 22  8  8 29.0800000  0  4G 3G13G12G 9
  22210032.562    22210037.647  -102875852.855 8 117889030.245 8
  21674789.838    21674794.524   -52301456.239 8  38906898.956 8
  21522243.674    21522248.741  -104429875.805 9 138174575.602 8
  23992720.216    23992726.862   -23894098.525 8  38862859.137 8
 88  3 22  8  8 59.0800000  0  4G 3G13G12G 9
  22203292.413    22203294.013  -102911284.847 8 117861420.921 8
  21681587.477    21681591.848   -52265736.177 9  38934732.757 7
  21533455.357    21533459.371  -104370958.434 9 138220485.219 8
  24016010.634    24016014.269   -23771711.803 9  38958225.394 7
 88  3 22  8  9 29.0800000  0  4G 3G13G12G 9
  22196578.747    22196582.463  -102946554.689 9 117833937.911 8
  21688403.946    21688408.548   -52229913.810 9  38962646.294 8
  21544771.454    21544776.676  -104311491.741 9 138266822.894 9
  24039320.398    24039325.171   -23649212.317 8  39053679.546 8
 88  3 22  8  9 59.0800000  0  4G 3G13G12G 9
  22189898.491    22189902.949  -102981663.422 9 117806580.473 9
  21695239.620    21695242.302   -52193990.387 9  38990638.595 8
  21556190.634    21556196.086  -104251477.767 9 138313587.021 9
  24062653.011    24062657.448   -23526603.617 9  39149218.800 7
 88  3 22  8 10 29.0800000  0  4G 3G13G12G 9
  22183246.421    22183251.462  -103016611.138 8 117779348.496 7
  21702094.095    21702098.881   -52157966.309 9  39018709.297 9
  21567715.453    21567720.125  -104190918.539 8 138360776.019 7
  24086003.895    24086008.963   -23403888.741 8  39244840.770 8
 88  3 22  8 10 59.0800000  0  4G 3G13G12G 9
  22176629.437    22176632.902  -103051398.679 8 117752241.341 9
  21708969.920    21708972.802   -52121842.374 9  39046857.801 8
  21579342.603    21579348.048  -104129816.930 8 138408387.637 8
  24109374.584    24109381.503   -23281071.146 7  39340542.761 8
 88  3 22  8 11 29.0800000  0  4G 3G13G12G 9
  22170038.750    22170042.891  -103086027.246 9 117725258.035 8
  21715860.196    21715864.799   -52085620.273 8  39075082.825 8
  21591070.740    21591077.781  -104068175.270 9 138456420.087 9
  24132765.930    24132769.821   -23158154.311 8  39436322.064 8
 88  3 22  8 11 59.0800000  0  4G 3G13G12G 9
  22163478.799    22163484.108  -103120497.346 9 117698398.236 7
  21722772.510    21722774.435   -52049300.534 9  39103383.942 8
  21602905.368    21602909.229  -104005995.960 8 138504871.480 8
  24156175.233    24156178.371   -23035141.453 8  39532176.185 8
 88  3 22  8 12 29.0800000  0  4G 3G13G12G 9
  22156950.354    22156953.871  -103154809.878 8 117671661.209 7
  21729702.251    21729706.250   -52012884.257 8  39131760.262 8
  21614838.332    21614843.998  -103943281.174 8 138553740.117 8
  24179600.610    24179604.913   -22912036.277 7  39628102.284 9
 88  3 22  8 12 59.0800000  0  4G 3G13G12G 9
  22150450.149    22150454.256  -103188965.394 8 117645046.526 8
  21736651.797    21736655.897   -51976372.604 8  39160210.898 8
  21626874.019    21626879.969  -103880033.404 8 138603024.077 8
  24203044.307    24203048.508   -22788841.688 7  39724098.026 8
 88  3 22  8 13 29.0800000  0  4G 3G13G12G 9
  22143980.950    22143983.836  -103222964.172 8 117618553.990 7
  21743617.341    21743621.884   -51939766.044 9  39188735.473 9
  21639010.491    21639015.948  -103816254.969 8 138652721.550 9
  24226503.335    24226508.184   -22665560.829 7  39820161.015 8
 88  3 22  8 13 59.0800000  0  4G 3G13G12G 9
  22137540.456    22137544.013  -103256807.041 8 117592182.947 8
  21750600.770    21750605.628   -51903065.721 9  39217333.104 8
  21651249.473    21651253.965  -103751948.732 8 138702830.281 8
  24249978.321    24249982.504   -22542197.213 7  39916288.465 8
 88  3 22  8 14 29.0800000  0  4G 3G13G12G 9
  22131129.168    22131134.105  -103290494.781 8 117565932.788 8
  21757603.060    21757606.243   -51866272.444 9  39246003.211 8
  21663585.327    21663590.931  -103687117.222 8 138753348.318 8
  24273469.672    24273474.066   -22418754.256 8  40012477.751 8
 88  3 22  8 14 59.0800000  0  4G 3G13G12G 9
  22124747.997    22124752.471  -103324028.051 8 117539802.972 7
  21764621.575    21764625.446   -51829386.626 9  39274745.416 9
  21676022.328    21676026.405  -103621762.516 8 138804274.049 8
  24296974.020    24296978.613   -22295235.068 8  40108726.424 8
 88  3 22  8 15 29.0800000  0  4G 3G13G12G 9
  22118396.750    22118401.006  -103357407.516 9 117513792.991 8
  21771657.091    21771661.993   -51792409.326 8  39303558.883 8
  21688558.334    21688562.248  -103555887.303 9 138855605.376 8
  24320493.646    24320498.789   -22171642.928 8  40205031.953 8
 88  3 22  8 15 59.0800000  0  4G 3G13G12G 9
  22112074.247    22112077.882  -103390633.711 9 117487902.469 9
  21778710.378    21778715.064   -51755341.746 8  39332442.696 8
  21701192.088    21701197.768  -103489493.808 8 138907340.538 8
  24344025.616    24344029.285   -22047980.838 8  40301391.987 7
 88  3 22  8 16 29.0800000  0  4G 3G13G12G 9
  22105779.735    22105782.456  -103423707.897 8 117462130.381 8
  21785783.010    21785785.495   -51718184.618 8  39361396.289 8
  21713924.363    21713928.806  -103422585.220 8 138959477.088 9
  24367570.640    24367574.800   -21924252.857 8  40397803.430 7
 88  3 22  8 16 59.0800000  0  4G 3G13G12G 9
  22099514.251    22099519.032  -103456630.547 8 117436476.386 8
  21792871.041    21792874.695   -51680939.177 8  39390418.741 8
  21726753.329    21726759.237  -103355164.198 8 139012012.929 8
  24391125.770    24391130.936   -21800461.822 7  40494263.968 8
 88  3 22  8 17 29.0800000  0  4G 3G13G12G 9
  22093278.543    22093283.113  -103489401.954 7 117410940.215 8
  21799975.012    21799978.839   -51643605.689 9  39419509.761 9
  21739681.692    21739687.672  -103287233.103 9 139064946.227 9
  24414693.268    24414700.127   -21676611.168 7  40590770.951 8
 88  3 22  8 17 59.0800000  0  4G 3G13G12G 9
  22087070.255    22087075.098  -103522022.693 7 117385521.491 9
  21807095.293    21807100.553   -51606184.842 8  39448668.839 8
  21752705.677    21752710.227  -103218794.541 8 139118274.977 7
  24438272.602    24438276.860   -21552703.917 7  40687322.020 8
 88  3 22  8 18 29.0800000  0  4G 3G13G12G 9
  22080892.398    22080896.032  -103554493.939 7 117360219.219 8
  21814232.463    21814237.535   -51568677.554 8  39477895.297 9
  21765822.952    21765829.226  -103149850.731 8 139171997.417 8
  24461862.568    24461866.968   -21428743.475 6  40783914.582 8
 88  3 22  8 18 59.0800000  0  4G 3G13G12G 9
  22074741.859    22074744.363  -103586815.953 8 117335033.249 8
  21821384.569    21821390.957   -51531085.285 8  39507187.947 9
  21779039.766    21779044.747  -103080404.340 8 139226111.468 7
  24485460.578    24485465.090   -21304732.764 7  40880546.257 9
 88  3 22  8 19 29.0800000  0  4G 3G13G12G 9
  22068618.622    22068623.302  -103618989.759 9 117309962.754 8
  21828554.732    21828560.235   -51493408.020 8  39536546.831 8
  21792350.536    21792354.949  -103010458.200 8 139280614.956 8
  24509067.683    24509071.997   -21180675.239 7  40977214.429 8
 88  3 22  8 19 59.0800000  0  4G 3G13G12G 9
  22062525.205    22062528.404  -103651015.984 8 117285007.262 9
  21835741.811    21835746.070   -51455646.389 8  39565971.472 7
  21805754.122    21805759.310  -102940015.189 9 139335505.581 8
  24532683.500    24532689.751   -21056574.052 7  41073916.627 9
 88  3 22  8 20 29.0800000  0  4G 3G13G12G 9
  22056458.136    22056462.557  -103682895.194 8 117260166.329 8
  21842942.884    21842947.312   -51417801.636 8  39595460.899 9
  21819253.867    21819259.332  -102869078.115 8 139390781.226 8
  24556306.085    24556311.794   -20932432.952 7  41170649.898 9
 88  3 22  8 20 59.0800000  0  4G 3G13G12G 9
  22050419.621    22050423.899  -103714627.876 8 117235439.565 8
  21850160.154    21850163.325   -51379874.874 8  39625014.225 8
  21832846.200    21832850.031  -102797649.988 8 139446439.488 7
  24579937.054    24579942.395   -20808254.885 7  41267411.958 8
 88  3 22  8 21 29.0800000  0  4G 3G13G12G 9
  22044408.631    22044412.312  -103746214.841 8 117210826.370 8
  21857393.364    21857396.176   -51341866.189 9  39654631.379 8
  21846532.505    21846536.633  -102725732.865 8 139502478.777 8
  24603574.264    24603578.053   -20684042.700 7  41364200.643 8
 88  3 22  8 21 59.0800000  0  4G 3G13G12G 9
  22038426.642    22038429.985  -103777656.439 8 117186326.430 9
  21864641.746    21864645.730   -51303776.852 7  39684311.376 8
  21860308.855    21860314.304  -102653329.823 8 139558896.705 8
  24627217.109    24627220.221   -20559800.090 7  41461013.053 8
 88  3 22  8 22 29.0800000  0  4G 3G13G12G 9
  22032471.337    22032475.054  -103808953.624 8 117161939.007 8
  21871904.890    21871909.821   -51265607.021 9  39714054.095 8
  21874178.531    21874183.368  -102580443.754 8 139615691.014 8
  24650864.802    24650868.242   -20435530.298 8  41557846.648 7
 88  3 22  8 22 59.0800000  0  4G 3G13G12G 9
  22026540.947    22026546.122  -103840106.757 8 117137663.871 8
  21879184.406    21879188.690   -51227357.311 9  39743859.028 8
  21888139.190    21888145.671  -102507077.314 8 139672859.643 9
  24674516.447    24674521.766   -20311236.102 9  41654699.240 8
 88  3 22  8 23 29.0800000  0  4G 3G13G12G 9
  22020641.079    22020645.836  -103871116.667 8 117113500.302 9
  21886477.917    21886481.513   -51189029.051 8  39773725.186 8
  21902192.085    21902197.916  -102433233.707 8 139730400.109 8
  24698172.652    24698178.373   -20186921.067 8  41751568.074 8
 88  3 22  8 23 59.0800000  0  4G 3G13G12G 9
  22014767.372    22014769.976  -103901984.176 9 117089447.704 8
  21893786.249    21893789.835   -51150622.873 9  39803652.089 8
  21916334.404    21916339.206  -102358915.122 8 139788310.662 9
  24721831.888    24721837.499   -20062588.191 8  41848450.821 8
 88  3 22  8 24 29.0800000  0  4G 3G13G12G 9
  22008920.585    22008924.017  -103932709.836 8 117065505.633 8
  21901109.178    21901113.209   -51112139.285 8  39833639.319 8
  21930567.422    21930571.608  -102284124.556 8 139846588.999 9
  24745494.142    24745499.587   -19938240.672 8  41945344.980 8
 88  3 22  8 24 59.0800000  0  4G 3G13G12G 9
  22003100.773    22003103.258  -103963293.821 8 117041673.985 8
  21908444.758    21908451.105   -51073578.770 8  39863686.456 8
  21944887.939    21944892.135  -102208865.478 9 139905232.428 7
  24769160.778    24769165.758   -19813881.822 7  42042247.944 8
 88  3 22  8 25 29.0800000  0  4G 3G13G12G 9
  21997305.941    21997309.468  -103993736.845 8 117017952.146 8
  21915798.711    21915803.497   -51034942.098 9  39893792.940 8
  21959299.166    21959302.205  -102133140.114 8 139964239.186 9
  24792827.180    24792831.744   -19689514.940 8  42139157.184 8
 88  3 22  8 25 59.0800000  0  4G 3G13G12G 9
  21991539.889    21991544.411  -104024039.724 7 116994339.532 8
  21923165.284    21923170.614   -50996229.548 9  39923958.539 8
  21973797.385    21973800.825  -102056951.761 8 140023606.723 8
  24816492.759    24816498.960   -19565142.973 6  42236070.354 8
 88  3 22  8 26 29.0800000  0  4G 3G13G12G 9
  21985801.241    21985805.122  -104054202.926 8 116970835.732 8
  21930546.911    21930550.350   -50957442.553 8  39954182.178 9
  21988380.770    21988387.003  -101980303.231 8 140083332.825 8
  24840161.637    24840166.921   -19440769.188 7  42332984.967 9
 88  3 22  8 26 59.0800000  0  4G 3G13G12G 9
  21980088.395    21980090.361  -104084226.705 8 116947440.606 9
  21937942.102    21937946.329   -50918581.130 8  39984463.802 7
  22003054.291    22003061.174  -101903196.575 8 140143415.938 8
  24863829.842    24863834.520   -19316396.378 8  42429898.805 7
 88  3 22  8 27 29.0800000  0  4G 3G13G12G 9
  21974400.876    21974404.348  -104114112.234 8 116924153.178 9
  21945351.374    21945354.255   -50879646.116 9  40014802.759 7
  22017814.031    22017819.826  -101825635.640 9 140203853.001 8
  24887493.886    24887500.706   -19192027.897 7  42526809.295 8
 88  3 22  8 27 59.0800000  0  4G 3G13G12G 9
  21968740.048    21968742.619  -104143860.441 9 116900972.776 8
  21952774.809    21952778.695   -50840638.176 9  40045198.533 8
  22032659.144    22032664.019  -101747623.778 9 140264641.462 8
  24911160.006    24911165.620   -19067667.304 7  42623713.621 8
 88  3 22  8 28 29.0800000  0  4G 3G13G12G 9
  21963104.379    21963106.961  -104173471.757 9 116877899.021 7
  21960212.871    21960216.184   -50801558.084 8  40075650.569 8
  22047589.646    22047594.682  -101669163.562 9 140325779.295 8
  24934823.804    24934828.758   -18943317.460 7  42720609.578 7
 88  3 22  8 28 59.0800000  0  4G 3G13G12G 9
  21957496.978    21957501.069  -104202946.475 9 116854931.704 8
  21967660.204    21967665.104   -50762406.091 9  40106158.607 8
  22062605.805    22062610.335  -101590257.940 8 140387264.167 7
  24958484.633    24958488.578   -18818981.530 7  42817494.679 8
 88  3 22  8 29 29.0800000  0  4G 3G13G12G 9
  21951913.223    21951917.312  -104232285.067 8 116832070.466 8
  21975122.963    21975129.138   -50723183.244 8  40136721.834 8
  22077703.221    22077709.459  -101510909.563 8 140449094.064 9
  24982140.767    24982145.559   -18694662.790 7  42914366.416 7
 88  3 22  8 29 59.0800000  0  4G 3G13G12G 9
  21946356.153    21946360.194  -104261488.166 9 116809314.831 8
  21982603.350    21982605.004   -50683889.352 8  40167340.460 7
  22092885.759    22092891.698  -101431121.789 7 140511266.334 8
  25005794.510    25005798.706   -18570364.087 7  43011222.505 8
 88  3 22  8 30 29.0800000  0  4G 3G13G12G 9
  21940823.586    21940828.073  -104290556.806 8 116786663.939 8
  21990094.127    21990097.042   -50644525.683 9  40198013.454 8
  22108153.207    22108158.644  -101350898.365 7 140573778.079 7
  25029444.854    25029447.729   -18446088.988 7  43108060.191 8
 88  3 22  8 30 59.0800000  0  4G 3G13G12G 9
  21935317.838    21935322.689  -104319490.947 9 116764117.861 8
  21997599.444    21997599.651   -50605092.941 8  40228740.275 7
  22123501.382    22123508.272  -101270241.678 8 140636627.401 8
  25053087.108    25053092.660   -18321840.254 8  43204877.343 8
 88  3 22  8 31 29.0800000  0  3G 3G13G12
  21929837.086    21929840.672  -104348291.596 8 116741675.808 8
  22005112.292    22005116.916   -50565591.894 7  40259520.276 8
  22138930.449    22138936.494  -101189155.142 8 140699811.702 8
